GFSWCAN_925_spd_000.txt.gz
Wind_Speed
18 19 28 28 27 29 28 27 26 24 22 19 17 14 11 9 7 6 5 4 4 2 6 9 10 11 8 5 3 2 3 2 2 3 3 4 4 4 4 7 7 8 6 4 4 5 10 3 8 3 12 15 15 15
15 17 20 22 24 27 25 26 26 26 25 23 21 18 16 13 10 8 6 6 4 4 5 4 10 17 15 18 8 2 4 4 4 4 4 3 3 2 3 9 15 6 7 7 9 8 19 23 24 15 24 18 18 15
6 9 14 19 25 26 26 25 26 26 25 24 24 22 20 17 15 13 7 7 4 2 4 7 12 19 18 18 15 7 3 6 7 7 3 3 4 3 3 5 5 5 13 12 15 16 24 22 24 21 18 16 19 18
5 4 3 8 16 22 27 28 27 25 24 24 23 23 22 20 19 17 15 11 8 2 2 5 15 16 11 15 18 20 19 19 13 5 3 3 3 6 5 8 9 7 9 12 22 24 21 20 18 21 20 17 11 14
4 3 2 2 4 12 20 25 27 28 25 25 25 25 23 22 20 19 21 21 18 6 2 3 5 15 14 16 17 20 19 12 7 4 3 3 3 3 5 4 7 6 14 10 18 21 19 25 22 23 18 10 16 12
5 5 2 4 4 3 7 16 22 25 28 30 28 28 25 23 19 13 2 21 31 19 1 3 3 5 17 19 19 21 20 10 9 4 3 3 4 5 4 11 9 13 12 15 16 24 27 24 19 15 15 13 13 13
4 5 5 2 2 3 2 5 12 20 22 25 29 27 25 24 25 7 4 3 10 21 3 3 4 2 7 11 9 10 17 7 6 4 4 3 3 5 3 12 24 18 20 23 25 18 13 14 12 14 9 13 20 17
9 6 6 6 3 3 4 5 2 7 14 19 19 19 22 18 14 4 3 6 15 6 3 3 3 3 2 1 2 5 2 3 2 2 2 2 2 2 6 16 19 20 21 19 14 12 11 11 14 15 16 16 13 11
14 10 7 5 4 6 4 6 8 9 10 12 15 18 16 3 3 5 10 10 5 4 3 2 3 2 2 2 0 2 2 1 2 3 3 3 4 8 11 16 16 17 17 11 10 11 10 11 13 13 14 15 13 9
17 13 10 9 6 5 7 9 11 14 20 17 6 4 2 3 15 11 4 3 3 2 2 3 2 4 4 1 1 1 1 2 2 4 3 4 11 20 20 20 19 7 7 7 4 7 7 9 13 15 15 12 8 6
18 17 13 10 9 9 9 10 16 19 8 2 2 2 6 11 3 2 2 1 2 2 3 2 5 2 2 2 2 2 1 2 3 4 3 3 5 10 12 3 5 3 4 5 10 10 14 12 13 14 11 7 4 6
19 18 16 13 13 12 12 14 14 1 1 3 9 8 4 2 1 2 3 3 3 2 5 3 3 2 2 2 3 4 3 4 6 2 2 4 3 6 1 1 4 5 11 12 15 13 17 17 16 10 12 5 4 8
18 19 18 16 15 15 15 17 8 5 12 4 3 1 3 3 4 4 6 3 3 2 1 1 2 2 2 3 1 1 4 5 3 3 4 3 4 7 4 1 7 12 10 14 18 22 22 19 18 11 11 10 9 7
20 19 18 17 16 16 15 15 12 7 1 1 2 3 4 4 4 2 2 2 2 1 3 4 2 1 2 1 2 3 4 3 4 5 7 3 5 5 6 4 5 9 6 8 12 17 17 15 13 13 13 12 7 7
18 17 16 15 15 14 13 13 13 2 1 2 1 3 4 1 4 2 2 3 2 1 1 2 1 2 1 2 3 3 4 6 6 4 3 6 4 4 5 6 8 2 6 7 14 12 14 11 10 12 13 12 9 9
19 15 10 16 15 13 12 12 5 1 3 0 1 2 2 1 2 0 1 1 2 3 1 1 1 1 4 4 6 8 5 7 5 3 6 7 6 3 4 6 4 9 10 12 14 13 16 14 12 15 15 13 10 11
17 4 13 17 14 13 12 3 3 1 1 1 3 1 1 2 2 2 2 4 5 3 1 1 4 7 3 5 8 5 7 7 5 7 7 8 10 8 8 4 7 11 11 14 14 14 15 16 18 13 7 10 14 12
1 10 19 19 17 14 4 1 2 2 3 4 3 3 2 2 1 2 3 5 3 4 3 5 4 9 6 11 12 8 8 8 8 9 10 12 11 17 15 10 18 20 17 16 14 12 16 17 13 10 11 13 12 9
12 17 22 24 18 5 4 2 1 3 5 1 3 1 3 2 7 9 3 5 8 8 2 3 7 8 10 9 10 10 9 8 9 11 11 18 17 16 17 20 21 18 18 18 9 12 13 16 13 11 14 13 10 12
13 20 26 22 10 3 2 2 1 3 2 3 5 5 5 4 2 3 4 5 6 3 5 5 8 10 9 9 9 10 10 11 11 11 13 12 20 20 19 20 18 21 22 20 10 14 12 10 12 13 8 9 8 6
14 15 22 15 3 2 1 3 3 2 3 3 3 6 4 5 6 4 4 6 5 5 8 8 11 13 19 20 22 21 19 18 12 11 13 13 20 21 22 24 24 23 19 12 6 11 13 12 11 12 12 6 5 8
8 20 7 9 2 1 3 7 3 4 3 3 2 3 4 5 6 5 4 6 7 9 11 12 11 11 11 14 16 20 20 20 23 24 26 24 12 10 11 18 19 11 15 10 13 12 12 14 11 12 8 8 9 8
18 9 5 3 3 3 4 8 4 4 4 4 3 4 4 4 3 4 4 6 7 13 15 14 18 20 17 22 20 22 24 22 15 18 19 19 20 19 18 21 20 15 10 16 17 13 11 11 11 9 8 11 11 8
9 9 5 6 7 3 3 5 4 3 4 5 4 6 7 4 4 5 9 9 11 11 10 14 15 10 11 14 9 11 16 17 17 18 17 17 10 15 20 19 15 20 21 13 10 7 6 10 9 9 12 11 10 9
4 6 4 5 5 5 5 4 5 5 6 8 12 9 4 2 4 7 11 11 9 8 7 9 9 8 8 8 7 13 18 17 10 8 18 17 19 18 16 16 16 12 8 5 2 4 8 8 10 10 11 10 9 8
7 7 9 7 7 6 7 5 7 11 10 13 6 3 1 3 6 7 6 6 4 4 4 5 5 5 6 9 8 8 12 7 9 10 19 15 13 12 7 6 5 6 10 11 10 10 11 12 12 11 11 10 8 8
6 7 5 5 4 4 3 4 4 6 7 6 6 9 5 5 6 5 5 6 5 8 8 10 12 8 8 12 13 10 11 14 13 16 21 21 20 19 15 10 8 8 6 12 12 12 13 12 11 12 10 10 11 11
6 4 10 8 6 6 11 9 7 6 6 5 6 9 5 6 6 4 2 6 6 7 11 11 11 13 12 11 12 14 16 15 17 18 19 19 19 19 17 15 13 9 7 9 10 11 12 12 12 11 11 9 8 9
5 5 5 8 10 7 8 10 12 8 9 8 10 13 14 10 9 9 17 17 13 10 7 9 12 12 14 16 16 16 17 16 11 11 12 8 8 9 15 14 12 11 10 9 9 9 12 13 12 11 11 9 7 6
9 6 8 10 14 12 13 7 10 8 6 7 8 9 10 12 26 28 26 16 10 10 11 9 7 8 10 10 10 13 15 14 15 8 6 7 8 19 21 16 16 14 12 9 7 8 12 13 13 11 9 6 5 5
3 4 9 12 15 14 13 8 3 4 5 9 9 11 14 12 19 20 11 8 9 8 8 9 9 7 6 6 7 7 6 4 4 7 9 12 13 14 11 7 5 3 4 5 5 5 5 5 5 7 5 3 2 2
4 8 9 14 13 9 3 3 4 7 8 8 11 9 10 6 7 2 4 4 4 6 2 1 2 3 7 6 6 2 2 4 5 6 7 8 7 5 3 2 3 4 5 5 4 4 2 1 1 2 2 3 2 2
9 10 12 11 10 12 8 5 5 5 8 11 10 9 9 6 4 3 4 6 5 6 6 6 5 6 5 3 2 2 3 5 7 7 7 7 7 6 7 6 4 2 2 2 3 3 2 1 2 1 2 4 6 5

GFSWCAN_925_spd_003.txt.gz
Wind_Speed
14 24 33 27 28 27 25 22 22 20 18 16 13 10 6 3 2 1 1 4 2 2 4 3 2 3 2 2 4 3 5 4 3 2 3 3 4 4 2 4 3 4 2 4 3 4 8 2 3 3 6 4 7 4
10 13 21 28 24 27 25 26 24 23 21 19 17 14 11 8 6 4 1 1 3 2 4 5 10 10 7 2 3 0 6 2 5 3 2 2 3 1 4 5 4 3 7 4 8 6 5 10 12 10 15 18 8 5
8 8 12 18 26 23 24 21 23 23 23 22 20 18 17 13 11 8 7 5 1 3 4 3 5 7 10 12 10 4 3 5 4 5 4 4 4 3 4 5 4 3 5 8 7 9 16 14 20 19 14 7 8 5
8 7 8 11 15 19 20 21 21 22 23 23 22 21 20 17 15 13 13 10 6 4 3 6 10 13 15 14 15 14 16 11 3 1 2 3 3 6 4 6 7 5 4 8 13 19 19 16 11 11 11 5 5 6
6 6 6 7 8 14 18 22 23 23 22 22 23 22 21 20 16 15 17 18 13 4 3 3 6 14 15 12 17 19 19 7 2 1 1 3 3 2 3 1 3 7 15 7 16 19 14 20 9 6 5 6 10 9
6 5 3 2 3 3 5 13 22 24 24 23 22 23 22 19 16 11 2 19 26 18 2 2 4 4 14 22 21 18 14 4 3 4 4 3 5 5 4 7 8 14 11 15 14 12 17 12 9 14 12 7 12 9
5 4 2 2 0 1 1 2 8 16 21 24 24 22 21 21 22 7 4 3 14 23 3 3 3 3 4 2 3 2 6 3 3 3 4 3 3 4 2 11 17 15 11 14 20 18 8 5 4 4 7 5 10 10
6 4 4 3 3 3 3 1 3 8 14 18 18 16 19 17 12 4 6 8 19 6 1 2 3 3 1 1 1 5 2 2 2 2 2 1 2 1 4 11 12 10 13 15 4 3 2 3 10 9 7 5 6 5
10 6 4 2 1 2 2 5 5 3 5 10 12 8 8 4 5 5 8 11 10 3 3 2 3 2 2 1 1 2 2 1 3 2 3 2 3 6 6 10 12 11 6 2 9 8 8 7 10 8 6 7 5 4
11 10 5 4 3 3 2 3 8 12 19 22 8 4 2 1 13 13 4 2 3 2 2 2 1 2 3 1 1 1 1 2 2 4 1 3 6 10 11 15 15 2 7 9 6 2 7 5 5 6 5 4 3 4
13 14 10 8 5 5 6 8 14 11 4 3 4 2 6 13 2 2 2 1 0 2 2 2 3 2 0 2 2 2 0 1 2 4 4 3 3 5 9 4 7 4 4 3 6 9 8 8 9 6 7 8 9 7
16 18 14 11 9 8 8 9 11 5 3 3 12 8 5 2 1 3 3 3 3 3 3 2 2 1 1 1 2 2 2 2 5 3 1 4 4 7 1 5 7 8 8 6 10 7 13 16 16 7 8 9 10 12
19 19 17 13 12 11 11 11 3 12 15 5 3 3 2 2 3 4 5 3 2 2 2 1 2 2 2 3 2 0 3 5 1 2 4 4 5 6 5 5 6 8 10 12 11 16 19 18 23 18 14 15 13 14
19 19 18 16 14 13 12 12 6 6 1 2 3 2 4 3 3 1 1 2 0 1 3 3 2 2 1 2 1 2 4 2 3 2 4 3 4 5 5 4 4 6 4 5 8 14 17 16 16 15 14 17 15 14
18 20 19 16 14 12 10 11 9 3 3 1 3 3 3 2 3 2 1 2 1 2 3 2 2 2 0 1 2 1 3 5 5 4 2 3 4 3 3 4 5 5 5 4 10 11 16 18 14 17 17 20 15 15
21 18 10 14 13 12 9 11 5 1 3 2 2 1 2 3 2 2 0 2 1 2 1 2 2 2 3 4 2 7 3 6 4 1 3 2 4 4 5 5 7 11 12 14 17 19 19 17 12 15 17 17 16 13
14 5 14 15 15 15 14 5 2 3 1 2 2 1 2 2 1 3 3 2 6 2 2 2 3 9 1 2 3 4 5 3 2 3 2 4 6 7 6 9 14 13 14 18 21 23 21 17 13 15 12 14 12 13
6 16 20 19 20 13 4 2 3 2 2 3 2 3 1 1 2 1 1 1 2 2 2 4 2 1 5 6 4 4 2 2 2 2 3 7 8 13 16 12 19 22 20 23 25 25 23 14 10 12 16 15 11 14
13 17 18 23 14 4 3 1 1 2 4 2 2 1 2 2 4 4 3 2 5 2 2 1 3 4 4 3 3 4 3 2 4 4 5 13 19 19 22 23 23 22 21 23 21 17 19 13 14 17 15 12 13 16
9 18 23 21 5 3 2 0 1 1 1 3 2 2 3 3 1 2 3 2 0 1 3 3 4 4 3 4 3 2 3 3 4 7 10 10 17 18 19 19 19 22 21 22 22 20 14 16 16 19 15 14 12 11
15 18 20 12 2 1 2 2 1 2 2 1 2 3 3 1 2 4 4 3 4 3 3 5 8 10 11 16 19 17 15 14 9 7 9 9 18 19 20 22 22 22 15 13 11 14 16 13 17 18 16 13 7 10
9 20 5 3 2 2 1 4 3 3 1 2 1 0 1 1 3 3 3 3 3 4 5 8 8 6 7 8 14 21 22 23 22 17 19 20 6 8 11 17 15 11 14 17 18 17 17 19 20 17 15 12 10 9
16 8 4 3 2 2 5 3 2 3 2 3 0 1 3 2 3 4 3 4 4 8 14 10 16 21 17 22 22 23 26 24 14 14 18 16 18 16 17 18 17 16 14 20 18 18 19 17 14 14 15 12 12 10
8 5 4 4 4 3 2 3 2 1 1 1 3 3 3 4 2 1 4 4 5 7 6 9 13 7 9 11 4 10 18 17 13 15 15 8 9 14 16 18 19 19 20 23 19 16 8 7 8 8 8 10 12 11
5 6 4 5 3 4 4 3 4 2 4 6 4 4 3 2 2 3 4 4 4 6 6 10 9 4 5 3 6 15 20 15 7 4 10 11 16 17 16 14 17 17 21 11 3 3 1 3 7 7 8 11 11 12
4 6 9 6 4 4 6 4 6 7 4 4 5 3 1 2 2 6 3 3 4 4 4 4 4 2 3 10 4 5 13 5 4 5 13 13 15 13 11 9 9 13 16 15 12 9 9 10 9 9 10 12 12 10
5 7 4 3 3 3 1 1 1 2 4 5 3 3 3 4 6 5 3 3 2 2 7 11 13 10 8 10 12 9 6 8 10 15 20 20 20 19 20 17 14 16 21 18 13 11 9 10 13 14 14 13 12 10
5 2 7 4 3 2 4 2 4 6 5 3 2 5 6 7 6 3 3 0 4 4 7 12 15 16 15 16 14 10 13 15 17 19 18 16 14 17 18 19 21 20 18 17 12 12 13 15 15 14 13 13 12 14
3 3 3 5 3 3 5 6 6 4 4 3 5 6 5 4 4 3 14 17 22 18 15 15 20 18 14 12 8 10 12 14 11 10 12 7 3 6 16 25 23 19 18 17 17 16 16 17 17 18 16 15 13 11
4 4 3 4 6 6 5 5 4 4 4 7 7 3 6 10 27 27 26 23 19 18 18 15 12 10 10 10 10 9 9 11 10 9 3 2 5 20 19 20 20 16 15 15 15 13 12 13 15 13 14 14 12 10
2 3 3 5 7 10 10 8 8 5 2 5 7 9 12 9 17 19 12 6 5 2 2 3 6 9 7 3 1 2 2 2 3 7 8 10 11 12 12 13 12 9 7 4 3 3 2 2 4 7 8 5 4 4
3 5 5 8 9 6 3 3 4 5 5 5 11 8 10 8 7 2 9 9 6 5 7 7 6 4 7 6 6 0 2 4 6 5 6 8 8 8 8 8 7 5 4 5 5 4 4 6 4 4 4 7 7 6
3 3 7 6 4 4 4 2 4 5 6 9 8 8 8 6 5 3 7 13 10 9 9 8 8 4 7 4 3 2 4 5 7 7 7 8 9 9 9 9 8 8 7 6 7 6 6 4 5 3 4 10 12 13

GFSWCAN_925_spd_006.txt.gz
Wind_Speed
11 28 28 28 29 26 24 22 19 17 16 13 10 6 4 2 1 3 4 4 3 2 4 1 1 3 1 2 4 3 4 4 3 3 3 4 4 5 1 4 5 5 3 4 3 3 8 0 3 2 6 4 12 16
8 11 24 33 29 29 26 24 22 20 18 16 14 11 8 5 3 2 3 4 2 3 3 3 7 7 6 7 5 1 5 4 5 3 2 2 3 2 4 5 1 3 7 4 8 7 4 3 12 6 7 16 10 5
10 9 16 29 31 26 29 26 25 22 21 19 17 15 13 10 7 6 4 5 3 3 4 2 4 5 10 10 9 4 3 4 4 4 4 3 4 3 5 5 3 4 4 6 6 7 11 11 19 18 10 5 3 4
7 6 9 16 29 30 25 27 23 22 23 21 20 18 16 14 11 12 7 6 5 5 3 6 4 9 10 12 13 15 13 5 2 2 3 3 3 5 5 6 7 6 5 5 14 17 19 15 13 6 5 3 3 3
7 6 5 8 13 17 23 24 21 22 20 22 21 20 18 15 15 14 13 11 9 4 3 3 10 8 7 9 10 13 13 3 2 1 2 4 3 2 2 1 4 6 16 7 14 16 13 16 4 4 6 7 11 7
5 8 7 7 7 7 12 16 19 20 21 20 19 19 18 16 14 8 2 15 22 16 1 2 4 4 10 17 20 14 12 4 4 3 3 3 4 4 4 4 6 10 12 17 17 19 12 7 6 3 2 9 11 10
5 5 7 6 6 6 4 6 11 16 18 19 19 16 16 16 18 6 4 2 13 20 2 3 3 3 3 3 1 3 1 3 4 3 4 3 4 4 2 12 23 12 10 14 14 10 6 8 5 8 7 13 12 11
7 7 8 10 9 8 5 2 3 6 12 16 16 15 14 13 12 5 6 9 13 5 2 2 2 3 2 1 2 5 2 2 2 2 1 2 2 1 4 17 10 8 9 8 3 8 6 3 5 7 10 14 7 6
9 8 6 6 7 8 8 7 5 5 8 12 11 11 10 4 4 3 8 9 9 3 3 2 3 3 2 1 1 2 2 2 1 1 2 2 1 5 6 5 8 7 5 7 8 6 3 3 7 9 10 5 5 6
12 10 8 7 7 9 10 11 15 13 14 17 9 4 2 1 8 11 3 2 2 3 2 2 1 3 3 1 1 0 1 2 2 3 1 2 5 10 16 16 15 4 7 6 7 3 2 4 6 6 6 5 5 6
14 12 10 9 9 11 13 16 17 15 9 3 3 2 8 10 1 3 1 2 1 1 2 1 3 2 1 2 2 1 1 0 2 4 3 2 3 5 6 4 6 7 9 6 6 5 5 5 6 7 8 10 13 12
16 15 13 11 11 12 13 13 8 7 5 7 14 9 4 1 2 1 2 0 2 3 3 2 3 2 1 2 2 2 2 1 5 1 1 3 3 8 6 7 6 7 7 4 6 6 7 8 11 9 10 12 15 16
16 18 16 13 12 12 14 11 16 23 14 7 5 3 3 0 2 5 6 3 3 2 3 1 2 2 2 2 2 2 2 4 1 0 3 4 4 4 3 3 3 4 4 3 6 7 8 12 17 11 12 17 18 17
16 19 15 13 13 13 15 9 17 7 3 3 3 3 3 2 3 3 2 3 1 1 2 3 2 2 1 2 2 3 4 3 2 3 5 2 3 6 6 4 5 7 8 9 11 13 15 17 19 15 11 13 15 17
20 19 17 14 14 13 13 9 10 3 2 2 3 3 3 2 1 1 1 1 1 1 2 2 2 2 1 2 1 1 2 3 3 4 3 3 3 4 6 6 7 6 7 8 15 13 18 21 18 21 19 16 17 22
23 19 14 20 16 13 13 12 7 2 3 3 3 2 1 2 1 1 0 1 1 1 2 2 2 3 3 3 2 5 5 6 4 3 3 2 4 6 6 5 10 15 17 18 20 21 22 22 21 21 19 14 18 17
21 6 22 20 17 16 15 6 2 3 3 2 1 1 2 2 3 3 2 2 5 2 2 2 4 10 1 2 2 4 5 4 3 3 3 5 5 6 7 11 16 19 18 20 21 24 23 28 26 14 10 20 19 17
11 23 21 21 22 16 5 2 3 3 1 2 2 3 2 2 3 2 3 2 3 2 2 3 2 2 5 5 4 4 3 3 3 3 3 3 6 12 14 13 19 21 20 22 23 26 24 23 16 15 20 18 14 14
26 27 26 23 16 6 3 1 2 3 4 2 1 0 2 2 2 2 3 2 2 0 2 2 1 4 4 3 4 3 3 2 2 6 8 13 14 17 21 23 22 20 21 22 22 20 21 23 22 22 21 15 12 14
22 21 23 17 8 4 2 2 1 3 1 3 2 0 3 3 2 2 3 3 2 0 3 4 4 4 4 4 3 3 3 4 2 5 10 9 15 17 19 19 17 21 21 22 22 24 22 21 23 21 22 19 12 11
22 21 15 10 3 3 4 2 1 3 1 1 2 3 2 2 2 3 4 2 2 3 2 4 5 7 15 17 16 17 14 12 7 4 9 9 17 12 18 20 21 21 16 16 13 18 20 16 20 22 19 17 16 12
12 16 6 4 3 3 2 2 3 1 2 2 2 1 0 1 2 3 2 3 3 4 5 6 9 8 6 6 15 18 21 23 22 20 20 20 7 7 10 15 16 11 14 14 16 17 21 21 20 20 17 14 11 10
15 6 4 2 3 2 4 1 2 1 2 2 2 1 3 2 3 3 1 3 4 7 16 13 16 21 18 23 22 24 26 23 14 14 19 19 18 14 13 17 14 14 14 17 17 20 21 24 21 17 13 12 12 12
8 4 3 3 3 2 1 2 1 1 3 2 2 3 3 3 1 2 4 3 4 6 3 10 14 8 9 10 5 12 21 22 17 18 19 12 7 12 12 15 18 18 18 22 20 21 10 9 5 2 4 7 11 12
5 3 3 4 3 3 4 1 1 2 4 4 3 4 4 2 2 2 4 6 4 5 6 11 8 7 7 7 7 17 20 12 11 4 13 8 9 13 15 16 18 18 21 20 14 16 12 11 10 7 5 7 10 12
3 6 8 8 2 5 5 4 5 7 4 3 6 3 2 3 1 5 3 3 4 3 4 4 4 2 4 10 5 7 14 7 7 5 8 6 10 11 10 8 9 16 16 15 19 18 15 13 13 13 12 11 12 13
4 5 3 3 3 3 1 2 0 3 5 6 3 2 3 3 6 5 3 5 3 5 2 2 3 7 7 13 14 15 13 11 8 11 15 16 19 19 18 15 14 18 24 25 23 18 16 15 13 16 18 16 16 15
5 3 7 4 3 2 4 1 4 6 5 3 3 4 7 8 6 4 4 5 7 6 10 15 18 20 21 22 19 13 9 7 11 13 16 17 13 14 14 10 19 23 26 24 20 19 19 18 17 16 17 18 17 16
3 2 4 4 1 3 6 7 6 4 4 4 5 5 5 4 4 5 17 21 23 25 23 21 20 18 14 11 7 7 9 8 10 6 9 8 3 7 14 16 18 19 19 19 17 16 17 18 20 20 20 20 20 16
4 3 3 3 6 7 6 6 4 4 3 7 3 3 4 5 21 26 23 24 17 15 17 18 17 11 9 7 6 10 7 7 7 6 3 2 4 14 15 14 17 17 15 13 12 11 12 13 14 14 14 12 11 12
1 3 1 2 5 5 7 4 5 2 1 4 5 7 11 7 6 3 6 8 7 6 5 3 3 6 6 4 3 2 1 0 2 6 8 8 8 9 10 11 11 11 10 9 8 8 10 11 6 7 9 9 7 5
1 5 4 5 8 5 1 3 4 5 5 4 8 3 3 1 4 2 15 13 12 11 12 13 12 9 9 6 5 2 1 1 4 4 5 6 7 8 9 9 9 8 7 6 5 5 7 7 8 6 3 1 3 4
2 2 2 2 4 4 4 1 3 4 2 6 8 7 6 4 0 3 11 16 14 15 16 14 9 6 7 5 3 5 6 6 7 7 7 8 9 10 10 10 10 8 6 5 5 6 7 7 7 7 7 10 12 11

GFSWCAN_925_spd_009.txt.gz
Wind_Speed
9 28 34 33 30 28 25 21 19 17 14 12 9 5 2 2 4 3 5 4 2 3 3 4 3 4 2 3 4 3 4 3 3 2 3 4 3 5 1 4 4 4 3 4 2 3 8 4 1 5 7 3 6 9
7 14 35 33 31 29 28 25 21 19 17 15 12 8 5 2 1 3 2 3 3 3 2 3 5 5 4 8 5 2 4 4 5 4 1 2 3 2 4 5 2 3 8 4 9 6 5 4 6 7 6 7 5 4
9 7 17 34 34 30 30 27 24 22 19 17 15 12 9 6 3 2 3 3 2 4 3 3 5 9 11 12 12 4 3 3 3 3 4 3 4 3 4 5 3 4 5 4 4 7 12 8 15 18 10 3 3 5
6 10 7 23 33 34 31 30 26 25 22 20 17 15 12 9 7 5 3 3 2 5 3 5 3 6 7 14 16 16 6 5 6 3 3 3 3 6 4 5 6 6 2 5 13 14 15 17 14 5 5 7 9 7
2 5 3 11 25 34 31 29 29 25 25 22 20 18 15 12 10 8 8 8 8 2 3 4 12 8 9 12 16 14 13 3 2 1 2 3 2 2 2 1 3 6 8 5 11 15 13 15 5 4 4 3 3 6
1 4 5 6 9 22 30 30 27 27 25 22 23 20 17 15 12 6 2 12 16 9 1 2 4 3 2 6 10 11 10 3 3 3 3 3 3 4 3 4 7 11 11 12 15 14 6 5 9 8 5 0 13 14
2 3 3 5 6 6 12 19 27 24 23 23 18 17 17 16 17 5 4 2 12 13 2 3 3 3 2 2 3 3 2 1 3 3 3 3 5 4 2 11 8 6 11 10 8 2 2 5 1 2 9 12 14 14
4 4 6 7 7 6 7 8 12 18 20 20 17 14 13 17 16 7 8 4 15 4 3 3 3 3 1 2 2 4 1 2 2 2 1 2 1 2 5 8 6 4 5 5 4 4 6 6 6 5 11 14 12 7
7 6 6 6 7 7 7 10 10 10 15 16 16 16 16 4 5 5 9 9 12 2 2 2 2 2 1 2 0 2 2 1 1 1 2 1 1 4 4 4 6 5 4 4 6 6 5 1 5 6 6 7 7 7
9 7 6 6 7 6 6 10 14 19 21 22 14 3 2 1 10 11 3 2 3 2 2 2 1 2 2 1 1 2 2 2 2 2 2 1 3 4 7 9 6 4 7 8 5 4 5 4 6 7 6 6 7 8
12 9 7 7 11 14 15 19 23 27 19 3 3 2 8 8 2 5 2 2 1 2 1 1 2 2 1 2 1 1 1 1 2 4 1 2 2 4 8 8 7 10 12 10 8 5 2 6 7 6 8 9 14 14
16 12 10 9 12 16 15 14 14 6 6 9 17 10 4 2 3 3 1 1 1 3 1 2 2 2 1 2 2 1 2 1 4 1 1 2 3 2 4 5 4 5 4 2 4 7 12 10 12 12 13 15 16 17
18 17 14 12 13 16 12 9 13 26 21 7 5 3 2 2 3 4 6 2 2 2 3 1 1 1 1 3 2 2 2 4 1 1 3 4 1 4 5 4 6 9 9 10 13 16 16 17 19 19 19 21 17 17
20 20 17 14 14 18 13 23 13 6 3 3 3 4 3 3 2 3 3 3 3 1 2 3 2 1 1 2 2 2 2 1 1 2 5 2 1 4 5 4 4 7 10 11 15 19 19 20 22 27 24 26 25 21
23 23 18 16 17 16 12 15 6 5 3 2 3 3 2 2 1 1 1 1 1 2 2 2 2 2 1 2 1 2 0 3 4 4 2 3 3 4 5 5 6 7 10 11 18 16 20 23 21 24 29 25 20 22
26 21 17 17 15 15 12 11 4 3 4 3 3 3 1 3 1 1 1 1 1 2 2 2 2 3 3 3 2 5 5 6 4 3 3 2 2 4 5 7 13 18 19 17 20 21 21 22 21 22 28 27 24 21
28 8 21 19 18 16 14 4 2 4 3 3 1 1 2 2 3 3 1 2 7 2 2 3 3 8 1 3 2 4 4 3 3 3 2 2 4 7 12 14 17 20 19 21 22 24 23 27 27 22 14 25 27 22
11 22 25 25 24 16 5 3 3 3 2 1 2 3 2 2 4 1 2 2 2 2 3 3 3 2 5 5 3 3 4 3 3 3 3 5 12 16 16 15 20 22 21 22 24 25 24 23 18 17 21 25 26 24
28 29 24 24 15 6 3 2 3 3 3 2 2 1 2 1 2 1 3 3 3 2 3 1 1 3 4 3 4 3 3 3 2 4 3 11 14 18 20 22 23 22 22 22 21 19 21 22 22 23 22 21 16 17
29 29 23 17 7 3 3 2 1 3 2 3 2 0 2 2 1 2 2 0 1 2 3 4 4 3 4 4 4 3 3 5 1 5 8 7 15 18 20 19 17 20 20 20 19 17 16 18 20 21 21 20 17 14
24 18 14 11 5 5 3 2 2 2 2 2 1 2 1 2 1 2 2 4 1 3 2 3 4 5 16 15 11 15 15 12 5 5 6 8 15 13 18 20 17 16 16 16 13 17 15 16 22 23 21 19 20 20
11 15 7 5 3 3 3 0 3 1 2 1 2 2 1 0 2 3 2 2 3 3 4 5 8 7 7 6 16 19 21 22 20 19 20 21 5 7 9 13 11 9 13 13 16 16 18 20 22 25 22 21 18 11
14 8 5 3 4 4 3 2 3 1 3 2 2 1 2 2 3 2 2 3 4 8 15 11 16 21 19 24 22 24 27 23 14 14 18 19 20 21 19 15 11 10 11 17 17 19 21 23 20 19 18 14 7 7
9 4 3 2 3 1 1 3 2 2 2 1 2 2 3 3 0 2 3 3 4 3 3 11 13 6 8 10 4 14 19 19 18 20 20 16 12 17 13 16 16 16 16 21 19 21 19 18 19 16 13 9 8 10
6 1 5 3 3 3 4 1 2 2 3 2 2 4 4 2 2 2 4 4 3 3 5 11 7 6 4 3 9 18 21 16 15 6 16 12 12 13 16 16 15 13 17 20 17 17 14 18 16 16 16 14 13 14
3 4 6 7 3 4 4 4 4 5 3 2 5 3 2 3 1 5 3 3 4 3 4 4 3 1 2 9 4 8 15 11 12 13 18 12 11 11 9 8 10 14 12 13 17 18 19 19 18 17 17 18 18 18
3 4 3 2 3 3 2 1 1 3 4 5 3 1 3 3 6 4 3 4 3 7 3 3 5 8 8 16 23 26 28 24 21 14 9 9 11 12 16 15 13 15 19 20 18 20 22 19 19 18 18 19 21 21
4 4 7 4 2 1 4 2 4 6 5 3 3 4 7 8 6 4 5 8 11 10 10 15 18 22 23 26 22 18 17 15 12 11 13 14 10 10 11 5 13 16 19 20 20 22 20 20 19 19 19 18 19 21
2 2 4 3 1 3 5 6 5 4 3 4 5 4 5 4 4 6 20 22 21 16 16 19 20 17 16 16 14 12 10 9 7 4 5 4 3 2 9 12 14 15 17 17 16 15 15 15 16 19 21 21 22 21
4 4 3 3 5 6 5 6 4 4 3 5 2 3 4 4 12 12 12 11 10 11 13 15 17 14 10 8 7 6 5 5 6 6 3 2 4 11 11 11 13 14 15 14 15 14 13 14 13 14 15 13 10 4
2 3 2 2 5 4 5 4 4 2 1 3 4 6 10 4 2 12 17 13 9 8 9 12 7 11 11 11 9 5 2 3 2 3 5 5 4 6 8 9 10 11 12 12 12 11 11 11 10 10 11 10 9 8
2 5 5 3 4 4 3 2 3 4 5 2 7 2 3 2 2 4 19 17 17 14 14 14 12 11 11 10 3 3 3 4 5 6 6 7 8 9 11 12 12 12 11 10 9 9 9 10 11 12 10 5 6 9
2 2 2 2 4 5 3 2 3 4 3 5 8 5 4 4 4 3 12 19 16 16 18 17 12 8 6 5 7 7 7 7 6 7 7 8 10 11 12 13 13 11 10 9 8 8 8 8 9 10 10 10 11 11

GFSWCAN_925_spd_012.txt.gz
Wind_Speed
5 11 30 29 27 24 22 20 18 15 12 9 6 1 2 4 4 4 8 9 4 3 3 4 3 4 3 2 4 3 4 3 3 3 3 3 3 5 2 4 5 4 3 4 2 3 8 3 1 3 6 3 5 4
4 6 17 32 30 28 25 22 19 17 15 12 9 5 2 2 4 5 4 6 6 5 3 2 3 2 2 5 5 1 3 4 4 4 1 3 3 2 5 3 1 3 7 3 8 7 5 4 7 7 5 6 5 2
5 9 8 27 32 32 28 25 22 19 17 14 12 9 5 2 2 4 7 5 4 3 3 3 2 2 8 8 6 4 3 3 3 2 4 2 3 4 4 5 3 4 4 4 2 6 8 12 13 7 5 4 7 7
7 8 8 7 29 32 30 28 26 23 20 16 14 11 9 6 3 3 3 5 6 6 3 5 4 3 3 7 10 9 5 7 7 3 3 3 2 5 4 4 5 6 2 3 6 13 14 12 3 3 5 5 5 3
7 11 3 7 14 33 33 30 28 25 22 19 17 14 11 9 6 4 4 4 3 3 3 3 11 6 6 8 12 11 7 4 3 2 2 3 2 1 2 1 2 5 6 4 13 13 9 9 3 4 6 2 6 7
6 9 8 7 6 24 33 33 29 27 23 22 19 17 15 13 9 3 2 10 12 6 3 1 3 3 2 1 2 3 4 2 3 3 3 2 3 4 3 3 6 7 9 14 12 8 5 4 5 6 3 6 10 10
2 3 8 7 7 4 28 32 30 27 26 24 22 21 16 16 17 5 4 2 16 13 3 2 3 3 4 4 3 2 3 1 3 2 3 3 3 4 2 8 9 12 8 5 4 2 2 2 2 0 6 12 14 13
1 2 1 4 5 4 4 17 31 29 26 25 21 16 17 19 18 7 6 6 19 6 3 2 3 3 3 2 2 4 1 2 1 1 1 1 1 1 3 3 5 5 6 5 6 7 6 5 6 6 10 10 7 7
4 4 4 4 1 3 1 5 11 21 27 24 23 23 16 6 5 4 10 14 15 4 3 2 3 2 1 2 1 1 2 0 1 1 1 2 1 3 3 7 7 8 4 3 6 7 8 7 5 7 5 7 6 8
6 6 4 4 3 3 3 7 10 14 18 27 19 5 1 3 13 14 3 2 3 2 3 1 2 2 1 1 2 2 2 1 2 1 2 2 2 3 5 4 5 7 8 6 6 5 3 5 7 7 6 8 9 10
9 7 5 6 8 6 7 11 16 20 23 4 4 2 7 7 4 5 2 1 1 1 2 1 0 2 1 2 2 1 2 1 2 3 0 1 2 0 3 3 4 6 7 5 3 5 7 8 8 8 8 10 16 17
12 8 7 9 11 11 16 20 26 8 3 7 17 9 4 3 2 4 2 1 1 3 1 2 1 1 1 1 2 0 2 1 3 1 0 2 3 1 0 2 4 5 7 7 8 10 15 17 19 17 16 19 21 24
15 11 9 11 14 9 7 12 4 21 20 6 5 3 2 2 2 4 6 2 2 2 3 2 2 1 1 2 2 2 2 3 1 1 3 3 2 2 2 3 5 9 9 11 14 18 20 20 23 22 19 26 27 25
17 14 12 11 15 12 9 19 15 4 1 3 3 4 2 2 1 2 1 3 2 1 2 2 2 2 1 2 1 2 1 0 0 1 5 2 2 2 3 3 4 7 13 12 15 18 20 21 22 28 28 26 24 24
19 17 15 14 17 16 21 10 6 4 4 3 3 3 2 1 0 1 2 2 1 2 2 2 2 2 2 3 0 2 1 3 3 4 3 3 3 1 3 3 6 6 11 12 17 16 20 23 22 25 30 28 28 29
21 17 17 17 17 15 16 8 6 3 4 3 3 3 0 1 1 1 1 2 1 2 2 2 2 3 1 3 3 5 5 5 4 3 3 1 2 3 6 8 13 17 19 19 19 20 21 22 22 24 31 30 29 26
27 6 21 21 18 15 14 5 2 4 3 3 1 1 2 1 4 2 2 1 5 2 2 2 2 7 2 2 2 4 5 4 4 3 2 4 5 7 12 15 18 20 19 19 21 23 23 26 23 22 16 26 27 28
10 18 24 24 22 15 7 5 4 3 3 2 2 2 2 1 2 1 1 1 2 2 3 3 3 2 4 5 4 3 4 2 2 3 3 5 12 18 18 15 20 20 20 22 23 23 23 20 16 16 21 25 24 22
21 29 28 26 18 5 3 2 3 3 2 1 1 2 2 1 1 1 1 2 3 4 4 2 3 3 4 3 4 3 3 3 3 4 3 11 15 18 19 20 22 22 21 21 20 18 20 21 21 23 25 23 18 21
27 31 25 17 11 3 3 1 2 3 2 2 2 1 2 2 1 1 2 1 2 2 3 3 4 3 4 3 4 4 3 6 2 4 7 4 13 16 18 19 17 20 21 21 20 19 19 19 18 21 20 20 21 20
28 20 17 12 4 6 4 1 3 1 2 2 1 2 1 1 1 1 2 2 1 2 2 3 4 5 13 12 11 14 13 12 6 5 5 7 12 12 19 22 21 19 16 14 13 15 16 17 19 19 20 21 22 22
11 14 7 5 5 4 4 4 3 1 2 1 2 2 2 1 1 2 2 4 4 4 4 4 4 3 4 5 13 15 17 17 19 18 19 21 5 7 11 18 10 13 15 18 19 18 17 20 19 19 19 19 22 21
14 7 5 3 4 4 2 2 3 2 3 2 2 3 2 1 3 2 2 3 3 7 10 7 13 20 15 20 19 24 25 19 13 14 17 18 20 22 21 21 17 15 15 19 16 17 18 20 20 20 19 20 19 18
8 4 3 3 4 1 1 2 2 3 2 3 2 2 3 3 0 0 3 3 4 2 3 10 13 4 7 9 3 11 17 14 17 19 22 19 14 19 17 16 13 14 17 20 20 20 22 22 19 19 19 18 17 16
5 2 5 2 1 4 3 3 1 1 3 0 2 3 3 2 2 2 4 3 3 3 4 9 5 6 4 3 8 11 8 8 11 8 20 17 20 18 18 18 17 15 9 13 16 18 17 17 20 20 20 18 17 17
4 1 3 4 2 4 4 4 4 5 3 3 5 2 2 3 1 6 3 3 3 3 3 4 3 1 2 12 5 9 21 22 18 14 26 26 24 18 10 5 6 12 10 9 12 15 18 19 21 22 21 20 20 20
3 3 2 3 3 3 2 2 2 3 3 5 3 2 3 2 6 4 3 5 3 6 8 9 11 12 8 15 21 25 23 21 20 20 17 7 5 9 12 11 10 11 11 12 14 17 18 20 21 19 19 20 21 21
3 4 6 5 2 1 4 2 4 6 4 3 4 4 7 8 5 3 4 4 12 15 15 16 18 18 18 21 20 20 19 15 13 9 8 12 8 8 9 6 8 11 11 15 15 14 15 17 18 19 19 20 22 21
1 2 3 4 1 1 5 6 5 4 3 4 5 4 5 4 4 3 7 12 14 12 11 13 17 18 20 19 18 17 16 15 7 5 5 5 6 2 8 11 10 11 13 14 13 13 15 14 14 12 14 16 17 17
4 3 3 3 5 6 4 6 4 3 4 4 2 3 3 3 4 12 14 15 13 10 10 9 8 9 8 9 9 5 6 4 3 2 1 1 3 9 10 10 11 12 13 13 15 17 14 12 11 11 14 16 16 16
1 3 2 1 4 4 4 2 3 2 1 3 3 5 9 2 6 19 25 19 15 15 17 17 16 12 13 14 11 9 4 8 7 7 6 5 5 7 9 10 11 12 12 11 11 11 11 12 13 14 13 11 12 12
2 5 4 3 4 3 3 1 1 2 3 1 5 0 4 3 3 5 21 23 20 19 19 18 15 15 15 11 4 7 8 8 9 9 8 8 9 10 12 13 12 11 11 10 10 10 10 10 10 11 11 12 12 13
2 2 1 2 4 5 3 3 4 5 3 3 3 1 2 3 3 4 12 21 18 20 22 22 14 9 10 11 11 11 10 9 8 8 9 9 10 11 13 13 13 12 10 9 9 8 8 8 10 11 12 12 12 12

GFSWCAN_925_spd_015.txt.gz
Wind_Speed
9 4 20 21 20 19 18 16 14 12 10 7 5 3 4 6 6 5 9 9 3 3 2 3 4 4 3 2 4 4 3 2 2 3 3 3 2 3 2 2 3 3 3 4 3 4 7 2 2 2 2 7 9 10
6 7 7 22 22 20 20 18 16 14 11 9 6 4 3 5 5 5 5 8 9 8 3 3 3 4 2 7 5 0 3 4 4 4 1 3 3 2 4 3 2 4 6 3 8 6 2 3 8 6 4 3 4 2
8 7 3 12 28 25 23 20 18 16 13 11 9 6 4 3 5 4 8 6 5 3 3 2 1 2 5 4 4 4 2 3 3 2 4 2 3 4 4 6 2 3 4 4 1 7 9 10 9 2 3 2 2 3
9 13 2 2 16 28 26 23 21 18 15 13 10 8 6 4 3 5 5 7 8 7 3 3 3 1 3 5 7 4 8 8 7 2 3 3 2 4 4 3 5 5 3 4 6 15 13 7 1 2 5 4 4 6
10 13 8 3 3 21 28 28 24 22 18 15 13 11 8 6 4 4 5 4 4 3 4 3 7 1 3 4 7 8 15 5 2 2 2 3 2 2 1 1 3 4 7 4 7 9 7 4 4 5 2 2 4 6
8 9 12 12 2 8 27 29 28 25 24 19 16 13 11 9 7 3 3 8 8 6 4 1 2 4 6 4 5 6 10 3 3 4 3 3 3 3 2 3 4 10 10 10 8 4 3 4 5 1 2 4 8 9
6 6 9 8 11 2 14 30 30 27 25 21 18 15 14 11 10 3 3 2 12 8 3 2 3 3 3 4 3 3 2 1 2 2 3 2 3 4 2 3 1 4 5 5 3 5 6 3 3 2 5 7 10 11
5 5 5 7 11 10 3 18 28 29 27 23 20 17 15 17 15 7 4 10 17 6 4 2 3 2 1 1 1 2 1 1 2 0 1 2 1 1 3 0 6 6 4 9 11 12 11 6 5 6 7 8 9 9
4 3 4 4 6 9 8 2 19 29 30 27 20 17 12 6 6 6 14 19 11 3 4 3 5 3 2 2 2 2 1 2 1 1 1 1 1 4 2 3 4 6 3 9 9 7 3 2 6 8 9 11 10 11
5 4 4 3 3 3 8 5 5 17 27 28 19 4 2 4 14 17 4 2 3 2 2 2 1 2 1 1 1 1 2 1 1 1 2 1 2 3 2 2 3 6 9 5 3 4 4 7 9 9 10 13 13 15
6 4 2 2 2 2 6 4 10 23 28 4 3 2 8 8 3 4 2 2 1 1 1 1 2 3 3 2 2 1 1 1 1 0 2 2 2 4 4 3 2 5 5 4 2 3 6 7 9 10 11 14 15 18
7 5 2 4 2 4 11 9 12 5 5 9 16 10 5 1 3 3 2 2 1 2 1 2 1 2 1 1 2 1 2 0 3 0 1 2 1 3 4 3 2 3 3 4 5 7 10 11 12 13 14 16 19 23
9 7 6 8 6 6 15 18 10 22 21 8 5 4 2 2 3 3 4 2 2 3 3 2 2 2 2 2 3 2 3 3 1 1 3 2 3 4 3 2 1 1 6 8 10 14 15 17 21 20 18 23 25 23
14 11 8 10 8 4 14 14 21 6 3 3 3 4 2 2 1 2 2 3 1 2 4 2 2 2 1 2 1 3 1 1 2 2 4 2 4 4 3 2 1 5 11 11 12 15 16 18 20 24 24 24 23 23
17 15 12 12 9 12 17 12 7 5 3 3 3 3 2 1 2 2 2 3 1 3 3 3 3 2 2 2 1 2 2 3 4 4 2 3 3 2 3 3 5 5 10 11 13 13 19 21 19 22 25 24 24 25
21 16 14 16 12 14 9 7 5 3 4 3 3 3 1 3 1 1 1 2 2 2 2 2 3 2 1 3 3 4 4 5 3 2 2 2 3 3 4 7 12 14 15 14 15 18 19 20 19 20 27 26 25 25
21 4 19 21 17 15 8 3 3 5 3 3 2 2 3 2 3 2 2 2 7 2 2 2 3 3 3 1 3 4 5 3 3 3 2 3 4 5 10 13 16 17 16 16 18 20 20 22 23 21 17 24 25 24
5 17 26 22 19 13 6 6 4 3 4 1 2 1 2 1 2 1 1 1 2 2 2 2 4 2 4 4 3 3 4 2 3 2 2 4 10 15 16 14 16 17 17 18 20 20 19 18 16 16 19 21 22 22
19 28 28 25 16 5 3 3 3 3 1 1 2 1 2 1 3 2 2 1 2 4 4 2 2 3 3 3 4 2 2 3 3 3 3 13 18 19 19 18 20 19 18 18 16 13 14 16 16 18 20 19 18 20
30 30 29 24 14 4 4 2 2 3 2 1 2 2 2 2 1 1 1 1 2 1 1 3 4 3 4 3 4 3 3 5 3 4 6 5 14 16 16 17 15 17 18 19 19 16 18 17 14 16 18 18 18 19
28 22 20 17 6 7 4 1 3 1 2 2 1 1 2 1 1 1 2 1 1 2 3 3 4 4 10 8 8 11 11 9 5 4 5 7 10 15 17 20 22 18 13 13 11 13 14 15 18 19 18 18 19 21
12 13 9 7 4 4 4 5 3 1 2 1 2 1 2 2 2 1 1 2 3 3 4 3 3 3 4 3 12 13 14 13 14 15 18 19 6 8 10 15 12 11 13 16 15 14 16 18 16 18 19 20 20 20
14 8 5 5 4 5 1 3 4 3 3 1 2 2 2 1 2 1 2 4 3 6 9 6 8 12 10 16 16 16 15 14 11 12 15 15 17 20 19 21 21 16 11 15 15 16 17 17 17 20 20 19 20 19
9 5 4 3 4 1 2 2 1 2 2 3 2 1 2 2 1 2 3 3 3 2 3 7 6 3 6 6 3 9 9 7 10 13 15 14 11 17 21 22 20 17 15 15 15 16 16 18 21 18 20 21 21 20
6 4 5 3 1 4 3 3 2 2 1 1 2 3 2 0 1 2 3 3 2 2 2 4 3 5 3 3 7 12 9 11 12 9 19 17 19 22 19 21 20 15 9 12 15 16 16 14 15 19 20 19 19 20
5 0 4 4 0 4 4 4 5 4 2 2 4 1 2 2 1 5 3 3 3 3 3 4 3 2 3 12 5 10 16 12 12 10 21 16 13 14 11 7 5 7 7 7 9 11 14 17 15 18 19 19 20 21
4 3 2 2 3 4 3 2 2 3 4 5 3 2 3 2 5 4 3 4 3 3 5 9 11 13 11 18 15 14 17 16 16 18 21 18 13 12 11 9 7 6 7 8 8 12 14 14 15 15 16 17 17 18
3 3 6 4 1 1 4 2 4 5 4 3 4 3 6 8 5 2 1 10 15 18 18 16 14 13 15 18 20 21 23 20 15 16 16 12 6 6 3 4 6 7 7 7 11 13 12 14 16 16 13 12 14 16
1 1 4 4 1 2 4 5 5 3 4 4 5 3 4 3 3 9 10 19 17 13 13 16 16 20 16 14 12 12 12 11 9 8 8 3 2 2 10 10 9 9 10 10 10 11 13 14 11 11 10 11 12 12
2 2 3 2 5 5 4 5 3 2 4 3 2 2 1 4 8 16 19 22 21 16 16 15 17 16 13 14 15 13 11 11 11 7 3 2 4 7 9 10 11 11 12 11 11 12 11 10 11 11 11 11 13 12
1 2 2 1 4 3 3 3 2 1 1 2 1 4 3 4 5 19 26 21 20 20 20 20 20 19 16 16 13 10 6 14 13 11 9 8 7 9 10 11 12 12 12 11 11 11 10 9 9 9 9 10 11 12
1 2 3 2 4 3 4 2 1 1 3 3 3 2 3 3 3 5 19 23 19 20 21 19 17 19 18 13 12 12 11 11 14 13 12 12 11 12 13 13 12 11 10 9 8 7 7 7 8 9 9 10 11 11
1 0 0 2 4 5 3 3 4 5 3 2 2 1 2 3 3 2 12 21 17 17 22 23 16 12 11 14 17 16 15 15 14 13 12 12 12 13 13 13 13 11 9 8 7 6 6 7 8 8 9 9 9 9

GFSWCAN_925_spd_021.txt.gz
Wind_Speed
27 26 23 21 18 17 15 14 12 10 8 6 3 3 4 5 5 6 4 5 3 3 5 1 2 5 4 6 5 8 5 2 2 2 4 3 1 4 2 3 5 7 6 4 4 4 6 3 5 1 8 11 8 7
24 24 22 21 18 15 14 14 12 10 9 7 4 3 3 4 3 5 3 7 9 4 4 4 5 5 5 7 2 8 1 5 5 3 3 2 3 0 0 3 6 5 7 4 8 5 9 7 10 7 5 7 7 4
17 13 22 21 19 16 14 14 12 10 9 7 5 4 3 3 3 4 4 2 4 3 3 4 3 4 4 5 2 3 1 2 4 4 4 3 3 5 4 5 7 8 12 6 8 8 12 8 8 9 7 5 1 5
17 11 11 18 20 18 16 15 13 11 10 8 6 4 3 3 4 5 3 2 3 5 4 3 1 3 3 2 1 3 6 6 6 3 2 3 3 7 4 7 8 7 4 9 13 16 12 4 7 5 4 3 6 3
18 14 9 8 13 18 18 16 14 13 12 10 8 6 4 3 5 6 5 5 4 3 3 2 2 1 2 0 3 3 7 5 3 2 2 3 3 1 1 2 9 10 14 9 8 6 3 1 5 2 5 4 4 6
15 14 15 11 5 8 19 19 17 15 14 11 9 7 6 5 5 2 2 1 2 3 3 2 2 1 0 3 5 7 8 1 2 3 3 3 3 4 3 3 5 9 8 8 7 5 2 8 5 6 3 3 6 10
13 12 12 12 12 7 5 15 20 19 17 13 11 9 8 6 2 2 1 2 5 3 2 2 2 2 1 4 2 4 2 1 3 2 3 3 4 3 2 5 7 8 6 4 2 4 4 3 2 3 2 6 9 13
10 10 11 12 11 10 6 4 17 22 21 17 13 11 9 7 4 2 2 7 7 4 2 2 2 1 4 2 2 0 2 1 3 1 1 2 1 1 5 7 7 6 5 5 4 2 2 5 4 2 6 10 11 12
9 8 9 8 9 9 8 5 7 21 23 20 17 14 11 7 5 3 7 7 2 1 2 2 5 4 5 2 2 2 1 2 2 1 2 3 3 5 7 10 7 9 8 7 7 5 4 0 3 6 9 11 12 12
7 8 9 9 8 8 11 7 4 13 25 24 16 6 2 5 11 14 3 1 1 1 2 3 3 4 4 3 2 3 1 1 3 3 3 3 3 4 4 4 5 8 8 9 6 4 1 4 6 8 10 11 13 15
5 7 9 10 9 9 11 12 4 11 15 9 3 2 5 14 4 3 2 3 2 2 3 1 3 4 2 3 3 1 2 3 3 3 3 3 3 8 10 9 10 12 10 5 3 2 3 5 7 8 9 13 13 15
3 5 8 10 9 11 12 12 15 9 8 9 14 7 3 1 2 4 3 2 4 4 3 3 1 2 2 1 2 1 3 3 3 4 2 3 3 10 12 12 10 9 7 5 1 3 6 8 10 10 11 14 15 16
4 3 5 5 8 6 12 16 22 24 17 10 7 3 1 1 2 4 7 3 3 3 3 3 2 2 2 2 2 3 4 2 1 2 3 2 6 9 11 10 9 9 5 1 5 7 9 10 10 10 13 15 17 16
2 3 2 2 4 4 9 16 12 8 6 2 2 3 2 2 1 2 3 3 3 3 5 4 2 2 1 2 1 3 2 2 3 3 4 1 6 9 9 7 7 6 5 3 8 10 10 10 12 14 18 18 18 17
2 3 2 0 1 5 14 8 5 5 3 2 1 2 3 1 2 2 3 2 3 2 2 3 3 2 2 2 1 3 4 3 4 2 3 2 7 7 7 5 5 2 3 6 10 11 12 16 15 15 14 14 13 20
2 1 3 3 4 11 9 8 4 3 3 3 2 2 2 2 2 2 3 3 2 1 2 2 2 1 2 1 3 3 2 3 2 2 2 6 6 5 4 2 4 9 10 13 13 14 14 14 16 16 16 19 19 16
2 1 6 9 10 8 8 5 3 2 2 1 2 2 2 2 3 2 1 2 2 1 2 2 0 3 1 1 2 2 2 2 1 2 3 5 6 5 4 6 8 10 12 14 14 14 15 15 15 14 14 15 13 15
3 5 9 13 13 5 3 3 1 2 3 2 3 3 2 2 2 2 1 2 1 2 1 1 3 2 2 2 2 1 2 1 1 3 4 4 3 5 9 12 14 15 16 16 15 15 15 15 13 14 15 15 15 16
4 7 12 16 10 5 3 3 3 2 2 2 4 3 2 3 3 3 2 2 3 1 3 2 2 3 2 2 1 1 1 2 2 4 4 6 9 11 11 13 14 15 16 16 16 16 17 18 17 16 14 15 16 17
4 6 18 17 11 4 2 1 2 1 2 3 3 4 3 3 2 1 1 0 2 1 1 2 3 1 1 1 0 1 0 1 3 6 7 8 10 9 12 13 14 14 16 16 16 17 17 17 15 15 14 13 14 17
10 10 14 10 5 2 3 2 2 2 3 2 3 3 3 2 2 1 2 1 0 2 3 4 3 3 2 2 2 3 7 7 6 7 7 7 11 12 13 13 12 12 13 14 13 17 17 16 17 15 10 13 16 18
6 16 4 5 4 2 3 2 2 2 1 3 4 2 3 2 2 2 1 2 3 5 4 4 4 4 4 5 7 8 8 9 10 12 12 13 8 8 8 10 12 13 15 15 17 17 17 18 16 11 13 15 16 17
15 5 4 3 3 2 3 1 2 1 3 4 3 3 2 2 2 1 2 3 3 4 8 7 5 5 7 6 5 7 8 10 11 12 11 9 10 10 12 14 15 15 15 18 18 19 17 14 11 13 14 15 15 15
7 4 2 2 2 3 2 2 1 3 2 2 3 3 3 2 2 2 3 3 3 1 2 4 4 4 4 3 4 4 7 9 11 11 10 11 13 15 15 15 16 16 16 18 17 18 17 15 14 12 14 15 14 14
3 3 1 4 1 3 4 4 2 2 3 2 3 2 3 3 2 3 3 1 3 5 5 6 2 1 2 3 5 8 10 9 11 13 17 18 20 18 18 18 18 18 17 15 14 14 12 11 11 11 14 13 13 13
4 2 0 2 3 2 4 4 4 4 3 4 3 3 3 3 3 4 2 4 4 5 7 7 7 5 6 12 10 14 16 16 17 18 20 20 20 18 13 13 14 16 13 12 10 10 11 9 11 14 13 12 11 11
4 3 2 1 3 5 4 2 3 2 4 4 4 6 4 3 5 2 5 8 4 8 9 9 9 9 10 14 15 15 16 15 15 18 24 27 25 23 20 15 13 7 7 10 11 11 10 11 13 11 11 12 12 9
3 2 4 3 3 2 3 3 4 4 3 3 5 5 3 3 2 3 4 6 7 8 7 7 8 10 11 12 14 14 15 17 19 18 17 14 8 16 16 15 14 14 11 10 10 10 10 9 10 11 11 11 9 7
3 3 3 3 2 2 2 2 3 2 2 4 3 2 2 3 3 4 4 7 8 8 9 11 12 12 11 12 11 10 12 16 18 14 14 9 14 16 21 18 17 16 15 14 12 11 10 10 8 8 8 8 7 7
2 1 2 2 2 1 1 0 1 1 1 2 1 3 3 4 5 5 5 7 9 10 9 9 10 12 12 13 13 12 10 13 14 13 9 10 16 20 19 19 19 18 17 15 15 14 11 10 8 6 6 5 6 5
1 1 2 1 0 2 1 2 2 1 1 1 2 1 3 4 5 7 9 7 7 8 9 10 9 10 11 12 13 13 12 11 16 15 15 15 16 17 18 19 18 18 17 16 14 12 11 9 6 4 4 4 6 6
1 1 1 1 1 2 2 2 1 2 2 2 3 2 3 3 2 3 5 6 6 7 9 9 11 12 11 10 10 9 11 14 15 16 17 18 18 19 19 18 17 17 16 16 13 10 8 7 5 5 3 4 6 6
1 1 1 2 2 2 1 2 2 1 2 1 2 2 2 3 2 3 2 5 5 6 8 10 11 13 9 9 12 10 13 15 16 17 17 19 19 19 19 16 17 17 14 13 10 8 6 5 5 5 5 5 6 6

GFSWCAN_925_spd_024.txt.gz
Wind_Speed
29 27 25 22 20 18 17 15 13 11 8 6 4 5 6 5 6 6 4 6 4 3 4 5 2 3 1 5 4 8 4 1 2 3 3 2 1 3 1 3 6 7 6 4 4 3 6 1 3 2 5 7 6 7
28 26 25 22 19 17 16 15 13 11 8 6 4 4 5 5 4 4 3 7 9 3 4 5 7 8 7 9 3 7 1 6 4 3 2 1 2 1 3 2 6 4 6 4 9 5 7 7 4 6 7 7 5 5
29 27 24 22 19 16 15 14 12 10 9 6 4 4 5 5 4 6 5 4 4 2 4 4 3 6 6 9 6 3 1 2 5 4 4 3 3 4 4 4 2 3 7 3 3 8 9 6 10 11 6 4 3 4
20 26 24 22 19 15 14 13 11 9 8 6 4 3 4 6 7 7 4 5 3 5 4 3 2 3 4 4 4 5 6 9 6 4 3 3 3 8 5 6 4 4 6 6 9 11 4 9 7 4 3 1 3 2
21 22 20 21 19 17 15 14 12 10 9 7 5 3 3 5 7 7 6 6 4 4 3 2 1 2 2 1 4 4 8 5 2 2 2 3 3 1 3 0 3 5 7 5 7 1 3 5 6 3 2 4 2 3
23 24 19 15 14 16 16 15 13 11 9 7 6 4 2 2 3 1 2 4 4 5 3 2 3 1 1 2 5 4 6 2 3 3 3 3 3 3 3 4 6 8 6 4 2 8 9 7 4 4 2 1 1 5
22 19 17 17 14 9 12 16 14 12 10 7 5 4 3 2 4 3 1 0 3 3 3 2 2 2 4 4 2 3 6 2 0 1 3 2 2 2 3 5 6 7 9 1 7 8 4 5 3 6 4 1 3 8
17 17 17 16 13 11 7 7 16 15 12 10 7 5 3 2 2 1 4 6 5 3 2 3 2 1 2 2 2 3 2 2 0 1 1 2 0 2 4 8 11 14 4 5 4 3 6 9 5 6 2 4 6 8
16 16 14 12 11 11 6 4 8 17 16 13 9 5 3 1 1 0 4 3 2 2 2 2 5 4 4 2 2 1 0 1 0 1 2 2 3 6 7 7 9 5 7 6 7 8 8 4 2 2 3 6 7 8
14 15 14 12 10 11 11 2 4 12 19 16 10 3 1 2 5 8 1 1 1 1 1 3 3 3 4 2 1 2 2 2 2 3 3 2 3 8 10 4 1 7 7 8 7 6 5 1 1 3 6 8 8 10
13 13 14 14 13 11 13 7 8 14 12 5 3 2 2 7 3 2 2 2 2 2 2 1 4 5 3 3 3 1 3 2 3 3 3 3 3 6 10 5 3 9 10 7 6 7 4 3 3 5 5 7 7 9
12 12 12 13 15 16 13 14 15 6 6 7 12 8 4 3 2 3 3 1 3 3 2 2 1 3 2 1 2 2 3 2 5 6 2 3 3 9 10 10 10 10 10 9 6 3 3 4 6 6 5 8 9 13
10 10 10 11 11 15 16 15 19 20 11 7 7 4 2 1 2 3 4 2 1 1 1 1 2 2 2 2 2 2 5 4 1 3 2 2 6 7 8 9 8 12 15 12 5 5 6 7 7 8 9 13 15 15
5 7 7 7 9 9 12 11 8 6 6 3 2 3 2 2 1 2 2 2 1 2 3 2 2 1 1 2 2 3 1 2 2 3 4 2 6 8 8 7 7 10 9 4 4 6 6 6 9 11 14 17 17 17
4 4 4 5 5 8 5 2 6 6 2 2 0 2 2 1 2 1 2 1 3 1 2 2 2 1 1 2 1 2 3 2 2 1 2 3 7 9 8 7 7 5 4 2 5 8 10 11 12 15 17 17 16 17
3 4 3 3 5 6 5 3 5 5 3 2 2 2 1 2 1 1 1 2 1 1 1 2 2 0 2 1 2 1 1 1 2 2 2 5 7 6 5 6 5 3 6 7 10 11 13 14 15 17 16 17 23 21
4 2 4 6 9 8 5 4 4 3 2 1 2 2 2 3 2 1 0 2 1 1 2 1 1 4 1 1 1 1 2 2 2 2 3 5 4 4 4 1 3 6 8 10 13 14 15 16 16 17 15 20 18 18
2 2 5 8 8 6 3 4 2 1 1 1 1 3 2 3 2 2 2 1 1 1 1 2 2 1 0 1 1 2 2 2 1 2 3 3 3 4 5 8 11 10 11 13 14 16 16 17 15 16 19 21 16 12
3 3 4 11 3 3 3 3 3 1 1 2 2 2 2 2 3 5 3 4 4 3 2 1 1 2 1 2 1 1 2 2 0 2 1 6 7 9 6 7 10 12 14 13 14 13 14 17 19 20 20 17 14 13
6 2 2 9 6 3 2 1 2 0 2 2 3 3 2 2 1 1 1 2 0 1 1 2 2 1 1 2 2 2 2 1 1 2 3 4 8 4 6 9 10 12 13 14 14 15 16 17 18 20 20 17 12 8
6 5 8 8 3 5 1 2 1 1 2 1 4 4 2 2 2 1 1 1 2 2 2 2 1 1 1 3 2 3 3 3 3 2 3 4 7 9 10 12 13 12 11 11 13 16 17 16 19 20 21 13 9 12
4 10 6 2 2 1 1 1 1 3 2 2 3 3 3 2 3 2 2 3 3 3 2 2 2 1 2 3 4 4 3 4 6 7 9 10 5 7 9 10 9 10 12 14 16 17 18 18 18 20 17 13 14 15
8 6 3 3 2 3 3 2 2 3 3 4 3 3 2 2 2 1 2 3 3 2 4 4 2 2 4 4 3 4 4 4 6 8 10 11 12 13 14 14 16 17 16 18 16 15 15 16 19 17 17 13 14 13
7 1 1 1 1 3 3 2 2 3 3 3 4 3 3 2 2 2 2 2 0 4 2 1 1 2 5 3 2 4 11 11 10 10 13 15 13 16 19 20 21 22 23 21 18 19 18 19 19 15 12 12 13 14
3 2 2 3 2 4 4 5 3 3 3 3 4 3 3 3 3 3 2 3 6 5 5 11 8 5 3 5 11 12 19 19 15 14 16 18 19 20 20 20 22 22 23 25 24 19 15 12 13 13 10 13 15 15
2 1 2 2 3 2 4 5 5 4 4 3 2 3 3 3 3 4 2 4 5 4 6 7 7 5 5 12 10 12 15 18 17 16 17 20 21 20 18 15 15 14 22 24 25 19 14 13 13 10 12 16 11 10
3 3 1 2 2 4 4 3 3 2 3 3 4 4 3 3 5 3 4 8 4 5 5 7 7 8 8 10 11 11 13 12 14 17 20 18 11 18 19 17 16 19 22 20 20 20 19 17 14 13 11 10 12 10
2 1 4 3 2 2 3 3 4 4 3 3 6 4 3 2 3 2 4 4 4 4 4 6 8 8 8 9 9 9 10 15 16 13 15 2 14 17 23 21 22 23 22 21 21 21 21 16 15 15 12 10 8 8
2 2 3 3 2 2 1 1 2 1 2 3 3 2 3 3 4 4 5 5 4 5 6 7 9 9 9 8 9 7 8 12 16 12 12 8 14 18 25 24 24 25 25 25 22 21 21 20 15 14 11 7 7 5
2 3 1 2 1 2 2 4 2 2 4 3 2 4 3 3 5 5 5 5 5 6 6 6 6 8 8 9 9 11 8 10 12 12 10 9 17 23 24 24 27 26 26 25 24 24 20 20 17 9 6 7 8 8
1 1 2 2 2 3 3 2 1 1 1 2 4 3 4 4 5 5 5 4 4 5 6 6 7 8 9 9 10 11 10 9 14 13 13 16 18 21 23 24 25 24 24 23 23 22 19 16 14 10 6 8 9 9
2 3 1 1 3 2 0 1 1 1 3 2 3 3 4 4 3 3 3 5 4 5 6 7 7 9 10 9 9 10 11 13 15 17 18 17 18 22 23 25 23 23 24 24 19 19 15 12 10 8 10 10 9 9
2 2 2 1 0 1 1 2 1 1 2 2 3 3 3 4 3 4 3 4 4 4 5 7 8 9 10 6 10 11 11 15 16 16 17 19 20 23 25 23 21 20 21 23 18 14 10 9 8 9 8 8 7 7

GFSWCAN_925_spd_027.txt.gz
Wind_Speed
35 32 28 26 23 20 18 16 14 11 8 7 7 8 8 8 7 7 7 9 4 3 3 7 7 5 3 5 5 4 4 4 3 3 3 3 2 4 2 7 6 7 6 3 2 3 7 4 3 6 5 3 7 4
33 30 27 24 21 19 17 15 13 11 8 7 7 7 8 7 7 6 5 9 9 6 3 7 12 13 10 4 5 3 6 4 4 4 1 2 0 1 1 3 4 2 7 6 8 6 6 4 4 4 5 6 4 4
31 29 26 23 19 18 16 15 13 11 8 7 7 8 9 8 9 10 8 8 6 3 3 4 4 7 6 12 6 4 2 5 4 3 3 3 3 3 4 5 1 3 6 3 4 6 6 7 7 6 6 5 4 4
30 28 26 23 19 17 16 15 13 11 9 7 7 7 9 10 10 8 8 7 7 6 4 3 2 4 6 7 8 7 7 9 8 4 3 3 3 4 4 4 4 5 3 1 2 1 7 6 6 7 7 6 5 5
31 27 26 22 20 17 15 14 12 10 9 7 6 6 8 9 10 13 13 11 8 4 4 2 3 4 4 4 6 9 13 5 3 3 2 3 2 2 1 2 2 3 5 3 5 6 4 5 6 6 6 6 5 6
28 24 26 24 21 19 16 14 12 10 9 7 5 5 5 5 7 4 3 6 7 5 4 1 1 5 5 1 2 6 4 3 3 4 3 3 3 4 3 3 5 5 5 4 4 6 9 9 7 7 5 7 10 5
28 26 24 22 19 17 16 14 13 11 10 8 6 5 5 5 6 7 3 2 4 5 3 2 1 5 5 4 5 4 8 2 2 2 1 2 3 3 3 5 6 7 4 9 12 10 5 5 4 6 8 9 10 11
24 22 22 21 18 14 15 14 14 12 11 9 7 6 7 9 7 5 7 5 6 7 5 3 2 3 4 2 2 5 2 3 3 2 2 2 3 2 3 7 8 8 5 8 9 4 5 7 6 7 10 12 7 6
20 19 17 19 18 10 8 11 15 14 12 10 8 6 5 4 3 1 4 4 5 4 4 2 4 3 2 2 2 3 2 1 1 1 1 2 2 5 6 5 5 7 7 10 7 9 8 5 7 7 7 7 6 4
21 18 17 17 13 8 4 8 12 17 13 11 6 4 1 0 2 4 2 3 4 3 2 2 2 2 3 1 1 2 1 2 1 3 2 2 3 5 8 5 4 6 9 11 9 6 6 7 7 6 6 7 5 1
20 19 19 18 17 14 11 12 13 16 17 5 3 1 2 7 2 4 2 1 1 1 1 0 2 4 1 3 2 1 2 1 2 3 3 3 3 4 2 5 7 10 16 14 14 14 12 8 6 5 4 3 2 5
18 18 18 20 20 19 18 21 11 6 5 8 12 8 4 4 2 3 3 1 2 2 2 1 1 2 1 1 3 1 3 2 5 4 2 3 3 5 10 10 9 15 18 13 15 13 14 13 9 5 2 5 7 8
15 15 17 18 21 23 22 22 19 19 12 7 6 4 2 3 2 4 6 1 1 1 1 0 1 1 2 2 2 2 5 4 1 2 3 3 2 4 8 11 11 17 22 18 14 11 8 5 4 5 8 10 10 12
12 13 12 12 13 14 15 14 11 8 5 3 3 3 1 2 2 2 1 1 0 2 2 2 2 1 0 1 2 3 1 1 2 2 3 2 5 6 4 8 9 6 11 9 5 3 3 6 9 9 10 12 12 14
9 9 10 11 7 6 7 9 9 8 4 3 2 2 2 1 1 1 1 2 2 1 2 2 2 1 1 1 1 3 1 1 1 1 2 2 3 7 8 8 7 6 6 4 2 4 7 8 9 11 13 14 15 17
7 7 10 6 8 6 4 5 8 4 3 3 3 3 2 1 1 1 2 2 1 1 1 2 1 1 2 1 1 0 2 1 2 1 2 2 3 5 6 5 7 5 2 3 6 7 9 10 12 14 16 17 21 22
9 5 4 4 6 6 4 4 4 4 3 2 2 2 2 3 3 2 2 1 0 1 1 0 2 1 1 1 1 2 2 2 3 1 1 3 4 4 5 5 5 6 6 7 8 10 11 14 15 17 17 23 22 22
8 6 3 3 4 5 4 5 3 3 3 2 2 1 2 2 2 1 2 2 2 1 1 2 2 1 2 2 2 1 2 1 1 3 3 3 5 4 2 2 6 7 9 12 13 13 14 16 16 18 22 23 22 21
9 7 2 3 5 3 4 5 3 2 2 2 2 2 2 2 3 3 1 2 0 1 2 2 2 0 1 1 2 1 1 1 1 1 2 4 4 6 9 6 6 8 10 11 12 14 16 17 18 22 24 25 22 26
2 5 5 1 2 3 2 1 1 2 2 2 2 2 2 2 1 1 1 1 1 1 2 1 2 2 2 1 1 2 2 2 3 2 3 3 4 6 3 7 10 11 13 14 14 14 15 18 23 23 21 21 21 17
1 1 2 4 2 3 1 1 2 1 1 2 2 2 2 1 1 1 0 1 1 1 1 3 2 2 9 8 4 4 4 3 0 3 2 1 7 12 15 16 16 16 16 16 15 19 19 19 25 22 18 20 22 20
3 3 1 1 2 2 0 0 1 0 2 2 2 2 2 2 2 2 1 2 2 3 2 2 1 2 2 1 2 2 2 3 3 3 5 7 2 6 9 13 15 15 20 22 23 20 21 25 22 17 19 18 17 17
5 3 2 2 2 2 2 2 2 3 3 2 1 2 2 2 2 2 2 2 3 0 6 6 5 6 5 5 4 12 11 6 9 15 18 19 18 19 21 21 22 20 16 19 22 23 22 25 25 23 18 16 15 13
4 2 2 2 2 2 1 2 2 2 2 3 3 2 2 2 2 0 2 2 2 6 9 13 12 1 3 14 11 14 17 16 15 16 20 16 13 14 18 19 21 20 18 19 19 21 22 25 28 20 12 12 13 13
2 2 2 3 2 3 3 2 2 3 3 3 2 1 1 2 2 2 3 2 2 6 6 13 13 13 5 3 11 13 18 18 13 9 14 18 18 17 15 14 16 14 27 23 22 23 23 24 23 20 19 12 12 17
3 2 2 4 3 3 4 4 5 4 3 2 2 3 1 2 1 3 2 1 2 3 4 4 6 4 6 13 8 12 15 16 15 10 10 16 13 14 12 12 13 16 27 24 23 23 24 23 24 21 19 18 15 13
3 3 2 1 1 2 2 1 2 3 2 3 3 3 2 3 4 2 2 5 3 7 7 8 11 11 8 10 10 8 10 14 12 11 11 5 14 16 18 16 16 19 25 24 26 25 25 24 24 23 20 18 16 7
0 1 3 2 1 0 2 2 2 3 3 2 4 4 5 3 2 2 3 6 6 5 10 10 8 9 10 8 7 7 11 14 14 14 10 7 13 14 23 23 21 26 26 23 25 26 26 27 27 23 22 19 13 2
1 1 2 2 1 1 1 1 2 1 3 2 3 2 3 3 5 4 6 6 5 9 10 9 9 7 9 10 13 10 11 15 20 8 6 4 14 18 27 25 26 29 29 27 28 26 26 26 26 26 29 3 8 7
1 2 1 1 1 1 2 3 2 3 5 3 4 3 3 3 7 9 9 8 9 8 8 8 9 10 12 12 11 10 8 11 15 12 3 5 14 21 24 28 27 29 27 25 30 31 24 26 24 22 8 9 9 9
2 2 1 2 2 2 2 3 1 1 2 2 5 3 3 3 4 5 7 7 7 7 9 10 11 11 10 11 11 11 10 6 11 9 13 15 16 19 23 26 30 25 24 26 30 27 25 22 19 12 10 11 11 10
2 3 1 1 2 2 1 0 1 1 2 2 2 3 3 3 2 3 4 8 9 10 7 6 8 9 10 8 5 7 6 10 15 14 14 16 17 19 25 24 22 22 23 25 26 22 22 14 13 12 10 10 10 10
1 1 1 1 0 0 1 2 2 0 2 2 3 2 2 3 3 3 4 3 2 2 2 3 5 5 9 7 7 6 11 13 10 13 13 15 18 21 22 21 21 21 19 22 19 17 16 13 11 11 10 10 9 9

GFSWCAN_925_spd_030.txt.gz
Wind_Speed
33 33 31 28 23 21 18 17 14 12 10 10 10 10 9 8 7 7 10 7 3 3 3 5 4 4 3 3 5 4 4 4 3 4 3 4 3 5 2 5 6 7 6 4 3 2 7 7 3 7 5 3 7 6
35 34 32 28 24 21 19 17 15 12 10 10 10 10 10 8 7 8 6 10 11 5 3 7 13 13 6 3 6 1 6 4 5 4 2 3 2 1 2 3 2 2 7 5 9 7 5 6 5 3 6 6 6 6
36 34 31 27 23 20 19 17 15 12 10 10 10 11 10 10 8 9 10 6 7 4 4 4 3 8 10 10 3 5 2 5 4 3 4 3 2 4 4 5 3 4 5 3 3 5 7 5 3 3 4 5 5 5
35 32 29 26 22 20 18 17 15 12 11 10 10 11 12 12 10 9 9 7 7 6 4 3 3 5 9 10 9 4 10 9 8 3 3 3 3 4 3 3 4 5 4 4 4 2 5 1 2 6 6 6 5 5
34 31 28 25 22 21 19 17 15 12 11 10 10 10 12 13 14 16 17 14 7 4 4 2 1 6 8 9 12 14 17 5 3 3 2 3 2 3 1 2 3 4 7 4 5 7 5 5 8 7 6 6 6 7
31 29 27 25 23 20 18 17 15 13 11 10 9 8 9 11 11 4 4 8 9 4 4 2 4 6 11 10 14 13 7 4 3 3 3 2 3 3 3 3 7 5 4 5 5 4 3 7 9 8 8 9 8 10
30 28 26 24 22 20 18 16 14 13 12 11 10 9 8 7 5 7 4 3 5 4 3 2 3 4 6 5 4 3 6 2 2 2 1 3 1 2 3 5 6 8 7 3 8 10 5 3 5 7 12 13 19 16
31 27 26 24 21 20 17 15 14 13 13 12 13 12 12 12 11 8 9 9 7 10 5 3 2 3 6 2 2 4 2 3 4 1 1 2 2 2 4 7 6 7 2 7 9 1 6 9 12 10 14 15 8 6
26 27 23 19 18 18 17 16 16 14 14 13 12 10 5 4 4 2 6 7 10 6 4 2 4 3 2 2 1 3 2 2 2 1 1 2 2 5 5 4 4 5 6 8 6 8 10 10 11 10 10 6 7 4
24 20 15 13 13 14 15 18 17 15 14 13 7 5 3 3 2 3 3 4 4 3 3 2 1 1 3 1 2 2 2 1 1 3 1 2 3 5 9 6 4 7 6 11 12 8 11 10 8 6 6 6 6 4
24 21 21 18 14 15 15 17 20 18 13 3 3 2 2 4 2 4 3 3 0 2 2 1 2 3 2 3 2 1 2 1 2 4 3 2 3 3 6 5 6 11 15 14 17 14 11 10 5 5 4 4 2 1
25 26 24 22 22 20 18 19 22 9 6 8 13 7 4 5 3 4 2 1 1 3 1 1 1 1 1 1 3 1 2 1 4 2 1 2 2 4 7 10 12 17 21 19 19 14 10 10 8 6 2 2 4 5
20 20 23 24 23 22 19 15 13 23 18 7 6 4 2 3 2 3 6 1 2 1 1 1 1 1 2 3 2 2 4 4 1 2 2 2 6 7 8 9 11 17 18 16 11 11 9 6 3 4 5 7 8 10
17 15 14 16 17 18 16 12 9 6 4 3 2 3 1 1 2 1 1 2 0 1 2 2 2 2 1 2 1 3 0 1 3 2 3 1 4 7 4 4 8 5 8 11 8 7 6 5 5 7 8 10 12 14
14 13 12 13 11 11 11 9 7 6 5 3 3 3 1 2 2 1 1 2 2 1 2 2 2 1 1 2 0 2 1 1 0 1 2 1 4 6 6 6 5 5 6 6 5 5 6 6 7 9 11 13 14 17
6 9 14 11 11 8 6 5 6 3 4 3 3 3 1 2 2 1 1 1 1 1 1 2 1 1 0 1 2 2 3 2 1 1 1 3 4 5 5 4 2 5 6 5 5 5 7 9 10 11 14 16 17 18
13 7 8 8 9 10 10 4 4 4 3 2 2 2 2 3 3 1 1 1 1 1 1 1 2 2 1 1 2 2 2 2 2 2 4 2 2 4 5 4 3 4 4 4 5 7 8 9 11 13 13 19 20 21
13 8 6 10 11 7 4 7 4 3 4 2 2 1 2 2 2 2 1 1 2 2 1 2 2 2 1 1 1 2 2 2 1 2 3 3 5 5 3 2 4 4 5 8 9 9 11 12 11 16 18 21 21 22
12 9 7 8 12 5 5 5 4 3 2 2 2 2 2 2 2 2 2 4 1 1 3 2 3 2 2 2 2 1 0 1 2 1 1 2 1 2 5 5 6 9 11 12 13 14 15 15 16 18 21 20 19 21
7 8 11 7 7 4 3 3 2 3 2 2 2 2 2 2 0 1 1 2 2 2 2 1 3 3 3 2 2 3 2 2 3 2 2 3 5 6 7 7 10 12 13 14 16 18 20 21 22 25 26 21 17 15
3 5 5 9 5 6 2 2 3 1 2 2 2 2 1 1 1 0 1 0 2 1 1 2 3 2 3 5 7 8 6 5 2 3 3 1 8 11 15 17 16 17 18 18 17 17 19 18 23 24 27 23 23 20
3 4 4 4 4 4 2 4 0 2 2 2 2 3 2 1 2 1 1 1 1 2 2 2 1 2 2 3 8 8 4 7 11 17 17 15 6 8 11 15 16 13 13 15 16 16 18 20 24 25 24 26 26 20
2 3 3 4 4 2 2 4 2 1 3 2 2 2 1 1 1 2 2 3 2 4 5 4 4 7 17 17 20 22 19 16 12 12 12 12 11 13 15 16 17 14 13 15 17 17 20 24 25 27 27 28 20 16
0 1 1 1 1 3 1 1 0 2 2 2 3 2 3 2 1 1 2 1 2 6 7 9 8 8 12 13 11 13 14 13 11 12 16 13 10 13 15 15 14 17 18 17 18 20 21 23 26 25 26 25 25 22
2 4 3 2 1 3 1 1 1 2 2 3 3 1 2 2 2 1 2 2 1 2 4 13 13 11 6 5 8 9 14 14 10 7 14 12 12 12 13 13 14 14 24 21 20 21 22 23 24 23 25 24 25 25
3 3 4 4 2 3 4 3 3 4 2 2 2 1 2 2 2 3 1 2 1 2 4 6 4 3 6 8 6 7 9 11 8 10 11 10 15 15 11 10 11 12 26 25 20 22 23 24 24 26 25 26 26 25
2 3 2 1 1 1 2 1 1 2 3 4 3 2 2 3 4 1 2 5 2 6 12 11 11 9 7 9 11 11 11 12 10 4 8 12 14 17 20 15 15 19 24 25 22 22 23 25 25 26 26 26 26 27
2 2 2 2 2 1 1 0 1 2 2 2 3 3 4 3 2 2 3 6 10 12 15 14 12 12 12 12 10 9 11 13 10 16 8 5 14 10 23 22 24 25 26 23 20 24 27 28 27 27 28 29 26 5
1 1 2 2 2 1 1 2 2 1 2 2 3 2 2 3 6 3 6 10 10 12 14 14 12 10 14 12 11 11 13 16 19 5 4 3 10 14 22 26 28 30 27 25 23 26 27 23 23 22 25 9 9 11
1 1 2 0 1 0 2 3 2 3 5 3 4 3 3 3 9 10 9 8 12 14 14 13 11 9 12 11 10 8 12 13 14 13 3 5 13 17 23 26 29 26 24 24 25 29 24 21 19 18 15 13 13 13
2 2 1 1 2 2 2 2 1 0 2 3 5 3 3 2 4 8 11 9 10 9 10 12 11 10 9 9 8 8 6 7 11 12 9 9 13 17 21 23 21 20 20 21 23 22 19 19 15 14 13 12 12 11
2 3 1 1 1 1 1 1 1 1 1 1 2 3 2 3 2 4 6 7 6 9 7 5 5 7 8 4 7 6 6 10 12 11 11 11 13 17 18 19 18 18 18 19 19 14 14 12 13 13 11 11 10 10
2 4 3 3 4 3 2 3 3 2 3 2 2 2 2 3 3 2 3 5 5 5 6 6 6 3 5 6 7 8 10 11 9 10 9 10 14 15 17 17 17 15 17 18 12 11 12 13 12 11 11 10 10 10

GFSWCAN_925_spd_033.txt.gz
Wind_Speed
35 35 33 29 26 24 23 21 18 16 14 12 12 12 13 14 15 9 8 5 3 3 2 3 3 4 3 3 5 5 4 3 3 4 3 3 3 5 2 4 6 7 6 4 3 1 8 7 3 8 6 1 7 7
35 32 31 25 23 20 20 19 17 15 14 12 12 12 12 14 15 11 7 14 14 6 3 6 14 15 4 4 5 2 4 4 5 4 1 3 2 2 2 3 2 3 7 5 9 6 4 5 3 2 5 6 6 7
36 34 30 22 19 19 19 18 16 14 13 13 13 12 13 12 9 10 13 8 9 4 4 4 4 8 17 5 3 5 2 5 3 2 4 3 2 4 4 6 3 4 4 3 3 4 7 7 2 3 4 5 5 6
35 34 33 22 20 20 19 17 15 14 13 13 14 14 13 13 12 14 11 9 10 5 4 4 6 5 12 7 4 3 11 9 7 3 3 3 3 4 3 3 3 5 5 4 4 6 3 6 6 6 6 7 7 6
33 34 32 23 21 20 18 16 14 13 13 13 13 13 15 16 17 20 22 16 9 5 4 1 2 9 13 11 15 16 19 6 3 3 2 3 2 3 0 2 3 5 6 4 6 7 5 5 7 8 8 7 9 9
32 32 31 23 20 19 18 16 14 13 13 12 12 12 14 15 11 5 4 10 10 6 4 2 4 5 12 13 18 13 7 4 3 3 2 2 2 3 4 4 7 5 4 5 4 3 4 3 5 6 7 9 11 10
31 30 29 26 21 19 18 16 15 14 13 13 13 10 9 5 5 9 4 3 5 5 3 3 3 4 6 5 4 3 6 3 2 2 1 2 1 3 3 4 3 6 7 6 4 6 2 3 5 7 10 13 19 17
29 28 27 26 22 19 17 16 15 15 15 15 15 17 18 17 13 9 14 9 8 10 4 4 2 3 6 2 2 4 2 3 4 1 1 1 1 1 3 5 5 5 4 2 7 3 3 7 10 11 18 17 13 7
26 26 24 23 21 18 16 15 15 15 16 15 13 11 6 6 5 3 6 10 14 8 3 2 4 3 3 2 1 3 2 2 2 1 1 2 1 4 4 4 6 5 3 4 3 4 8 11 12 13 14 10 6 4
24 24 24 23 20 18 16 16 16 15 13 12 5 5 3 4 3 3 3 4 5 4 3 2 1 2 2 1 2 2 2 1 1 3 1 1 3 4 6 7 7 7 7 7 9 6 10 12 11 12 8 4 4 5
26 20 21 21 20 19 18 19 18 15 11 3 3 2 2 4 3 4 3 4 1 2 2 1 1 3 2 3 2 1 2 1 2 3 3 2 2 4 8 10 11 11 16 16 19 17 17 14 9 4 1 2 1 1
32 28 26 23 18 16 18 18 17 7 5 8 13 7 3 5 3 5 2 1 2 2 2 1 1 1 1 2 3 0 2 1 4 2 1 2 2 4 9 10 10 16 20 18 19 16 13 9 7 5 3 0 2 4
28 30 31 28 22 15 13 11 12 20 16 6 6 4 2 3 3 5 5 1 2 1 1 1 2 1 2 3 3 2 3 3 1 2 2 0 5 6 5 7 9 13 16 14 9 7 8 6 4 5 4 5 7 8
21 24 25 25 22 18 16 14 12 8 7 4 2 3 2 2 2 1 1 2 1 1 2 2 2 2 1 2 1 3 0 1 3 2 3 1 3 3 5 5 5 4 5 9 8 7 6 4 3 3 3 5 7 10
18 19 20 21 17 14 12 11 9 7 5 3 2 3 2 2 3 1 0 2 2 1 1 2 2 2 1 2 1 2 1 2 1 1 1 1 4 4 8 6 4 5 5 6 4 4 3 3 4 6 7 7 9 12
9 15 22 16 15 11 8 7 6 4 4 3 3 3 1 2 1 1 1 2 1 1 1 2 2 2 0 1 2 2 2 1 2 1 2 3 4 5 5 3 2 1 2 3 4 4 5 6 6 8 10 11 11 13
14 8 15 16 12 10 7 4 4 5 3 3 2 2 2 3 3 1 1 1 1 2 2 1 3 3 2 2 1 2 2 2 3 3 3 5 4 5 6 5 1 2 2 4 6 7 8 9 10 11 10 15 16 18
14 12 13 16 13 7 5 7 4 4 4 2 2 1 2 2 2 2 1 1 2 2 2 3 3 2 3 3 2 3 3 1 1 1 2 2 3 4 4 2 2 2 5 7 8 9 10 12 13 17 20 23 25 25
15 14 13 15 13 4 4 5 5 3 2 2 2 2 2 2 2 2 1 2 1 1 3 2 3 2 3 2 2 2 2 2 2 1 2 4 3 3 4 5 6 7 8 10 11 14 15 15 16 19 21 22 19 22
10 11 14 11 9 4 4 3 3 3 2 1 2 2 2 1 1 1 2 2 2 2 2 1 3 2 3 2 3 3 2 3 3 2 2 3 8 11 14 15 14 13 14 17 17 19 18 17 16 20 22 22 20 22
8 13 11 10 6 10 3 2 3 1 2 2 2 2 1 1 1 1 1 0 3 1 1 2 2 2 4 8 9 9 7 3 2 2 2 2 11 14 14 15 15 16 14 15 13 14 16 16 19 23 22 22 23 25
7 10 6 9 6 5 3 6 1 2 2 2 2 2 2 1 0 1 2 2 1 2 1 1 1 2 4 4 9 13 12 18 16 16 15 9 5 7 9 13 13 11 12 13 14 14 16 17 21 24 20 23 24 24
7 6 4 6 5 5 2 7 3 3 2 2 2 2 1 1 1 2 1 1 1 2 3 4 8 15 17 15 18 21 16 15 13 12 12 12 12 11 11 11 14 13 11 13 15 15 17 22 24 25 24 24 24 25
7 4 3 3 2 2 3 3 2 2 2 1 2 2 2 2 1 1 2 2 1 3 5 4 9 8 11 12 10 12 12 11 11 14 11 8 9 10 12 11 13 15 18 17 17 18 22 24 25 24 23 24 24 23
3 4 3 3 3 3 3 5 2 2 2 2 2 0 2 2 2 2 2 0 2 2 3 8 11 9 5 5 7 8 12 10 7 10 12 12 11 11 13 13 10 12 21 21 21 21 21 23 24 23 25 23 26 25
1 3 3 2 2 2 3 0 2 4 2 2 3 1 2 2 2 3 1 2 1 2 3 4 5 4 6 8 6 6 9 9 8 12 9 11 14 15 11 9 10 12 21 20 21 21 21 23 25 27 26 28 29 28
1 3 2 1 1 2 1 1 1 1 2 3 3 2 2 3 3 1 1 6 2 7 10 13 12 9 9 10 11 11 10 9 5 10 12 11 13 15 15 14 13 16 20 18 17 17 21 26 27 27 28 29 28 20
2 2 1 2 2 2 2 2 2 2 2 1 3 2 3 1 2 2 3 7 13 14 17 17 14 14 14 13 11 9 13 10 13 11 6 7 8 6 16 17 19 19 17 18 17 18 21 22 23 24 24 23 15 17
1 1 0 1 2 2 2 1 1 2 2 1 2 2 2 3 4 4 6 9 10 13 16 17 15 12 12 11 10 11 11 12 10 4 2 3 7 7 17 20 21 21 19 20 19 19 19 17 17 17 16 13 14 14
2 1 1 1 1 1 1 2 2 2 5 4 4 3 3 3 8 8 8 8 11 14 14 13 11 8 9 8 7 7 8 10 13 10 0 3 9 13 18 21 23 22 22 21 21 22 18 17 16 17 16 16 16 15
1 1 1 1 1 1 1 2 2 2 2 3 4 3 3 3 4 11 10 11 11 9 8 9 9 8 6 6 7 5 4 6 10 8 8 9 10 13 17 19 21 21 20 20 21 16 15 15 16 16 15 14 14 13
3 3 2 1 1 1 5 2 3 2 3 2 2 3 3 3 2 4 3 4 5 8 7 6 4 4 4 4 5 5 6 8 9 10 11 9 11 14 16 18 19 18 17 18 14 12 12 13 13 12 12 12 11 12
3 3 3 2 4 4 2 3 5 3 3 2 3 2 1 3 2 2 3 5 6 7 6 6 6 4 3 3 5 6 8 10 9 10 10 10 13 14 16 17 17 15 15 15 13 11 11 11 11 10 10 10 10 11

GFSWCAN_925_spd_036.txt.gz
Wind_Speed
42 39 36 33 32 31 27 25 21 19 19 20 19 21 26 29 26 16 5 4 3 3 2 2 2 5 3 3 5 5 4 3 3 4 3 3 3 5 2 4 6 7 6 4 3 2 7 6 3 7 6 2 5 7
41 38 35 33 31 29 26 23 22 18 19 19 17 18 23 28 25 8 6 11 12 5 3 7 15 12 2 5 6 2 4 4 5 5 1 3 2 1 2 3 2 2 6 5 8 6 5 6 4 3 3 4 5 7
36 35 33 31 28 26 24 22 21 18 20 17 17 19 23 26 28 25 13 10 10 4 4 4 4 6 14 3 4 5 2 5 3 2 4 2 3 4 4 5 2 4 4 2 2 4 7 8 5 5 5 5 4 4
33 32 31 29 27 24 22 19 21 21 20 19 18 19 21 20 21 21 11 9 10 4 4 3 7 5 13 4 2 2 11 8 7 3 3 3 3 3 3 3 3 4 4 4 5 8 4 9 8 6 5 4 5 5
32 31 29 27 24 21 18 17 21 21 21 20 19 21 21 20 21 25 24 16 9 5 4 1 1 10 16 12 17 18 18 6 3 3 2 3 2 4 1 1 3 5 6 4 6 6 3 6 4 4 7 6 7 7
34 29 26 25 20 19 17 18 20 19 18 17 20 21 20 15 11 6 4 12 11 6 4 2 3 5 12 14 20 13 7 4 3 3 2 1 1 3 4 3 6 4 3 3 4 1 4 4 5 2 5 6 6 9
32 28 28 24 21 17 18 19 19 19 18 16 16 13 11 9 9 9 5 2 6 6 3 3 3 4 7 5 5 4 7 3 3 2 2 2 1 3 3 4 3 6 6 6 5 3 3 2 2 5 10 17 22 20
29 26 24 21 18 18 18 18 18 19 21 23 23 22 21 19 15 12 18 11 8 11 4 3 2 3 8 2 2 3 2 3 4 2 1 2 1 1 3 4 7 6 7 5 6 4 1 7 13 11 17 18 15 13
28 27 24 22 18 17 17 17 17 17 17 16 15 13 7 8 5 3 6 12 16 9 4 3 4 3 3 2 1 3 2 3 2 1 1 2 1 3 4 9 9 8 5 6 5 9 12 15 14 14 15 14 11 5
25 24 22 18 17 16 16 16 16 15 13 11 5 6 3 4 3 4 3 4 5 4 4 3 1 2 2 1 2 2 2 1 1 3 1 1 1 4 7 6 7 9 6 4 8 8 13 14 12 12 12 7 2 7
25 23 21 21 19 16 15 14 13 12 6 5 4 2 2 6 4 4 3 4 2 4 3 1 1 3 3 3 2 1 1 1 1 3 2 1 1 3 5 8 9 13 18 18 18 17 16 13 8 6 3 5 5 4
26 21 19 18 17 16 15 14 11 7 6 8 14 8 4 5 4 6 2 2 3 2 2 1 1 2 1 2 3 1 2 1 3 1 1 2 2 5 5 7 8 12 16 16 19 15 12 8 4 4 3 2 1 1
33 29 25 18 15 15 12 11 12 22 13 6 5 4 3 3 5 4 4 1 1 0 1 1 2 1 1 3 3 2 3 2 1 2 1 1 5 2 4 5 8 9 9 8 8 8 8 5 3 1 1 1 2 4
32 30 28 25 20 17 16 18 14 8 6 4 3 4 3 2 2 1 2 2 1 2 2 2 2 2 1 3 1 2 1 1 2 2 2 1 3 4 3 3 3 2 4 5 5 4 4 3 2 4 5 6 7 8
27 27 26 24 17 15 14 13 12 10 6 3 3 3 2 2 2 2 1 2 2 1 1 2 2 2 2 2 2 3 2 1 2 3 1 1 5 4 5 2 3 2 1 3 3 3 3 4 4 6 5 5 7 9
13 21 29 19 14 11 9 8 8 5 4 3 4 3 1 3 2 1 2 2 1 1 1 2 2 2 1 2 2 3 4 4 2 1 1 3 5 6 5 5 3 2 3 3 3 4 5 6 7 9 11 12 12 15
18 12 21 18 11 10 6 5 5 5 3 3 2 3 2 3 2 2 1 1 1 2 1 2 3 3 2 2 0 1 3 3 2 3 5 6 6 5 5 5 0 2 5 7 7 10 11 12 13 17 16 20 22 24
19 18 17 17 7 7 6 8 4 4 5 3 2 2 2 2 2 2 2 2 2 1 1 2 3 2 3 4 2 3 2 1 1 1 2 2 2 4 5 2 5 6 8 11 13 13 16 18 15 13 17 20 21 20
17 17 15 14 10 4 3 5 5 3 3 2 1 1 2 2 2 3 2 4 3 2 3 2 3 2 3 2 2 2 2 2 2 2 3 8 8 11 12 12 13 13 14 14 15 14 14 13 12 14 17 17 17 19
13 14 15 14 8 5 4 3 3 4 2 1 2 2 2 2 1 1 2 2 2 1 3 1 3 2 3 2 2 2 2 3 3 3 3 5 12 16 15 13 13 11 12 13 13 14 13 13 15 18 20 18 18 21
13 19 15 9 7 11 3 3 3 2 2 2 1 1 1 2 2 2 1 1 3 1 1 1 1 2 6 10 11 12 9 4 2 2 3 4 9 13 12 13 12 13 12 13 12 14 17 14 16 19 22 19 21 21
10 13 8 11 9 5 4 9 2 1 2 1 2 1 2 1 1 1 1 1 1 1 1 1 1 2 3 5 9 14 13 16 16 16 16 11 4 6 10 11 13 12 13 13 12 12 15 16 20 24 23 25 24 24
9 7 6 9 5 6 2 8 3 3 2 1 1 2 0 1 0 2 1 1 1 3 2 3 7 13 15 13 17 18 15 14 13 12 12 12 11 10 10 12 15 16 12 13 15 14 16 20 22 25 26 26 26 26
7 5 4 4 4 2 3 4 2 2 3 1 2 1 1 1 1 1 1 1 2 3 3 8 9 8 12 13 11 12 10 12 14 15 12 11 11 12 11 9 10 12 13 12 15 17 18 20 22 26 27 27 26 23
5 5 4 4 2 5 3 4 3 2 1 2 2 1 2 2 2 1 1 1 2 3 3 6 9 8 5 5 9 10 11 9 9 11 12 11 11 10 9 9 7 9 16 18 20 20 21 22 25 25 26 25 25 24
5 3 3 2 2 3 2 1 1 3 1 2 3 0 1 2 2 2 1 3 2 3 4 5 5 5 7 9 7 6 7 6 8 11 7 10 12 12 10 9 10 10 17 15 17 19 20 21 23 24 25 25 23 22
3 3 2 1 1 0 1 1 1 1 2 2 2 1 1 2 1 2 1 6 3 7 10 11 10 11 11 10 10 9 7 5 5 10 12 9 9 11 12 12 11 13 15 14 15 15 17 19 21 21 21 22 17 17
3 1 1 3 2 1 1 1 1 2 2 1 2 2 1 3 2 2 4 7 11 13 15 16 16 17 17 15 12 10 11 13 14 10 7 5 3 4 11 12 13 14 14 14 15 14 15 14 16 17 16 15 16 16
1 2 2 2 2 1 2 2 2 2 3 1 1 2 2 2 4 5 6 7 8 11 14 15 14 12 12 11 11 11 11 5 1 4 2 3 5 3 11 14 16 16 17 17 15 15 12 10 11 12 12 12 12 12
2 1 2 1 1 1 1 1 2 1 5 3 4 3 3 3 8 6 5 6 10 13 12 10 7 4 6 4 6 6 6 7 8 6 2 3 6 10 12 15 17 19 18 18 18 15 12 12 13 13 13 13 13 13
1 2 2 1 1 2 2 3 2 2 4 3 5 3 2 2 5 11 11 11 9 8 7 8 8 6 5 6 5 3 2 5 8 8 9 9 9 10 13 15 17 18 18 17 17 14 14 14 14 13 13 13 13 13
3 2 1 2 1 2 6 3 3 2 3 2 2 3 3 3 2 3 3 3 3 6 7 7 5 3 3 4 5 4 5 7 8 9 10 10 10 12 13 15 17 17 16 16 15 13 13 13 12 12 12 12 13 13
2 3 3 2 3 3 2 3 4 3 4 2 2 1 1 3 2 1 4 5 6 7 7 6 5 4 4 4 5 5 7 10 10 10 10 10 12 13 13 15 17 16 15 14 14 13 11 11 11 11 11 12 12 13

GFSWCAN_925_spd_039.txt.gz
Wind_Speed
47 37 36 34 33 31 29 26 25 24 24 26 30 36 43 48 29 9 10 7 4 3 2 1 1 5 3 2 5 5 4 2 2 3 3 3 3 4 2 3 5 5 6 3 3 1 6 5 3 4 3 2 2 4
38 35 35 33 30 30 28 25 22 21 22 24 29 35 41 45 36 9 6 8 10 5 3 8 15 11 2 2 6 0 3 4 4 4 1 3 2 2 2 3 0 3 5 4 8 5 3 5 4 2 1 3 2 2
36 34 33 33 31 28 25 23 22 20 21 24 29 34 37 38 29 11 17 14 7 3 3 3 3 6 11 3 3 5 2 4 3 1 4 2 3 3 4 4 2 3 3 2 1 2 7 10 8 7 5 5 4 5
37 38 36 33 30 27 24 23 20 20 23 26 30 34 36 36 29 14 13 10 4 4 4 2 7 5 13 3 1 2 11 9 7 2 3 3 3 3 3 2 2 2 5 3 4 8 5 6 6 6 5 5 3 1
38 36 34 31 29 27 24 23 22 21 24 29 31 34 32 28 25 8 10 4 3 2 4 2 1 10 17 14 18 18 16 6 2 3 2 2 3 4 2 1 3 4 4 4 4 2 3 5 4 4 3 3 3 7
33 32 31 30 28 26 25 24 25 29 34 34 30 26 25 25 28 23 3 2 5 6 4 3 3 4 12 15 20 13 7 4 3 3 2 2 1 2 3 3 2 4 4 2 4 4 4 6 5 6 3 6 11 13
32 31 30 28 27 24 22 22 23 24 26 26 24 23 19 16 13 7 4 1 4 6 4 3 2 4 7 5 4 4 7 3 3 3 2 2 2 2 3 3 6 9 9 8 5 3 2 10 4 11 17 21 26 23
30 29 27 25 24 24 23 25 27 26 28 31 31 31 30 27 18 12 18 11 8 12 4 4 1 3 9 3 3 4 2 3 4 2 2 2 1 1 2 5 9 10 11 8 8 7 7 13 16 15 19 21 18 14
28 26 25 22 22 21 19 21 21 22 23 21 18 16 8 9 4 2 6 13 19 10 4 3 4 3 3 2 1 2 2 3 2 2 2 1 1 1 2 5 8 9 6 4 11 13 14 16 15 15 15 14 12 7
26 27 25 21 19 18 16 16 15 14 13 10 4 8 3 4 3 5 5 4 5 4 4 3 1 2 2 1 2 2 2 2 2 1 0 2 2 4 3 3 4 8 7 12 12 10 11 12 10 10 9 8 8 7
25 24 22 19 18 16 12 10 10 9 6 5 3 2 3 5 4 4 3 4 3 4 3 1 2 3 3 2 2 1 2 1 2 1 2 1 2 2 2 5 5 10 15 16 17 15 13 10 8 7 5 5 6 7
26 23 21 20 17 13 9 7 6 9 8 10 16 8 3 5 4 6 3 2 4 2 1 2 2 2 1 1 3 1 3 1 2 2 2 2 2 3 5 6 6 10 14 15 15 13 10 7 4 2 1 1 1 0
23 21 19 17 14 11 10 15 24 18 11 7 7 5 4 3 6 3 4 0 2 1 1 1 2 1 1 2 3 2 3 2 2 2 1 2 5 5 6 7 6 7 7 7 6 5 5 5 6 6 4 4 4 5
31 29 25 21 17 14 13 12 9 9 8 4 3 5 3 2 2 2 2 2 1 2 2 2 2 2 0 3 1 3 1 2 3 3 3 3 6 6 5 2 2 3 5 6 6 6 7 7 7 8 8 7 8 10
28 26 25 24 18 17 13 11 11 12 8 4 4 4 3 2 3 2 1 2 2 1 1 2 2 2 2 3 2 3 2 2 2 2 2 3 6 7 5 3 4 4 4 5 6 8 9 10 10 10 13 13 13 14
18 24 24 16 13 13 16 17 20 7 5 3 5 3 1 3 2 2 2 2 1 1 1 2 2 2 2 2 2 2 4 3 3 2 3 7 6 6 5 4 4 4 5 6 8 8 9 11 10 10 12 17 21 20
23 12 19 10 12 10 6 6 5 5 3 3 2 2 2 3 3 2 1 1 2 2 2 2 3 1 2 2 1 2 3 3 4 4 4 7 8 5 5 5 5 7 8 9 10 12 11 10 12 15 17 19 18 16
17 16 14 8 7 8 6 9 4 4 5 3 3 2 2 2 2 2 2 2 2 1 1 1 3 2 3 3 2 2 1 3 3 3 5 3 4 3 8 8 10 11 12 12 12 11 12 14 13 13 14 17 16 17
18 16 14 11 7 6 4 5 5 4 3 2 2 2 2 2 2 3 2 4 4 3 3 2 3 1 2 2 2 2 4 2 3 3 3 7 9 11 13 14 13 13 13 12 13 12 11 11 11 11 13 15 14 16
13 17 16 16 7 5 5 3 4 4 3 2 2 2 2 2 1 1 2 3 2 2 3 2 1 1 1 1 1 1 3 5 6 6 5 7 10 14 13 12 11 11 11 10 11 12 9 8 11 13 14 15 16 18
13 17 18 9 8 13 4 3 3 2 2 2 1 2 2 2 2 2 2 2 3 2 2 2 1 3 7 8 9 8 8 6 2 2 4 6 9 11 12 11 11 11 11 9 8 8 10 10 12 13 15 16 17 18
11 11 7 11 7 5 4 9 2 1 2 1 2 1 2 2 2 2 2 2 2 1 2 2 1 2 4 6 10 13 11 14 15 19 20 14 7 8 10 9 9 9 9 9 8 8 9 10 13 15 17 19 19 19
8 8 7 12 6 6 2 8 3 4 2 1 1 2 1 1 1 2 2 1 2 3 2 3 8 12 14 12 14 16 14 15 15 13 12 13 13 11 10 9 9 8 6 8 9 9 10 14 15 19 19 20 19 19
8 6 5 4 5 3 3 5 2 3 3 2 1 1 1 1 2 2 1 1 2 5 3 6 7 7 10 11 11 12 11 12 14 13 10 11 11 9 8 7 7 9 9 8 10 13 14 16 18 19 19 18 18 15
6 7 5 5 3 4 5 4 4 4 2 2 2 1 1 2 2 1 1 2 3 5 4 7 7 8 5 5 8 9 11 8 9 11 10 10 11 8 7 7 6 8 12 12 15 16 17 17 18 18 18 18 16 16
6 4 4 1 2 3 1 2 0 2 1 2 1 1 1 2 3 2 2 4 3 4 6 5 4 5 7 9 7 6 5 7 7 9 7 8 9 9 6 5 6 6 13 13 14 16 16 17 17 18 18 18 17 16
4 3 1 2 1 1 2 1 0 1 1 1 1 1 1 1 2 2 2 7 3 7 10 12 11 11 9 8 8 8 7 6 6 11 11 9 9 10 11 9 7 10 13 14 14 14 16 17 16 16 17 17 14 14
2 1 3 3 2 0 2 1 1 2 1 2 1 3 2 2 2 2 4 5 8 11 15 17 16 15 14 12 11 12 14 14 12 9 7 5 4 5 9 9 10 12 13 13 13 14 14 13 13 14 14 15 15 12
2 2 2 4 3 3 2 1 1 1 2 1 1 2 2 2 3 4 6 4 6 9 10 12 12 12 13 13 13 12 7 3 3 4 3 2 5 3 9 11 13 14 16 15 13 12 10 9 11 11 11 10 10 9
3 1 3 2 2 1 2 0 1 1 5 4 4 3 3 3 8 6 6 8 11 11 9 7 5 3 5 5 6 7 7 8 9 7 1 2 6 10 10 12 14 16 16 16 16 14 10 9 9 9 9 9 10 11
1 2 3 2 1 2 2 5 1 5 4 3 5 3 3 3 4 11 12 9 7 6 6 7 7 7 7 7 6 3 3 5 7 6 7 8 9 9 11 12 14 15 16 15 14 13 12 11 10 10 10 11 11 12
3 3 1 2 1 3 6 3 2 2 2 2 2 2 2 2 2 3 6 5 5 8 8 7 5 4 4 4 4 4 4 7 9 9 9 10 10 11 13 13 13 15 15 14 13 12 11 10 10 9 10 10 11 12
2 3 3 2 4 3 3 3 5 3 3 2 2 1 1 2 2 0 4 6 7 7 7 6 3 3 4 5 5 5 7 9 11 12 11 10 12 14 13 12 14 15 14 13 12 11 10 10 9 8 9 10 11 11

GFSWCAN_925_spd_042.txt.gz
Wind_Speed
29 33 39 36 35 42 47 45 38 37 40 38 37 36 34 39 52 16 3 4 2 4 5 1 2 6 5 6 6 8 6 2 2 2 2 3 2 4 3 2 4 5 6 3 3 3 4 5 6 3 4 3 3 3
35 42 38 40 43 31 34 35 36 35 35 35 33 33 36 46 41 11 4 13 14 7 4 7 9 6 3 3 6 11 1 6 5 3 1 3 3 1 1 3 3 3 3 1 6 1 3 6 6 3 4 7 7 5
33 42 44 41 33 31 30 30 30 31 31 31 32 34 39 55 32 3 12 14 10 4 4 4 3 5 7 4 1 4 2 4 4 3 4 2 3 4 4 4 3 5 4 3 2 2 5 6 7 8 9 10 10 8
35 35 35 33 30 28 26 26 26 27 29 29 30 35 42 54 33 7 9 12 10 5 4 3 4 4 10 2 1 1 9 9 7 2 3 3 3 3 3 1 3 2 7 5 4 8 5 4 4 7 9 7 6 4
37 34 31 28 25 23 22 22 23 24 26 29 33 37 41 45 31 15 18 8 7 1 4 4 4 9 12 9 11 13 15 7 3 3 2 2 3 4 1 0 2 2 1 2 2 5 4 5 10 9 8 8 5 4
35 34 32 29 26 23 21 21 22 26 30 33 36 38 40 41 29 21 3 7 7 6 4 4 2 4 10 12 16 13 8 5 3 3 3 3 2 1 3 4 3 4 4 4 3 9 6 7 10 10 8 9 11 13
33 34 33 30 28 29 30 30 27 30 30 37 41 43 40 37 15 4 5 10 11 7 3 4 3 3 7 5 4 5 7 4 3 3 3 3 2 2 2 3 3 5 5 5 6 7 4 12 7 12 15 19 23 23
32 32 33 32 25 27 27 30 30 34 37 39 37 30 25 21 14 8 14 10 9 3 3 4 3 2 8 3 2 4 2 2 5 3 2 2 2 1 2 4 5 7 5 6 8 9 10 12 14 14 18 19 16 11
31 30 31 29 28 32 32 33 35 38 38 38 35 29 18 8 4 4 7 11 11 5 3 3 4 3 2 2 1 2 2 3 1 2 2 2 2 2 2 3 6 7 4 3 10 11 12 13 14 13 14 12 11 7
30 29 28 22 23 22 21 21 21 18 15 12 7 8 4 3 4 3 4 3 5 5 5 3 1 3 1 1 2 2 2 2 2 2 2 2 2 3 2 2 3 6 6 10 11 10 9 10 9 9 10 10 7 4
26 26 25 22 20 18 16 15 12 9 6 5 4 3 3 6 4 4 3 4 3 3 3 2 3 4 3 2 3 2 2 1 3 2 3 3 3 3 3 4 5 7 8 11 15 15 15 12 8 6 4 5 5 5
23 21 19 18 15 15 14 11 7 5 7 7 15 10 5 4 3 6 2 1 4 2 1 2 2 3 2 1 3 1 3 1 2 4 2 3 3 7 7 8 9 13 15 15 14 12 9 7 6 6 6 6 6 5
22 20 17 15 11 12 17 23 19 17 13 8 6 4 3 4 5 2 4 2 3 1 1 2 3 2 2 2 3 2 3 2 4 2 2 2 6 7 8 9 9 10 9 10 9 9 8 9 9 9 7 7 6 6
27 25 22 19 16 15 13 10 9 7 8 4 4 5 3 2 4 3 2 2 1 2 3 3 2 2 1 2 1 3 2 2 3 4 3 4 8 9 10 8 8 7 6 8 9 8 8 8 9 10 10 10 10 10
24 24 25 22 18 15 11 10 9 10 8 4 4 4 3 1 3 2 2 2 2 1 1 3 3 2 2 3 1 3 3 3 2 2 3 5 8 11 10 7 8 7 5 7 7 8 8 8 9 10 10 10 10 10
16 19 23 16 16 16 14 12 17 7 5 4 5 3 1 2 2 2 3 2 2 1 1 2 2 2 2 2 3 3 3 2 3 3 5 8 10 10 9 8 9 8 8 8 8 8 9 10 9 7 6 9 10 9
18 8 10 10 12 10 11 10 8 6 4 4 3 3 2 4 3 2 2 2 3 2 2 1 2 2 2 2 2 1 1 2 5 6 6 9 10 9 8 9 7 8 9 9 9 9 8 6 6 7 9 12 12 10
13 13 7 4 5 8 7 9 4 4 6 4 3 2 2 3 2 2 2 3 2 2 1 2 3 2 1 3 2 3 3 5 6 7 6 6 6 8 11 10 10 10 11 10 9 8 8 7 7 8 9 12 12 13
16 13 8 7 6 6 4 6 5 4 4 2 2 2 3 3 3 3 2 3 4 2 3 1 2 2 2 2 3 4 6 7 6 4 5 9 10 12 13 13 12 11 10 9 7 6 6 8 8 9 10 12 12 14
13 13 18 13 6 5 4 3 4 4 3 2 2 3 2 2 1 1 2 3 2 1 3 3 3 2 2 3 3 3 6 7 9 7 6 6 10 11 10 10 10 9 8 7 8 7 6 6 8 9 10 11 12 14
9 15 14 9 8 11 4 3 4 3 3 3 1 2 2 1 2 2 2 3 3 3 3 3 3 3 5 6 5 5 7 8 4 3 5 7 9 10 10 10 9 8 7 6 6 6 7 7 8 9 10 10 12 13
10 11 7 10 6 5 4 9 2 2 2 2 2 2 2 2 2 2 3 2 3 3 2 2 2 2 4 6 9 10 11 14 15 16 18 15 8 9 8 7 6 7 8 7 6 5 5 6 7 9 9 11 11 12
7 7 7 10 5 5 3 6 3 4 2 2 1 2 2 2 2 2 2 3 3 6 5 5 7 10 11 10 13 14 12 12 13 13 12 13 13 11 10 9 8 6 5 5 4 4 5 7 8 8 10 11 11 11
8 6 5 5 6 4 2 4 2 2 2 1 1 3 2 2 2 2 2 3 5 10 7 4 5 5 8 10 9 11 11 12 14 13 10 10 11 9 8 8 7 6 5 3 4 5 6 7 9 9 10 10 11 11
5 7 4 5 4 3 4 3 3 3 3 3 1 2 2 0 1 2 2 3 6 7 6 10 9 8 5 5 8 10 11 8 9 11 10 9 10 8 7 6 5 5 6 5 6 7 8 9 9 10 10 10 11 12
7 7 5 4 3 3 2 2 3 3 2 2 3 2 0 1 2 3 2 4 4 5 7 7 4 4 6 9 6 7 8 7 7 10 8 7 7 6 5 3 2 3 7 7 8 9 10 10 10 11 11 10 11 12
5 5 3 3 2 2 2 2 1 2 2 2 1 1 0 2 2 2 2 6 4 7 8 10 10 10 8 8 8 9 8 9 9 10 9 8 9 8 7 5 5 5 7 8 8 8 10 11 11 10 11 11 11 11
3 4 3 3 2 2 2 2 2 3 2 3 1 2 2 2 2 2 4 5 5 7 10 12 12 11 10 9 9 9 10 10 9 8 7 7 5 5 6 5 6 9 9 10 10 9 9 9 10 11 11 12 11 9
3 3 1 3 2 3 3 3 2 2 3 2 1 2 2 3 3 4 5 4 4 4 7 8 9 8 10 11 11 9 7 6 5 3 3 2 3 3 7 7 7 8 9 10 9 9 8 9 9 9 9 8 8 8
3 3 1 2 2 2 2 3 2 3 6 4 4 3 3 3 7 6 6 7 8 8 6 6 5 5 5 4 5 6 8 9 9 7 4 4 5 8 7 8 9 9 10 10 10 10 9 7 7 6 7 6 7 7
2 2 2 2 2 2 3 5 3 5 4 3 6 3 4 3 3 8 9 7 6 5 4 5 6 6 6 7 6 4 4 6 8 7 5 6 8 7 8 9 9 10 11 11 10 9 10 8 8 8 7 7 7 7
4 4 3 2 2 2 5 3 2 2 2 2 2 2 2 2 2 3 7 6 5 6 6 5 5 5 5 5 5 4 3 6 7 9 10 9 8 8 10 11 11 12 12 11 9 9 9 8 8 8 8 8 8 9
1 2 2 2 1 1 3 2 2 2 3 2 2 2 2 2 3 3 4 7 6 5 5 4 4 3 3 6 6 6 8 9 11 13 12 11 10 12 15 11 10 12 14 11 9 9 9 8 8 7 7 8 8 9

GFSWCAN_925_spd_045.txt.gz
Wind_Speed
41 41 38 36 36 37 35 35 35 38 40 41 44 40 43 42 42 40 30 10 9 3 6 2 7 16 9 13 7 11 7 2 3 3 3 3 1 4 2 3 6 7 7 3 3 3 5 7 6 1 5 5 5 6
31 31 32 33 32 33 35 33 38 43 46 44 43 44 42 40 43 36 15 9 1 1 5 8 10 10 3 3 7 12 3 11 7 5 1 3 2 1 1 3 4 4 4 2 6 1 5 4 4 3 5 8 8 9
29 29 30 30 29 37 40 34 39 41 44 39 41 40 39 43 39 39 14 7 3 4 5 5 5 6 7 5 3 4 2 4 5 3 4 2 3 4 4 4 3 4 2 3 1 3 3 1 3 6 8 8 9 8
28 29 28 26 30 34 37 41 41 42 42 41 40 41 39 37 34 36 11 6 1 5 4 4 3 3 7 1 3 1 10 7 8 4 3 3 3 3 3 1 4 3 6 5 5 7 3 8 6 9 9 8 8 5
33 35 35 31 34 37 38 38 37 37 38 39 38 37 36 36 36 18 8 5 6 3 4 5 9 9 6 5 6 8 13 9 4 3 2 2 3 3 2 1 3 3 1 3 1 5 4 7 9 9 7 8 7 6
31 30 29 27 28 30 33 34 35 35 34 32 32 34 37 54 35 10 3 1 7 6 4 4 3 6 9 12 12 9 6 4 3 4 3 3 2 2 4 4 4 4 2 3 2 5 5 6 10 11 11 11 13 15
30 28 25 22 21 24 28 29 31 32 33 35 37 39 44 56 17 1 1 5 8 8 3 3 4 3 2 5 3 5 7 4 3 3 3 2 3 2 2 3 6 2 2 3 4 4 7 11 7 12 14 16 20 21
36 35 33 30 26 23 25 30 31 32 33 34 36 37 36 34 9 4 4 10 5 3 0 4 3 3 5 2 3 4 3 2 5 3 2 2 3 0 3 5 3 4 4 5 7 10 12 12 12 12 17 16 13 11
43 43 42 42 38 34 35 38 39 38 39 40 42 41 27 4 3 5 13 19 11 3 1 2 6 4 2 3 2 2 2 3 0 2 2 3 2 2 4 4 4 4 2 7 9 10 10 12 13 12 12 10 10 7
36 33 32 32 34 37 40 41 43 43 43 42 32 7 4 3 14 9 3 3 3 2 4 3 1 4 0 2 2 2 2 3 2 1 4 1 2 4 4 4 3 1 8 10 11 9 10 11 10 10 9 7 9 10
33 29 28 27 23 24 23 23 23 23 20 6 3 3 5 5 3 3 3 2 2 3 3 3 3 5 3 2 3 2 3 2 3 3 4 4 3 4 5 4 3 8 8 5 11 13 13 11 9 7 7 7 7 7
27 27 26 29 25 19 15 14 12 11 7 6 15 10 5 2 4 5 1 1 4 2 1 2 3 3 2 1 3 2 3 2 3 5 2 3 3 10 8 8 11 13 17 17 17 13 11 9 8 8 7 8 7 7
22 21 21 24 28 26 27 25 23 16 13 7 5 5 1 3 5 2 4 2 3 2 2 2 3 2 3 3 3 2 3 2 5 2 2 2 9 8 11 11 11 14 14 13 12 11 11 11 10 8 9 8 5 7
18 18 22 20 18 23 23 20 15 13 12 6 4 5 4 3 4 3 3 3 2 1 4 4 3 3 1 3 1 3 2 3 4 4 3 4 8 10 11 11 11 11 6 9 11 10 10 10 11 12 13 9 9 8
18 17 15 19 18 17 17 17 19 14 7 4 4 4 4 2 3 2 2 2 3 2 1 4 3 2 3 3 2 3 3 3 3 0 3 6 10 11 11 11 10 9 6 8 10 10 9 9 9 9 8 8 8 9
18 21 23 19 16 14 16 16 20 8 5 5 6 3 2 2 3 3 3 3 3 1 1 2 3 2 3 2 3 2 3 2 3 3 5 9 9 9 10 9 11 11 10 10 10 10 10 9 7 6 6 8 8 6
18 9 10 11 15 13 10 9 7 5 4 3 3 3 2 4 3 2 2 2 4 2 2 2 3 4 2 2 3 2 2 3 5 6 6 7 9 11 11 12 11 11 10 10 9 8 8 7 6 5 4 7 9 7
12 10 9 9 9 14 9 9 4 4 6 4 3 3 2 3 2 2 2 3 2 2 2 3 2 2 1 2 3 3 3 6 6 6 6 7 11 11 12 11 11 10 10 9 9 8 6 4 3 4 6 9 9 10
16 13 9 11 9 7 4 6 5 4 5 2 2 2 2 2 4 5 3 4 4 3 2 1 2 2 3 4 4 4 5 5 7 6 6 11 11 11 10 12 11 11 10 8 6 5 6 7 6 6 7 9 10 11
16 18 20 13 8 5 5 3 4 4 3 3 3 3 2 2 1 2 3 4 3 2 5 4 4 3 4 4 5 3 5 7 8 7 6 7 12 12 11 10 10 10 9 9 8 5 4 3 5 7 8 8 9 11
10 16 16 10 8 12 4 3 4 3 3 3 2 2 3 2 3 4 4 5 5 4 3 4 4 4 6 6 6 5 7 10 6 5 7 7 10 11 10 9 8 7 6 5 4 5 5 5 6 7 8 8 10 10
8 11 6 11 6 5 5 10 3 2 3 2 2 3 3 2 3 3 4 4 3 4 3 4 5 4 6 9 10 12 10 13 14 16 16 14 7 8 8 7 7 7 7 6 5 4 4 5 6 7 8 10 10 11
7 8 7 9 5 5 3 6 4 4 3 2 1 2 2 2 3 2 3 3 4 7 9 7 8 11 10 11 14 15 12 10 12 12 12 13 12 11 10 9 7 6 6 6 5 4 4 6 6 8 9 10 11 11
9 6 5 5 6 4 2 4 3 2 2 2 2 3 3 3 3 2 3 3 4 9 9 7 4 4 8 11 10 12 12 11 13 13 10 11 11 10 9 9 8 8 6 4 5 5 6 7 8 8 9 10 10 11
5 7 5 7 4 3 3 3 3 3 3 2 2 3 2 1 1 3 3 3 5 6 7 10 10 9 5 6 10 12 15 10 10 11 12 11 10 9 8 7 7 7 7 5 5 6 7 8 8 9 10 10 11 12
7 8 5 5 3 3 3 3 3 3 2 2 3 2 0 1 2 4 3 4 4 6 8 8 7 4 7 11 8 9 10 8 9 12 11 9 8 6 4 3 1 4 6 6 7 8 9 9 10 11 11 11 10 12
5 6 4 3 2 2 3 3 2 3 3 3 2 1 1 2 3 3 3 8 4 9 10 11 11 11 9 9 10 10 10 12 12 10 8 8 9 9 7 5 4 4 5 6 7 8 9 10 11 11 12 12 12 12
5 6 5 4 4 4 3 3 3 3 3 3 2 2 2 5 3 3 5 7 7 7 9 11 11 10 10 10 9 8 9 7 7 7 7 7 6 6 6 5 5 7 7 7 8 8 9 10 11 12 12 13 13 11
4 4 3 4 3 4 4 3 3 3 4 3 2 3 3 3 5 5 6 5 5 5 6 7 8 7 9 9 9 9 9 8 5 4 4 3 3 4 8 7 7 8 9 9 10 10 10 11 11 11 11 11 11 11
4 4 2 3 2 3 3 5 3 4 7 5 4 4 4 5 7 7 7 8 8 8 7 7 7 6 6 5 5 6 8 9 10 8 5 4 7 8 9 9 9 10 10 11 12 12 11 10 11 9 10 11 10 10
3 3 2 3 3 3 3 2 7 8 4 4 8 6 5 4 6 10 10 8 7 6 5 6 7 7 7 8 7 6 4 6 8 7 6 6 8 8 9 10 11 11 11 11 12 12 12 12 11 11 11 11 11 10
4 4 3 2 3 3 3 2 2 2 2 2 3 3 3 3 2 4 8 8 6 7 7 6 6 6 6 6 6 5 5 6 8 9 9 9 9 9 10 11 11 11 11 12 13 13 12 12 12 12 12 11 11 11
2 2 3 2 1 1 3 2 1 2 2 2 3 3 4 4 3 3 3 7 7 6 6 5 4 4 4 6 7 6 7 8 10 11 11 11 10 10 11 11 11 11 12 13 14 13 13 12 12 12 11 11 11 11

GFSWCAN_925_spd_051.txt.gz
Wind_Speed
43 44 44 45 45 43 41 38 31 29 38 39 43 43 42 39 39 36 29 12 2 2 8 8 10 12 14 7 6 6 5 2 1 4 3 3 3 4 4 8 8 7 6 3 3 2 6 6 4 6 5 4 7 6
40 42 42 44 42 41 41 36 35 31 35 36 38 37 35 36 36 35 16 23 15 3 5 25 11 13 19 9 7 1 6 8 6 4 2 3 3 2 3 2 2 2 7 6 7 6 5 9 12 6 8 7 5 7
41 42 43 39 37 37 36 39 36 33 34 33 35 35 34 37 35 39 25 14 9 2 6 7 3 8 19 26 25 5 2 4 4 4 4 3 4 4 3 4 3 2 4 4 5 1 10 12 9 8 8 8 11 10
36 37 36 35 36 36 37 37 34 34 31 30 31 33 34 35 38 29 19 20 7 2 3 4 5 3 5 20 23 17 7 4 4 3 3 3 4 3 4 4 4 5 4 6 5 9 13 10 6 8 11 13 14 16
33 35 36 36 36 36 34 34 34 32 30 29 29 31 29 31 29 24 21 16 12 5 2 1 4 15 11 15 10 26 11 7 4 2 3 2 3 4 1 3 1 1 4 4 4 4 8 5 6 12 15 13 12 14
31 32 32 32 33 34 35 33 30 30 29 28 29 30 29 29 30 14 3 18 39 26 3 1 2 6 10 7 8 4 4 5 3 3 1 2 2 3 3 3 1 5 8 3 5 10 16 14 15 15 15 13 13 14
27 28 30 30 31 31 30 30 29 30 31 28 26 23 29 30 27 7 3 7 38 39 3 2 3 5 9 4 3 4 7 4 3 2 3 3 2 3 3 3 6 9 10 10 14 17 9 4 9 13 15 17 20 19
24 26 27 28 28 30 32 31 28 27 29 25 32 26 25 24 15 8 11 6 7 5 3 3 2 4 7 3 3 4 3 3 4 2 2 2 3 2 3 6 9 12 13 13 11 12 15 15 16 12 16 16 12 9
26 27 27 24 33 33 29 26 25 27 34 32 32 30 24 8 3 5 12 11 11 5 4 3 4 2 4 3 3 4 3 2 2 2 1 3 1 2 3 9 6 8 7 13 14 16 14 14 13 12 12 8 7 9
22 25 29 28 29 34 37 40 37 35 36 38 29 5 3 2 14 11 8 2 4 4 4 3 2 2 2 2 2 2 1 2 2 2 2 3 2 4 6 7 7 11 13 14 16 12 13 12 11 11 9 10 13 13
28 25 23 26 27 29 31 33 36 35 35 9 3 2 12 20 4 2 2 3 1 4 3 2 3 3 2 3 2 0 2 1 3 3 4 1 3 3 3 4 7 10 8 8 12 11 12 11 12 12 12 16 17 17
39 35 29 26 27 30 32 33 36 22 9 8 18 12 7 1 3 5 2 2 4 2 1 2 3 2 1 2 3 0 3 2 2 3 3 3 2 7 6 7 11 11 11 13 17 14 15 16 19 18 16 16 17 18
41 42 39 34 30 29 34 42 17 29 42 13 6 4 2 4 6 3 3 2 3 1 1 1 2 2 3 3 3 2 3 1 2 2 3 1 6 5 7 10 11 13 17 19 20 22 23 21 22 21 18 20 21 20
38 40 36 33 32 31 35 22 26 2 7 4 4 5 3 3 3 2 2 3 1 1 3 4 2 2 1 3 1 4 1 1 2 2 3 3 7 8 10 10 13 12 12 13 16 19 19 19 19 22 22 20 19 17
22 25 32 33 25 21 18 16 11 11 7 4 4 5 4 0 1 1 1 2 3 1 3 2 2 2 2 3 2 3 2 3 3 2 2 5 7 11 11 11 12 12 10 11 16 16 18 18 18 17 17 18 17 15
24 24 26 22 22 20 14 10 15 7 4 4 6 3 1 2 3 3 3 3 4 2 1 2 3 3 3 3 2 2 4 2 2 2 3 6 10 10 10 11 10 16 16 15 16 16 18 19 17 18 15 15 14 14
26 10 15 17 19 21 21 11 9 6 4 5 4 3 2 4 4 2 2 2 3 2 2 2 4 2 1 3 3 3 2 2 3 3 3 7 9 11 11 11 16 18 17 17 17 17 18 19 21 17 13 10 12 12
18 16 11 13 15 21 11 13 5 4 6 4 3 3 2 3 1 2 3 2 2 2 2 2 2 4 4 3 2 2 3 4 4 5 6 8 10 15 17 15 17 18 18 18 18 17 17 16 15 13 12 10 12 11
19 17 12 14 10 8 4 6 5 4 4 2 2 2 2 2 3 5 5 5 2 5 3 3 6 4 3 3 3 3 3 2 3 4 5 12 16 16 16 19 19 18 17 15 17 16 18 19 16 14 11 10 11 10
17 20 22 17 8 5 5 3 5 4 3 2 2 3 2 2 2 6 8 7 7 3 5 4 4 3 3 4 3 1 4 4 6 6 5 6 13 17 15 15 16 19 19 19 16 18 18 16 14 11 9 8 7 6
11 16 15 12 9 13 4 3 3 3 3 2 1 2 3 2 6 7 6 5 6 4 4 4 3 5 11 14 17 13 9 5 3 3 5 5 10 16 16 15 15 13 13 12 12 14 16 13 11 8 7 6 6 6
9 10 6 11 6 5 4 10 3 3 3 2 1 2 2 2 3 4 3 6 4 4 3 3 6 6 8 12 17 21 18 18 20 16 17 16 6 8 9 13 17 15 15 14 13 13 11 7 7 5 6 6 5 7
5 7 7 10 6 6 2 8 4 3 3 1 2 3 3 2 2 2 3 3 3 9 12 7 11 16 15 17 21 24 23 20 17 17 18 19 19 19 21 20 16 15 13 12 11 10 9 5 7 6 5 6 7 6
9 6 5 4 5 4 2 4 3 3 3 3 3 3 3 2 2 3 4 3 5 12 12 15 9 7 13 18 12 17 17 17 18 19 16 16 15 16 17 17 18 16 12 10 9 9 7 6 5 6 7 8 8 8
7 8 5 6 5 5 4 4 5 4 3 3 3 3 2 1 3 3 3 3 6 6 7 11 14 13 6 6 11 15 21 16 14 14 19 13 15 14 13 15 16 14 9 10 11 9 9 7 7 8 8 9 9 8
8 7 5 7 4 4 4 3 3 3 2 3 3 0 1 3 4 4 3 3 3 4 6 8 6 6 7 13 8 12 15 12 15 15 15 16 17 13 9 7 7 8 11 8 7 8 9 9 10 10 11 12 12 7
6 6 3 1 1 0 3 2 2 4 5 5 3 4 2 4 4 3 2 6 3 10 12 15 14 12 10 10 13 14 15 14 14 13 12 15 16 16 14 12 9 6 5 8 10 9 8 9 10 12 13 12 11 12
4 4 5 6 4 5 4 4 4 5 4 5 2 6 3 4 3 2 3 5 10 11 13 14 13 14 16 15 13 12 12 6 10 12 15 17 14 14 12 10 8 8 6 7 10 8 9 9 13 11 12 14 15 13
3 4 2 5 4 5 6 5 3 3 4 3 3 3 3 3 8 7 11 13 14 15 13 10 9 13 15 15 17 19 18 16 14 7 6 3 3 13 13 9 6 9 9 9 9 10 11 13 10 12 14 17 15 13
4 3 3 4 4 4 4 4 4 4 7 5 5 4 4 4 14 17 17 14 11 13 15 16 16 17 16 12 12 15 17 17 14 11 4 3 9 12 13 10 11 11 11 13 12 12 12 13 13 13 12 13 13 11
3 3 3 4 3 3 5 10 11 12 6 5 7 4 4 3 6 15 21 11 14 15 14 16 16 15 16 16 13 8 8 11 9 10 10 7 9 10 12 12 11 12 11 13 12 13 14 14 15 15 13 12 12 8
3 5 2 3 2 1 1 2 3 3 2 2 2 3 2 3 3 4 13 14 15 16 15 14 11 10 8 7 7 7 7 6 8 13 12 12 14 16 14 10 9 12 15 15 13 13 14 16 17 16 13 9 13 14
2 3 4 3 2 2 2 2 2 3 3 3 2 2 2 3 3 3 5 9 8 8 8 7 5 5 5 6 6 5 3 8 11 9 11 13 13 12 14 17 14 12 13 11 10 13 14 16 16 15 13 11 11 11

GFSWCAN_925_spd_054.txt.gz
Wind_Speed
47 49 49 48 47 44 42 42 40 40 41 42 40 37 31 36 39 39 33 9 5 2 4 3 5 4 11 15 11 3 5 2 3 4 3 1 3 5 4 6 6 7 7 3 3 3 6 4 4 7 5 4 7 5
44 45 45 45 44 42 40 39 36 37 40 40 37 29 35 40 43 37 14 20 2 3 3 7 18 23 11 10 7 4 5 6 5 4 2 3 3 1 5 3 2 1 7 6 8 5 3 2 5 5 6 8 4 7
40 40 42 42 40 38 37 37 35 34 35 38 35 41 35 41 42 31 10 14 11 4 4 2 6 14 18 18 26 5 3 5 4 4 4 3 5 2 4 4 4 1 4 4 6 2 2 5 5 6 6 10 6 4
36 39 38 36 36 36 34 31 26 28 38 39 39 37 36 36 36 32 16 17 13 3 1 5 10 9 14 10 33 19 11 4 6 4 3 3 4 4 4 5 5 5 6 7 4 3 5 6 5 10 11 11 13 12
33 33 32 32 34 33 29 29 28 34 33 34 33 32 32 31 31 26 16 20 22 2 2 5 10 5 10 3 12 19 12 6 3 3 3 2 2 4 1 3 1 3 7 5 5 12 5 4 5 8 12 10 10 15
31 32 33 32 32 30 30 29 29 30 29 29 30 31 31 30 28 19 3 17 22 7 2 3 3 4 8 11 9 7 6 4 3 3 2 1 0 2 4 2 3 2 1 5 6 8 14 13 10 9 14 12 12 13
30 31 32 31 30 31 29 27 27 26 27 27 26 27 26 26 29 6 3 4 32 15 2 4 4 3 3 4 2 3 5 4 3 2 3 2 4 2 2 3 5 5 11 16 19 18 11 1 8 11 15 17 21 19
27 28 29 30 30 28 27 26 25 24 25 25 26 25 22 27 21 15 7 14 33 11 2 2 3 2 5 2 3 3 3 4 3 2 2 1 1 1 2 3 10 11 14 11 7 9 13 16 15 13 18 18 14 11
26 27 28 29 29 27 25 26 27 27 26 28 23 25 22 10 7 9 9 19 21 6 4 1 4 2 3 2 2 3 3 3 2 3 1 3 2 2 2 8 12 11 7 13 14 18 15 16 15 12 12 10 13 10
25 26 26 27 28 29 29 30 29 28 28 29 16 6 3 12 17 19 5 3 2 2 1 3 1 2 3 2 2 3 1 2 2 2 2 3 1 3 3 5 8 14 18 18 18 10 14 14 13 11 10 8 10 12
25 25 27 30 30 31 31 26 25 26 26 14 6 3 11 22 5 1 4 3 2 2 3 1 2 4 2 4 2 1 2 1 3 2 4 2 2 3 3 8 9 12 11 6 11 13 14 14 13 13 12 15 17 16
25 25 24 26 33 34 31 30 36 30 19 6 15 16 8 3 2 4 2 0 1 3 1 2 1 3 2 2 3 2 2 3 2 2 3 2 1 6 8 9 9 10 14 13 18 14 18 19 20 19 18 17 16 17
28 28 29 32 34 38 40 44 44 17 27 9 6 4 2 1 3 3 4 2 3 2 1 1 2 2 2 4 3 3 3 1 1 3 2 1 4 6 9 9 10 13 18 18 17 22 24 21 21 23 20 18 21 20
36 30 26 29 33 36 38 46 19 4 3 4 3 4 3 3 3 2 1 2 2 2 4 3 3 3 2 4 2 4 1 2 3 1 3 2 6 8 9 10 15 13 13 15 15 20 21 21 19 19 21 23 22 18
41 38 33 24 27 33 29 16 1 9 7 5 4 5 4 1 1 2 1 2 3 1 2 3 3 3 3 3 2 3 2 2 3 3 2 4 8 10 11 12 13 12 12 12 17 18 18 20 19 18 19 19 20 20
25 41 32 25 19 22 19 13 8 6 4 4 6 3 2 2 4 4 4 3 4 2 1 3 3 3 3 3 2 2 4 2 1 1 2 9 10 10 11 11 10 15 16 17 17 19 19 18 18 18 19 18 17 17
11 9 18 19 23 19 11 7 7 6 4 4 3 3 2 4 3 2 2 3 3 2 3 3 4 2 1 3 3 3 2 1 1 2 4 9 11 13 11 13 15 17 16 17 18 18 18 19 22 18 14 13 14 15
15 15 12 10 14 21 9 12 4 5 7 4 3 3 3 4 2 3 3 3 2 2 2 3 3 5 4 3 2 2 2 3 4 5 6 9 11 14 15 13 15 16 17 17 18 18 20 16 13 10 15 16 17 14
19 15 15 15 9 8 4 6 6 4 4 2 2 2 2 3 6 5 6 7 4 6 3 3 5 4 3 3 2 2 3 2 4 5 6 11 14 14 17 18 18 17 17 16 16 14 15 16 14 14 14 12 12 9
20 23 21 16 12 5 5 3 5 4 3 2 2 6 3 4 4 7 10 8 7 3 5 5 4 3 3 3 4 2 3 3 7 8 6 6 13 16 14 14 14 18 19 20 18 18 16 15 12 11 11 9 7 5
11 17 13 15 8 12 4 3 3 2 2 3 2 2 4 7 8 7 7 6 8 4 4 4 4 5 11 13 16 14 12 7 4 4 5 6 11 16 15 15 16 16 15 14 14 14 15 12 9 8 7 7 5 3
10 10 6 12 5 5 4 9 3 2 2 2 2 3 3 3 3 5 4 8 5 5 4 4 6 6 9 13 16 21 18 21 21 20 18 16 7 10 12 14 16 15 15 13 13 12 12 9 6 6 5 5 4 3
6 8 7 11 6 6 1 3 4 3 3 2 2 3 3 3 3 2 4 5 4 7 10 9 14 16 15 18 22 26 24 21 18 18 18 19 20 19 19 19 17 15 14 13 12 11 10 7 5 4 4 6 5 3
10 6 5 5 5 2 3 5 3 3 3 3 3 3 2 2 2 4 4 3 4 12 10 14 11 6 13 17 11 16 17 17 19 20 17 16 16 16 18 18 20 19 14 13 12 10 8 8 6 6 7 6 6 6
7 8 5 7 4 5 5 5 5 4 4 4 3 3 2 3 3 4 3 2 5 6 6 11 13 12 6 6 12 16 19 16 15 14 18 15 16 15 16 17 17 15 11 9 11 9 8 7 7 7 8 9 10 9
8 5 4 5 4 4 2 3 3 4 3 3 2 1 3 3 4 4 3 1 2 4 5 6 6 5 7 12 8 11 13 13 18 18 17 17 14 11 8 7 6 8 11 12 10 8 8 9 9 10 11 9 9 10
6 6 3 3 2 2 4 3 3 5 5 5 3 4 3 5 4 3 2 4 2 7 12 14 13 12 10 11 14 17 18 18 20 18 18 21 21 19 15 12 9 6 6 9 10 8 9 9 10 12 10 10 12 12
3 5 5 6 5 4 4 4 4 5 3 4 3 6 3 3 3 2 3 11 14 15 16 16 16 16 16 15 14 10 14 14 15 16 17 17 18 16 12 9 8 7 7 7 8 8 9 10 12 9 10 13 15 14
3 3 4 7 5 5 5 4 3 3 5 2 3 3 3 3 7 7 10 14 14 16 14 12 15 18 19 20 22 22 17 8 4 5 5 2 8 15 14 7 8 9 8 9 10 9 8 10 12 12 13 12 12 14
5 2 4 4 4 4 3 2 1 3 8 5 5 6 5 4 12 18 16 15 17 16 17 17 16 14 12 13 15 17 17 17 18 15 3 1 7 11 13 13 12 12 12 11 10 11 11 11 12 12 13 13 13 11
2 4 4 4 3 2 2 8 15 16 6 4 8 4 3 3 8 21 19 17 16 15 16 16 16 14 14 15 11 9 9 9 11 12 9 8 9 12 13 11 11 12 13 14 14 12 13 14 14 14 15 15 9 9
4 3 4 3 1 4 3 0 3 3 2 3 2 3 3 3 3 4 9 7 13 16 12 12 12 10 9 9 7 6 4 4 9 11 10 10 11 12 12 15 14 12 12 13 10 11 13 13 13 14 15 14 10 11
4 4 4 3 3 3 3 3 3 3 4 3 2 2 2 3 2 3 5 8 9 7 5 4 3 4 1 4 4 3 6 10 11 8 7 8 10 13 13 12 13 13 12 12 11 11 12 14 18 16 13 13 13 11

GFSWCAN_925_spd_057.txt.gz
Wind_Speed
23 16 49 53 53 53 52 50 50 48 48 48 46 43 38 40 38 38 20 13 6 2 2 2 1 6 5 13 6 3 5 1 3 3 4 4 3 5 3 6 8 8 7 4 3 3 6 6 4 8 6 3 6 6
47 52 52 51 50 48 46 44 43 43 44 45 42 40 34 35 45 45 16 12 2 2 2 5 8 10 3 2 8 2 2 5 5 4 1 3 1 2 3 3 1 2 6 6 8 6 2 2 4 1 4 8 5 7
42 45 45 45 43 41 40 39 40 41 41 42 41 33 27 27 41 41 27 18 4 3 4 2 4 2 3 10 8 5 2 2 3 3 4 2 3 4 3 4 1 3 3 4 4 3 0 2 2 3 4 6 6 5
39 38 38 38 37 37 37 38 38 38 41 41 38 41 37 36 40 33 27 19 14 2 1 4 5 4 6 8 15 19 4 7 5 2 3 3 3 5 5 5 1 5 6 6 2 1 4 4 3 5 9 9 11 9
31 33 33 33 33 33 33 34 36 36 37 35 34 33 30 37 35 28 22 22 21 2 1 4 9 6 8 9 14 21 10 6 3 3 2 4 3 4 1 3 6 6 7 6 6 12 5 5 7 6 9 9 9 16
30 31 30 30 30 30 29 30 32 35 34 36 32 31 41 41 33 24 3 16 24 22 3 3 3 4 7 1 6 8 6 3 3 4 2 2 1 3 4 4 3 3 2 4 6 12 8 13 8 5 9 9 10 12
28 28 28 28 26 21 21 24 34 38 37 37 38 36 39 37 32 4 3 14 24 14 2 4 4 2 3 2 2 3 4 3 3 3 2 3 3 3 3 2 1 4 7 11 16 17 9 3 6 9 12 16 19 19
28 27 25 25 30 31 30 32 39 42 42 42 38 36 35 30 24 3 3 27 31 9 2 2 3 4 4 1 2 2 3 2 4 2 1 1 1 2 2 1 4 9 12 9 7 7 11 16 14 13 17 18 15 13
27 28 28 28 28 30 31 34 37 39 38 37 37 34 26 7 3 2 13 32 11 4 4 3 1 3 3 2 1 3 1 2 2 2 2 3 1 1 4 5 9 9 5 10 13 16 16 17 15 14 14 13 16 11
26 27 27 27 26 26 28 31 34 35 38 36 30 6 3 9 15 24 6 3 3 1 2 3 1 2 1 1 1 3 1 3 3 2 3 3 3 2 3 3 7 12 18 17 17 10 12 13 14 12 12 10 11 11
25 26 26 26 27 28 31 33 37 39 36 10 3 2 6 24 9 2 3 2 2 3 3 3 4 1 1 1 2 1 3 0 3 2 3 2 2 3 2 7 8 9 9 8 10 12 11 16 15 14 12 15 18 17
26 26 26 29 32 31 33 39 43 19 9 10 8 21 12 4 2 5 3 3 4 4 2 3 3 3 2 2 2 3 3 3 2 3 3 3 0 6 8 10 9 7 10 13 17 16 15 16 18 18 17 17 17 19
23 24 22 22 25 26 27 24 29 9 16 7 2 4 2 2 4 5 5 2 1 1 1 2 2 2 2 3 3 3 4 1 1 2 2 2 3 7 9 10 11 11 15 15 16 20 22 21 20 23 19 18 21 19
26 28 29 29 27 30 27 23 27 20 10 2 3 5 3 3 2 2 1 3 1 1 2 3 3 2 0 3 1 4 0 3 3 3 5 2 7 9 9 9 13 12 12 14 14 19 20 21 19 19 20 22 23 18
24 25 25 26 29 31 30 32 29 2 2 4 3 4 2 1 0 1 1 2 2 1 1 2 3 3 3 3 2 3 2 3 3 3 1 3 8 11 10 11 12 12 12 12 16 17 18 20 19 17 17 19 22 22
27 24 15 23 28 28 26 26 5 4 3 3 6 3 3 2 4 3 3 2 3 1 1 3 3 3 3 3 2 2 3 1 1 1 2 7 10 10 11 10 11 14 16 16 17 17 18 18 18 17 19 20 20 20
20 7 13 19 25 25 17 6 4 4 4 4 3 3 2 3 3 3 4 4 3 2 2 3 4 1 1 3 2 3 2 2 2 3 4 8 11 10 11 10 14 16 15 16 16 16 17 18 22 19 16 14 15 15
14 13 16 22 23 12 5 7 3 4 6 4 4 4 5 5 3 5 4 5 3 2 2 3 3 6 4 3 2 2 2 3 4 5 6 8 10 13 16 12 16 17 16 15 16 17 18 17 13 12 14 15 17 14
20 15 16 14 7 8 4 7 7 4 6 2 2 2 4 4 7 5 6 6 4 5 3 3 5 3 3 3 3 4 3 3 4 5 7 11 14 16 17 18 18 17 17 17 16 14 15 14 12 13 13 14 11 11
22 27 26 17 11 5 4 3 4 4 3 2 3 7 4 3 4 6 8 7 6 4 5 5 4 3 3 4 4 3 3 3 6 8 7 7 14 17 14 14 14 18 19 19 19 18 17 17 16 14 11 9 9 7
17 20 16 17 10 12 4 2 3 2 3 3 2 2 4 6 10 8 7 7 8 4 4 4 4 5 11 12 14 13 13 11 7 5 4 7 14 17 17 18 18 18 16 14 14 15 16 13 11 10 8 7 4 3
9 11 6 11 5 4 4 9 2 2 2 2 2 2 3 3 4 6 4 8 5 4 4 4 6 6 8 14 16 21 18 22 22 21 20 17 8 11 13 15 17 16 16 14 14 13 12 10 8 7 6 5 3 2
6 8 8 11 6 5 1 3 4 3 3 2 2 3 3 3 3 3 4 5 4 7 11 8 11 14 15 18 23 27 25 23 19 18 19 20 21 20 21 21 19 16 15 15 14 13 11 8 7 6 5 4 3 1
10 6 6 5 6 2 2 4 3 3 3 3 3 3 3 3 2 4 4 3 4 11 10 14 12 7 13 18 10 17 18 18 21 21 18 18 17 18 20 20 22 20 16 12 12 11 9 8 7 7 7 6 5 5
7 8 6 7 4 5 5 4 4 4 4 4 3 3 3 3 3 4 3 3 5 6 6 12 13 11 7 7 13 17 21 17 16 15 18 17 17 17 17 19 20 19 15 13 12 10 9 9 9 10 10 8 8 8
8 6 5 4 4 4 2 4 4 4 3 4 3 2 3 3 4 4 2 2 3 4 5 6 6 6 8 13 8 11 13 15 21 22 19 19 17 14 12 10 8 11 14 13 12 10 10 9 9 11 10 8 9 11
6 6 3 3 2 2 4 3 3 5 5 5 3 4 3 5 4 2 2 5 3 8 13 15 13 12 10 11 16 19 19 20 22 21 19 21 20 19 17 14 11 8 8 9 9 8 9 9 11 10 9 11 12 13
3 5 5 6 5 4 4 4 5 5 3 4 3 6 4 2 2 2 2 8 14 16 18 19 18 19 18 14 14 16 18 18 18 17 17 19 19 15 12 10 8 7 6 7 9 9 8 8 8 11 11 12 12 11
3 4 4 7 5 5 5 4 3 3 5 2 3 3 3 3 5 5 8 12 13 15 15 16 17 19 22 23 21 18 13 6 5 6 5 3 9 14 12 11 10 9 10 10 10 7 7 9 10 11 11 12 12 11
4 2 4 4 5 5 3 3 2 3 7 4 5 6 4 4 12 14 16 16 17 16 14 13 11 11 15 15 15 17 17 18 18 14 4 1 5 9 12 11 12 12 12 12 12 11 11 12 13 13 12 12 11 10
2 3 4 4 4 1 6 12 17 13 6 5 7 4 3 3 9 17 16 15 15 13 14 15 15 13 12 11 10 8 6 8 9 8 6 5 6 7 8 12 13 12 11 13 11 10 11 12 12 14 14 14 12 9
4 3 4 3 2 1 1 2 3 3 2 3 3 2 3 3 3 3 6 5 9 11 10 9 9 8 7 6 6 6 5 6 9 9 7 6 6 8 11 10 11 11 11 10 10 10 11 12 15 15 13 12 12 12
3 3 4 3 2 2 2 2 3 2 3 2 1 2 1 3 3 2 5 8 9 6 3 2 1 1 1 2 4 5 7 9 7 5 4 7 9 11 12 13 13 12 12 11 11 11 11 13 13 12 13 13 12 13

GFSWCAN_925_spd_060.txt.gz
Wind_Speed
13 12 16 27 35 27 39 62 60 59 57 57 58 54 49 47 47 37 27 20 11 2 4 4 2 8 8 13 6 3 7 1 3 5 4 4 3 6 4 4 6 7 7 3 3 2 6 8 4 9 7 0 6 7
11 26 17 34 29 49 58 56 55 55 55 55 51 46 43 44 47 31 11 34 22 2 3 4 7 5 22 18 10 3 5 6 6 4 2 3 1 1 4 4 2 3 5 6 9 7 3 6 4 2 4 5 7 8
39 36 41 48 52 50 50 50 49 48 48 48 47 42 40 45 45 30 24 22 3 2 3 2 4 4 8 11 22 5 3 3 2 3 4 3 3 4 4 5 3 4 4 3 2 4 5 4 2 2 2 4 5 5
39 40 41 42 43 43 43 42 42 42 43 42 40 38 39 44 45 30 25 33 3 3 2 4 5 3 5 10 12 9 4 5 5 3 2 3 3 3 3 4 5 4 7 6 3 4 6 6 4 4 5 6 10 9
35 36 36 36 36 37 38 39 39 39 39 39 40 38 39 41 42 32 28 20 24 2 2 3 6 1 3 7 12 14 8 4 2 3 2 3 2 4 0 1 2 5 8 6 9 9 6 5 9 8 8 6 7 15
27 29 30 30 32 34 35 36 37 38 40 41 41 39 39 40 40 21 5 21 28 17 3 4 4 1 2 6 7 6 6 3 3 4 3 2 1 3 4 4 5 5 3 1 2 7 4 8 7 4 9 7 8 9
25 26 27 29 31 33 34 36 38 40 42 40 40 38 38 40 34 8 4 19 24 17 2 4 5 2 2 3 1 1 2 2 3 3 2 3 1 3 2 3 3 5 4 4 11 11 6 4 6 8 13 14 19 19
23 22 21 22 25 29 31 35 36 37 34 33 33 30 31 37 27 8 15 35 33 8 1 2 3 4 4 2 1 2 2 2 3 3 2 3 2 2 3 1 4 4 8 8 7 6 6 14 14 13 15 17 15 13
22 26 26 26 22 25 37 36 31 28 30 29 37 36 33 13 2 3 29 35 18 6 5 2 2 3 3 2 2 3 2 2 1 2 2 3 2 5 5 3 6 5 1 9 9 11 11 16 13 12 13 12 17 14
28 30 28 27 33 36 36 35 30 30 42 47 39 6 3 4 25 37 8 2 2 1 2 3 2 1 2 2 2 3 3 2 2 2 3 2 3 2 5 6 10 9 11 14 15 9 12 12 12 11 10 10 13 13
22 23 24 27 32 35 42 49 50 49 40 2 3 3 17 27 4 3 3 3 2 2 2 3 6 3 0 3 2 2 3 0 3 2 4 1 3 3 6 5 7 13 10 3 4 4 7 18 16 14 12 11 15 15
19 20 22 25 27 28 33 37 29 6 2 5 15 23 10 3 2 4 3 2 4 5 3 3 3 3 2 3 3 1 2 1 3 3 3 2 2 3 6 8 9 8 8 9 10 14 14 15 18 15 14 14 16 18
18 17 18 22 23 27 36 18 14 10 14 6 5 3 2 1 3 6 7 3 2 3 3 2 1 3 2 2 4 2 1 1 2 1 1 2 3 5 8 9 11 10 12 14 15 19 21 21 22 21 17 18 21 18
19 18 17 17 18 20 20 8 7 11 11 2 4 5 1 2 1 0 2 3 1 1 3 3 2 2 2 3 2 3 1 2 2 1 2 1 5 7 8 9 13 11 11 13 13 17 18 19 19 19 20 21 22 18
18 16 19 19 19 17 14 10 3 4 6 2 2 3 3 1 1 2 2 2 1 2 2 3 2 2 2 4 2 2 2 2 2 1 2 2 6 8 9 9 10 10 10 11 14 14 17 20 21 19 18 19 21 23
19 21 15 21 22 18 14 10 4 4 2 2 6 3 3 3 4 3 3 2 4 1 0 3 3 3 4 2 3 4 2 3 2 2 1 5 8 8 10 10 10 11 12 14 16 18 19 19 18 18 18 19 19 20
12 5 21 24 21 17 16 5 4 2 3 4 4 5 4 3 5 3 4 4 4 2 2 2 4 4 2 3 3 4 3 3 3 2 4 6 9 9 10 11 12 15 16 17 19 19 19 19 22 20 17 14 15 16
7 19 32 33 33 23 5 4 2 3 6 4 4 5 6 6 4 5 5 6 3 2 2 3 3 5 4 3 3 3 2 3 5 5 5 7 9 10 13 12 17 18 18 19 19 19 19 17 15 13 15 14 17 14
20 29 37 34 18 7 3 3 4 4 6 3 3 5 4 3 8 7 7 7 5 5 3 3 6 4 3 3 3 5 4 3 4 6 8 12 15 16 19 22 21 20 20 19 19 17 18 19 15 14 13 12 12 9
25 21 19 13 8 3 4 3 4 4 4 3 3 8 4 4 6 7 10 8 8 4 6 5 4 3 3 4 4 5 3 3 5 8 8 8 16 21 19 18 17 20 20 21 20 19 18 19 17 15 14 11 9 7
11 10 9 10 5 10 4 3 3 2 3 4 3 2 4 7 10 8 7 7 7 4 4 4 4 5 11 11 13 12 13 12 9 6 5 7 15 19 20 20 21 20 18 16 15 16 17 14 12 12 11 10 6 4
7 10 5 9 5 4 4 9 2 2 3 2 2 3 3 3 5 7 5 8 4 5 4 4 6 5 8 13 15 21 18 23 23 22 21 19 9 11 15 17 19 18 18 16 16 15 14 13 11 11 10 8 5 3
7 8 8 10 6 5 2 5 4 4 3 2 2 3 4 3 4 3 4 5 4 7 11 7 10 13 14 18 24 28 25 23 19 19 20 21 23 22 22 23 20 18 16 16 16 16 15 11 11 10 9 8 7 6
10 6 5 5 6 2 2 4 3 3 3 2 2 3 4 3 2 4 4 3 4 11 9 12 11 7 14 19 10 18 19 19 22 23 20 19 19 19 21 21 22 22 17 14 15 14 14 13 11 11 10 9 9 10
7 8 6 7 4 5 6 4 5 4 4 4 3 4 3 2 3 3 3 3 5 6 6 11 13 11 7 7 13 18 21 18 18 16 19 17 17 18 19 20 23 23 18 18 17 14 13 11 12 12 10 10 11 12
8 6 5 5 4 4 3 4 4 5 4 4 5 2 3 3 4 4 2 2 3 4 5 6 6 6 8 13 8 11 14 16 21 23 18 20 18 16 12 10 8 12 14 13 11 11 10 10 11 11 10 9 12 12
7 6 2 3 2 3 4 3 2 4 5 5 3 3 3 5 4 2 2 5 3 7 11 12 12 12 11 13 16 20 22 23 24 21 18 21 21 20 18 15 11 8 7 8 9 9 9 8 9 9 10 12 12 12
4 4 4 6 5 4 4 4 5 5 3 4 3 5 4 3 2 2 2 7 13 14 17 17 15 16 18 18 17 18 19 18 17 16 19 20 17 15 12 10 8 7 7 8 9 9 8 8 8 11 13 13 14 12
4 3 4 6 5 5 5 4 3 4 5 1 3 2 2 3 4 4 7 13 14 16 17 19 19 21 21 20 20 18 10 7 6 6 5 2 6 15 13 12 12 11 11 11 9 7 7 9 11 12 13 14 14 13
4 2 5 4 5 5 3 3 2 3 5 3 4 4 3 4 12 12 14 13 13 14 13 12 11 12 15 17 17 18 18 18 17 12 4 2 4 7 8 12 13 12 12 12 12 11 10 10 10 10 12 12 12 12
2 3 5 4 4 2 3 6 14 13 6 5 7 4 3 2 7 16 14 12 12 12 13 15 14 12 12 10 9 9 9 11 11 9 6 4 5 6 8 10 10 10 11 10 10 11 11 11 12 14 13 13 12 12
4 4 4 4 2 2 1 2 2 3 2 3 3 2 3 3 2 3 4 3 7 10 8 7 8 8 7 8 8 8 7 8 8 6 5 6 6 7 8 9 10 10 10 10 10 10 10 11 12 12 12 13 13 13
3 3 4 3 3 2 2 3 3 2 3 2 1 2 1 3 3 3 4 6 6 4 2 2 2 3 4 4 5 6 7 7 5 4 4 5 7 10 12 10 9 10 9 8 9 10 10 10 10 11 11 12 13 13

GFSWCAN_925_spd_063.txt.gz
Wind_Speed
17 15 8 6 23 34 40 47 48 43 31 65 67 64 60 58 59 43 20 24 7 2 4 3 1 12 14 11 8 4 5 4 2 4 3 3 3 8 5 2 4 6 8 4 3 2 8 8 5 9 7 3 4 9
23 8 7 12 23 33 37 41 40 39 53 63 63 61 57 57 54 39 15 22 15 2 2 5 9 9 28 22 8 9 7 6 7 4 4 3 2 1 7 13 2 4 5 5 8 6 2 10 2 3 3 4 5 11
30 27 19 22 27 27 29 33 33 54 61 60 57 55 52 53 49 30 21 21 4 3 3 3 6 6 15 22 35 5 2 4 4 2 4 3 4 4 4 5 4 4 4 3 2 4 6 5 3 3 3 4 4 7
40 41 36 27 24 26 35 50 56 57 55 53 51 47 47 48 41 28 16 20 14 3 1 5 7 3 11 19 32 12 7 6 4 2 2 2 3 4 4 3 5 3 8 6 3 5 5 8 8 3 3 3 7 9
34 38 39 42 45 47 48 49 49 50 49 48 45 46 45 42 32 25 11 22 31 2 2 3 5 1 7 20 18 21 9 5 2 2 2 3 2 3 0 1 3 5 6 5 6 8 6 5 5 9 10 10 12 15
28 31 35 39 41 43 44 46 47 47 43 45 45 48 47 39 35 19 2 13 27 16 4 2 2 2 3 14 11 7 5 2 2 3 3 2 1 3 4 5 4 4 1 2 3 2 3 3 5 6 7 10 9 12
24 26 29 31 34 38 42 43 43 43 41 43 43 45 45 39 30 4 4 9 33 14 3 3 3 3 1 4 2 2 2 1 2 3 3 3 3 3 2 4 3 1 0 1 4 5 2 3 3 8 12 12 17 18
21 24 26 28 30 32 35 38 39 41 40 40 38 37 37 34 23 5 4 27 32 8 1 3 3 2 1 2 3 1 3 2 2 2 1 3 2 1 4 4 3 3 5 4 3 2 4 12 12 13 13 14 16 14
15 18 22 25 27 29 31 33 34 37 39 38 38 37 36 16 4 4 30 34 17 6 4 3 2 3 2 3 2 2 2 1 0 3 3 5 3 6 4 6 8 9 4 8 7 6 10 13 14 12 14 12 15 14
18 18 21 25 28 30 29 31 32 33 36 36 36 9 4 12 13 25 13 5 4 3 2 2 1 2 2 2 1 2 2 1 2 4 5 3 3 2 2 3 8 9 13 15 8 5 5 11 13 14 14 12 13 13
23 27 23 31 28 30 28 28 28 28 32 8 5 2 8 22 8 2 3 3 3 3 3 2 4 3 2 3 3 1 2 1 2 3 5 3 2 1 1 2 5 7 10 5 3 8 11 9 9 10 13 15 19 22
21 26 29 31 31 26 24 23 28 13 8 5 13 12 8 3 3 4 3 1 2 5 2 4 1 2 2 2 3 1 2 1 4 2 3 2 1 3 3 6 7 7 7 8 13 13 14 15 15 13 13 14 20 26
20 22 27 38 37 29 31 17 13 16 21 6 4 3 2 1 2 4 5 2 3 4 4 3 3 3 2 3 3 2 2 3 3 2 1 2 1 5 6 7 9 10 13 14 14 18 21 20 20 19 16 18 23 23
22 23 22 21 15 20 16 20 11 7 7 3 2 3 2 3 2 2 2 4 2 2 5 3 3 3 2 2 2 4 1 1 1 1 2 2 4 6 7 8 10 12 13 13 13 15 16 19 19 21 20 20 21 19
22 20 19 18 12 4 6 10 14 16 5 4 3 2 2 1 2 2 2 3 1 2 3 3 3 2 2 3 1 3 2 1 2 1 2 1 4 7 9 9 10 11 10 11 13 13 17 20 20 19 17 17 20 21
23 20 16 18 16 10 5 8 12 8 3 2 5 3 4 4 4 4 4 2 3 1 2 2 3 3 3 3 2 3 2 2 2 2 2 2 7 8 9 10 11 12 13 15 17 19 20 19 19 19 18 17 18 19
18 5 19 19 20 16 10 7 5 4 4 4 4 5 4 3 4 3 3 3 3 1 2 3 3 3 3 3 3 3 3 3 3 2 4 6 8 10 10 12 12 17 18 19 21 21 21 21 21 21 18 15 16 17
6 26 26 23 17 16 7 5 2 3 5 5 3 5 5 5 4 6 5 6 1 2 2 4 3 6 4 3 3 3 3 4 5 6 6 8 10 11 16 15 20 22 22 23 23 22 21 19 18 16 17 16 16 14
21 27 24 17 9 6 2 2 2 4 5 3 3 4 2 3 8 8 8 8 7 6 4 4 6 4 4 4 3 5 6 3 4 7 10 16 19 19 22 24 25 24 23 22 21 19 20 18 15 13 12 11 12 9
32 30 21 14 8 3 3 2 3 4 4 2 2 7 4 4 6 6 10 9 8 4 6 5 4 3 3 4 4 6 2 4 6 10 10 9 18 23 21 20 19 21 22 22 22 19 19 19 16 14 12 10 9 8
23 19 17 14 6 10 3 2 3 3 4 3 2 3 4 6 11 8 7 8 7 5 4 5 5 6 10 10 12 10 12 13 9 8 8 9 15 21 21 21 22 22 20 17 17 18 18 16 12 12 12 11 9 7
8 12 6 5 3 3 3 8 2 2 3 3 2 3 3 3 4 7 5 7 5 5 4 4 6 6 8 12 14 20 19 25 24 23 22 19 10 11 16 18 20 18 19 17 16 15 15 12 11 11 12 10 9 9
12 5 5 7 5 5 3 7 4 4 3 2 2 4 4 3 4 4 4 5 4 7 10 7 11 14 14 17 24 27 24 23 19 19 20 21 22 21 21 21 19 17 16 16 14 14 13 12 14 13 12 12 11 12
7 6 5 4 6 2 2 4 3 3 3 3 3 4 4 3 2 4 4 3 4 10 8 12 10 7 12 17 11 17 18 20 23 23 19 19 19 19 21 20 21 19 15 12 14 15 15 15 14 14 13 13 14 13
7 8 5 7 4 6 6 5 5 4 4 5 4 4 3 3 3 4 3 3 6 6 7 11 13 11 8 8 13 18 20 18 17 16 17 17 17 18 18 19 19 17 15 16 15 14 13 13 14 13 12 12 12 13
8 6 5 5 4 5 3 4 5 6 4 4 4 2 2 3 4 4 2 2 3 5 6 7 6 6 8 14 9 13 14 14 18 21 16 15 13 12 11 10 9 11 14 12 11 11 10 10 10 11 11 11 11 11
7 5 3 4 2 3 4 3 3 4 5 5 3 3 3 5 3 2 2 6 3 6 9 12 12 13 13 14 15 16 19 20 20 19 16 18 19 18 15 12 9 7 7 9 8 7 6 7 7 9 10 11 11 11
4 4 5 5 5 4 4 4 4 4 3 3 3 5 4 3 2 2 2 5 8 9 13 15 16 17 17 17 17 17 18 18 20 20 21 20 17 16 14 12 9 7 7 7 7 7 7 7 8 9 10 12 13 12
4 3 4 6 5 5 5 4 3 3 4 1 3 2 2 2 4 3 6 10 12 15 15 16 16 18 20 19 18 15 10 4 4 5 5 3 5 10 11 11 10 10 10 10 8 6 8 8 8 9 10 10 11 11
4 2 4 4 5 5 3 2 2 3 4 3 4 4 3 4 9 9 12 12 13 14 13 12 11 11 14 16 16 17 16 14 12 9 4 2 3 4 7 8 8 9 10 9 9 8 8 8 8 10 10 10 11 11
2 3 5 4 4 1 3 1 7 10 5 5 6 4 3 2 6 13 12 11 12 12 13 13 12 10 9 8 8 8 8 9 8 7 7 6 5 5 7 8 9 9 9 8 9 9 8 8 10 10 10 11 11 12
4 4 4 4 1 2 2 3 2 3 3 3 2 2 3 3 2 2 2 4 7 9 10 9 9 9 8 8 8 7 7 6 6 6 6 5 6 8 10 9 8 8 8 7 7 7 7 8 8 9 9 10 11 12
3 3 4 4 3 2 3 3 3 2 3 2 2 1 1 3 3 3 3 4 4 5 5 5 5 6 5 4 5 5 5 5 3 2 3 4 7 10 9 8 8 7 7 7 7 7 7 7 8 9 9 10 11 12

GFSWCAN_925_spd_069.txt.gz
Wind_Speed
39 40 33 29 22 29 37 37 38 43 47 51 50 51 51 55 53 51 29 46 25 10 8 17 13 14 19 18 17 20 16 11 11 12 9 7 6 8 9 14 4 10 9 5 8 8 12 10 9 11 12 12 6 7
39 25 23 22 24 27 37 43 40 43 44 47 53 52 52 53 63 48 20 43 30 9 6 5 18 10 29 27 17 16 18 19 10 10 7 9 5 4 8 9 18 6 6 5 7 5 7 14 10 14 6 7 7 7
32 16 19 18 14 11 13 37 47 43 43 47 51 52 53 51 66 35 29 33 24 6 5 6 10 8 15 23 23 13 13 17 17 14 7 5 5 7 5 8 6 11 16 8 11 6 14 9 11 10 6 8 6 4
27 12 18 16 20 21 31 39 41 39 44 47 45 47 54 65 48 29 31 28 24 5 3 5 11 8 12 17 26 27 19 24 13 9 6 4 5 9 8 9 10 10 6 11 18 19 19 13 10 11 11 10 9 8
31 10 17 19 25 30 33 36 41 42 41 41 42 54 58 51 36 27 25 26 23 7 4 8 1 13 17 19 24 23 22 18 6 7 5 6 7 4 2 4 9 9 11 9 8 9 8 14 4 7 10 11 10 9
30 15 13 17 23 26 31 33 37 38 42 42 48 60 55 43 41 33 4 11 17 8 2 4 1 7 16 21 17 22 22 11 10 10 8 8 13 9 4 8 14 17 15 13 12 3 4 3 3 5 6 7 7 9
29 34 22 18 22 24 28 28 27 34 40 47 58 58 47 39 30 7 4 15 15 10 2 2 2 2 13 9 11 12 14 7 6 9 5 9 9 5 4 9 10 9 13 10 3 3 7 5 2 3 3 2 1 5
32 33 40 43 43 43 44 50 53 57 60 60 57 50 36 34 23 10 15 31 23 7 2 2 3 2 10 2 6 10 10 7 5 5 3 7 6 4 6 14 16 16 8 5 6 5 6 1 1 2 3 2 5 6
32 36 40 44 47 50 54 58 58 57 56 51 47 42 26 9 4 7 23 19 10 3 5 3 3 3 4 7 3 7 6 8 2 7 5 5 6 7 7 13 14 11 8 9 5 3 3 1 3 3 3 4 6 8
25 33 36 40 48 51 53 53 52 51 51 43 27 7 3 7 37 28 1 3 4 4 3 3 3 3 4 3 3 3 3 4 5 5 5 5 9 9 9 3 7 3 7 5 6 4 2 3 4 5 6 7 7 9
28 30 34 37 38 42 45 46 47 42 26 6 3 4 25 20 4 2 3 3 3 3 3 2 2 2 2 6 4 3 3 3 5 3 5 4 5 3 12 2 4 4 5 4 6 6 6 6 7 9 11 11 12 15
27 30 32 32 34 36 37 39 24 10 7 7 16 19 9 2 1 4 5 4 4 5 5 6 4 2 5 4 4 4 3 2 3 4 3 3 2 7 6 4 6 7 8 11 12 14 14 15 14 14 13 14 19 23
28 28 27 28 29 31 33 15 20 22 15 5 3 4 3 3 5 5 7 4 3 4 4 4 3 3 1 3 3 3 3 3 6 2 2 2 2 5 6 7 10 11 14 16 18 20 21 19 22 19 15 21 23 23
26 25 25 24 23 24 19 8 7 3 4 3 2 3 3 2 1 3 4 3 3 2 7 6 2 1 1 2 3 4 3 4 3 4 3 2 3 4 6 7 10 12 13 15 15 16 17 18 20 23 22 22 24 23
28 22 20 21 17 15 18 13 11 4 4 4 4 4 5 3 3 4 3 3 4 2 6 4 3 3 4 4 3 3 2 3 5 3 2 2 6 7 9 9 10 11 12 14 14 15 17 22 23 24 24 25 25 24
26 20 17 12 8 6 7 12 7 2 3 3 5 3 7 1 6 6 8 4 6 5 1 3 3 3 3 2 1 4 2 4 3 3 2 6 9 10 12 12 11 12 14 16 20 23 24 23 24 26 26 25 23 23
9 4 9 7 9 15 12 5 5 5 5 4 4 8 6 3 5 5 6 7 6 4 3 1 4 4 1 3 3 5 4 4 5 6 5 10 12 12 11 13 13 19 21 23 25 25 26 25 25 26 23 22 23 22
6 7 6 10 8 10 8 10 4 5 6 6 4 8 8 7 8 7 6 7 4 3 4 4 3 5 5 3 3 3 5 6 8 7 9 11 13 13 17 16 22 24 25 25 25 25 24 22 22 20 21 20 20 18
13 10 8 13 10 6 4 5 5 4 7 3 4 6 4 5 8 7 7 8 7 7 4 4 6 4 4 4 5 5 6 6 8 9 11 17 20 19 22 24 25 25 25 25 24 22 23 23 20 19 17 16 16 14
13 10 6 12 10 5 4 3 4 4 3 2 2 6 5 5 7 7 9 9 8 4 6 5 5 5 4 5 5 5 6 7 8 10 10 10 19 21 21 20 20 23 23 24 23 22 22 22 21 19 18 16 15 14
16 12 12 13 8 8 3 2 3 3 4 3 3 2 3 6 10 9 7 8 7 4 4 5 6 6 9 11 12 14 12 11 9 9 10 10 16 20 20 21 22 22 21 20 19 20 20 19 17 16 15 15 13 12
5 7 4 6 3 3 3 6 3 2 3 4 3 3 3 4 5 6 6 8 5 5 4 5 7 6 9 12 14 20 20 24 23 22 20 20 11 11 16 19 20 19 20 19 18 17 17 15 14 13 13 12 11 12
6 4 5 7 4 4 3 3 3 4 2 3 2 3 4 3 4 3 4 5 5 8 10 9 13 16 16 20 23 26 22 22 18 19 20 21 22 22 21 21 19 18 17 17 16 15 15 13 13 12 11 10 10 10
7 6 5 4 6 4 2 4 3 3 3 3 3 4 4 4 3 4 5 4 6 10 9 10 9 8 14 17 12 17 19 19 22 22 19 19 18 20 20 20 19 18 16 14 14 13 13 12 11 11 11 11 11 10
6 8 6 6 5 4 4 3 5 4 5 5 3 4 3 2 3 4 3 3 6 7 7 12 13 10 9 10 15 19 19 19 18 16 18 17 17 17 17 17 17 15 12 12 12 11 11 10 11 11 11 11 9 8
8 10 6 7 4 5 5 3 5 6 4 4 5 3 2 3 4 5 3 5 6 6 7 7 7 8 9 15 9 14 15 14 16 18 16 14 13 11 10 9 10 12 11 10 9 9 9 9 9 8 7 7 8 7
6 6 5 5 3 3 4 5 5 5 5 5 3 3 2 4 4 3 4 6 5 9 11 13 14 15 13 14 15 15 15 16 16 16 14 15 15 15 12 11 10 9 8 9 8 8 7 6 5 5 5 6 6 6
5 6 6 6 5 7 4 4 5 5 4 4 2 5 3 4 3 3 4 8 10 11 13 14 14 14 14 13 12 11 12 12 13 14 16 16 15 14 13 12 11 10 8 8 6 5 5 5 5 5 5 5 4 5
5 3 4 7 6 6 7 5 4 4 4 4 2 3 3 3 4 8 7 8 9 10 12 12 12 11 12 12 11 9 7 6 6 6 7 5 7 9 8 7 6 6 5 4 6 5 6 5 4 4 4 4 4 4
4 4 4 6 5 6 5 5 5 4 4 6 6 9 9 8 8 7 8 8 8 10 10 9 7 7 8 8 9 10 11 10 9 6 4 5 6 4 4 5 4 4 4 3 3 3 4 3 2 3 4 3 4 4
2 3 5 5 4 6 5 8 10 10 8 9 7 8 6 4 5 8 8 8 8 8 8 8 7 6 6 6 5 5 7 7 8 9 9 8 6 4 3 3 3 3 3 3 3 2 3 2 2 3 3 4 4 5
4 4 4 4 4 4 1 1 2 3 2 4 4 3 3 3 3 3 2 3 6 6 5 6 6 6 6 7 7 8 8 7 5 6 6 5 5 4 4 3 4 3 2 2 2 3 3 3 4 4 5 5 6 7
6 7 7 4 4 3 3 2 2 3 2 2 2 1 2 2 2 3 2 1 3 6 6 5 6 6 6 6 6 5 5 4 4 4 3 3 4 4 3 3 3 3 3 3 3 4 4 5 5 6 6 7 8 9

GFSWCAN_925_spd_072.txt.gz
Wind_Speed
39 42 44 44 35 35 38 41 43 47 57 52 53 52 51 50 52 48 33 41 25 9 8 17 19 13 12 17 14 11 12 14 10 13 9 6 7 11 12 9 5 6 10 6 6 6 15 5 4 19 8 2 7 6
39 40 35 29 32 32 36 38 34 33 36 51 51 50 48 46 49 47 11 41 37 10 4 9 16 14 23 21 11 11 19 11 6 10 9 6 4 6 9 9 10 5 9 4 5 3 2 6 5 5 5 2 4 6
35 30 23 25 27 25 28 33 39 37 36 44 48 46 46 46 45 41 16 38 30 5 1 3 12 15 16 22 27 10 11 14 16 11 4 4 5 5 5 10 10 16 15 2 6 7 11 5 3 3 5 5 4 4
31 18 19 20 18 22 15 26 40 40 37 41 49 44 47 47 48 43 21 32 17 4 3 6 8 8 21 15 16 12 11 8 11 11 11 4 4 9 8 6 10 6 12 14 13 15 7 15 11 6 5 6 5 5
24 12 13 17 16 20 20 34 38 37 38 40 46 45 45 48 47 36 23 35 25 2 4 3 6 14 12 14 14 16 12 8 2 4 5 5 6 5 5 8 9 10 9 5 2 5 4 3 5 5 4 6 5 3
16 8 11 14 21 18 26 31 34 37 38 38 45 43 45 43 47 31 4 27 30 5 3 5 5 7 14 18 11 12 11 5 5 4 6 5 11 7 2 5 10 12 10 10 4 2 4 4 2 6 5 7 8 5
15 7 12 15 19 29 31 32 33 36 39 42 44 45 43 46 38 5 5 19 25 11 2 2 3 2 9 9 8 4 7 2 4 4 3 9 9 7 2 7 10 11 12 13 7 7 2 4 3 4 3 6 6 5
27 14 15 21 19 25 30 34 33 40 54 50 53 50 36 33 27 14 27 34 23 6 1 2 1 2 7 4 4 3 5 3 6 2 6 5 5 4 5 12 14 15 12 3 7 5 4 6 3 5 4 2 5 6
34 38 41 39 29 37 38 56 57 56 58 54 47 41 33 17 5 7 23 17 3 3 3 2 3 2 6 3 3 4 3 1 3 7 7 6 4 5 5 10 10 11 12 11 9 7 6 3 6 5 5 6 8 7
35 41 45 47 50 54 57 53 54 55 48 33 21 7 4 5 31 22 4 2 2 2 1 2 2 2 3 1 3 5 4 5 5 4 4 2 4 7 15 10 8 8 11 10 10 6 6 7 7 7 9 8 8 9
34 37 41 45 49 49 45 40 32 27 23 11 4 4 27 26 2 1 3 3 4 4 5 3 5 4 3 1 3 4 4 3 3 4 6 3 3 4 11 12 9 9 10 11 12 11 8 11 10 12 15 16 15 18
29 31 35 38 41 31 21 16 13 7 5 9 16 12 6 2 3 3 3 1 3 4 5 5 3 2 3 4 6 3 3 2 4 3 3 3 2 6 8 12 13 12 14 16 17 17 18 17 16 15 14 14 19 22
24 26 30 29 21 23 28 26 23 21 22 12 3 4 1 1 3 5 6 3 3 4 4 3 3 1 1 4 3 3 3 2 5 2 3 3 3 5 6 8 12 14 15 15 16 19 22 21 23 22 16 22 25 25
22 21 21 16 12 17 18 19 22 11 6 4 3 4 2 3 5 3 4 3 2 2 8 5 4 3 3 2 2 2 1 4 3 3 3 3 5 6 8 8 11 11 12 14 15 15 18 18 21 26 24 24 26 24
23 20 15 7 5 3 10 9 12 10 5 5 4 5 6 3 4 5 5 2 5 5 4 2 1 1 1 0 1 3 2 4 5 3 2 3 7 9 10 9 11 12 11 13 13 15 17 24 24 26 27 28 28 28
19 14 9 6 1 6 9 4 6 6 4 4 7 4 7 5 7 6 7 5 6 6 3 2 1 2 1 2 3 6 3 5 3 3 4 6 9 11 11 12 12 12 14 15 20 22 24 25 25 28 29 28 27 26
7 4 2 3 5 9 3 0 6 5 4 4 4 8 7 4 5 4 5 6 5 3 2 2 4 3 2 4 4 5 4 5 6 6 7 10 10 12 12 14 13 18 19 22 23 24 25 26 28 28 22 25 26 25
6 7 10 4 4 5 5 9 4 5 7 5 4 7 8 6 7 6 6 6 5 3 3 3 4 7 6 4 4 3 6 7 7 8 9 10 11 12 16 16 21 23 23 24 25 25 25 24 22 20 23 23 22 22
9 8 12 10 6 5 4 6 5 4 6 3 4 5 4 5 7 7 7 8 5 6 3 4 6 5 4 4 6 6 7 7 8 9 11 15 19 18 21 24 25 25 25 24 24 22 24 25 22 21 20 19 17 16
9 10 16 16 6 4 4 3 3 4 3 3 3 6 4 4 5 6 9 8 7 4 6 5 5 5 4 5 7 3 7 7 8 9 10 9 16 19 19 19 19 21 22 23 24 23 23 23 23 23 21 19 17 16
10 14 14 7 6 10 3 2 3 2 3 3 3 3 4 5 9 8 7 7 8 4 4 5 5 6 9 12 14 16 10 10 9 8 9 9 14 17 18 20 21 21 20 19 18 19 20 18 18 19 18 17 17 17
5 9 9 10 4 3 3 5 3 2 2 2 2 3 4 4 5 5 4 7 5 6 3 5 7 7 9 12 13 20 20 25 23 21 19 18 9 9 14 18 18 17 19 18 18 17 17 17 16 16 17 18 18 19
5 6 6 9 5 5 3 1 3 4 3 3 2 4 4 4 4 5 4 5 5 7 7 9 14 16 15 19 24 25 23 22 16 17 18 19 21 21 20 20 19 17 16 18 17 17 17 16 16 16 14 14 14 14
7 5 5 5 6 4 2 4 4 3 4 3 4 4 5 4 3 4 4 3 6 9 9 8 10 8 13 18 10 15 18 18 19 19 17 17 16 18 19 20 20 19 18 16 16 16 15 15 14 13 12 13 12 12
6 8 5 7 5 3 4 4 5 4 5 6 4 4 4 3 3 4 4 3 6 7 7 12 12 9 8 8 13 17 20 15 14 12 16 17 17 16 17 18 19 18 14 14 14 13 13 13 13 13 12 11 10 10
7 9 6 6 4 5 5 4 4 6 3 3 5 2 3 3 4 5 3 5 6 7 6 7 7 7 8 13 9 13 14 13 15 16 17 18 14 12 11 10 11 13 13 12 11 11 11 10 9 9 11 11 10 9
6 6 5 5 3 3 4 5 6 5 6 5 3 4 3 3 4 3 4 7 5 10 13 13 13 14 12 14 15 14 16 17 16 17 15 16 18 19 15 13 13 10 9 10 10 9 8 8 7 8 8 8 8 7
5 6 5 6 6 7 4 4 5 6 4 5 2 5 3 5 4 3 4 9 9 10 12 14 14 14 14 13 12 11 11 12 15 17 19 18 17 16 15 13 13 11 10 10 8 8 8 7 7 6 6 6 4 4
5 5 4 6 5 6 7 6 5 4 5 4 2 3 3 3 6 9 9 9 9 10 11 12 11 12 12 12 12 11 11 8 7 6 7 6 9 10 9 8 7 7 6 6 8 7 7 5 5 5 4 3 2 2
4 4 4 6 5 6 5 5 6 5 6 8 6 9 8 8 11 6 6 8 10 10 9 9 8 9 9 9 10 11 11 11 14 8 5 6 7 5 5 6 6 6 5 4 4 4 5 2 1 1 2 2 4 4
3 3 4 5 4 6 6 7 11 12 8 7 7 7 6 4 5 9 9 8 8 8 8 8 9 8 7 7 6 6 8 8 11 12 11 9 6 5 4 4 3 4 3 3 3 3 3 2 1 2 3 4 4 6
4 4 4 4 4 3 3 3 2 3 3 4 4 4 3 3 3 3 1 2 5 7 6 7 8 8 7 7 8 10 10 8 7 7 6 6 5 4 4 3 3 3 2 2 2 2 2 3 3 4 5 6 6 8
7 7 7 5 4 4 2 2 2 2 2 2 2 3 4 4 3 3 2 4 7 8 8 9 8 7 7 7 6 7 5 4 5 4 4 3 4 3 4 1 1 2 2 2 2 3 3 4 5 6 6 7 8 10

GFSWCAN_925_spd_075.txt.gz
Wind_Speed
33 35 37 40 43 46 47 46 45 47 49 48 50 50 50 49 48 46 32 42 22 8 5 21 9 8 7 8 8 5 7 7 2 5 4 4 4 8 6 6 4 5 6 6 4 4 4 10 3 8 5 6 5 0
35 36 39 42 40 34 37 38 40 40 40 45 47 51 50 49 48 46 8 39 39 3 6 8 10 25 13 6 2 4 7 7 5 4 4 3 3 2 7 5 3 6 5 4 4 4 8 6 4 1 3 3 4 3
35 36 40 34 31 33 37 37 38 40 41 43 46 49 52 50 47 43 17 28 28 4 2 3 6 22 12 17 17 1 4 5 4 4 4 4 4 5 2 6 4 3 4 4 3 5 12 6 5 5 8 1 4 6
33 35 27 26 28 28 33 39 41 37 37 39 42 51 55 50 46 42 20 28 15 3 3 5 12 16 20 16 13 8 8 10 1 5 4 3 2 6 5 5 5 5 9 7 4 7 14 8 4 6 6 9 5 6
31 19 17 19 18 19 17 4 21 30 33 31 32 47 48 47 48 36 26 28 22 4 3 5 5 10 20 20 12 5 4 1 2 2 1 1 2 4 3 3 5 5 7 6 6 11 7 3 3 5 9 3 8 3
18 12 11 15 12 14 14 25 28 29 28 36 46 45 47 47 45 29 4 22 27 5 2 3 2 6 12 12 7 2 1 2 2 3 1 3 1 5 3 5 6 8 4 6 5 2 4 8 7 4 4 6 3 7
11 8 10 14 14 16 21 25 26 29 34 45 43 47 50 51 36 3 5 22 28 6 3 2 3 1 6 4 2 3 2 1 3 3 3 1 2 6 11 4 5 7 6 7 4 7 4 2 5 6 7 6 6 7
9 9 13 16 19 20 24 28 30 35 42 43 45 47 48 40 19 2 16 48 26 3 3 3 1 3 7 2 2 2 2 2 1 3 2 2 5 2 5 6 7 8 5 5 5 6 6 8 8 8 6 8 12 12
14 19 22 22 26 33 30 37 44 45 48 49 48 44 28 8 3 10 38 36 6 2 3 2 4 3 4 2 3 1 2 2 2 3 3 4 3 4 5 6 7 10 13 7 8 8 8 11 9 9 11 9 11 12
36 44 43 44 43 49 50 50 52 54 57 48 14 4 3 6 37 21 7 3 3 1 2 2 3 3 3 2 2 3 2 3 4 5 4 4 5 3 10 10 8 8 9 8 11 7 11 9 11 12 14 14 14 14
45 46 42 36 30 27 26 32 39 27 17 4 3 4 16 9 5 3 3 2 1 2 2 2 2 5 1 3 2 2 3 3 3 3 7 2 4 3 8 11 12 14 15 14 13 12 12 15 14 14 14 14 14 17
32 33 34 37 36 34 30 20 16 16 10 11 16 8 3 3 3 5 2 1 2 4 2 4 3 3 3 2 2 3 3 2 4 7 2 3 2 6 7 11 13 13 15 18 17 17 16 18 16 17 15 15 19 21
23 26 29 32 34 29 26 31 34 37 23 6 3 4 2 3 4 4 5 1 1 2 3 3 3 3 2 2 2 3 4 3 2 3 2 3 4 5 6 7 11 12 14 16 16 18 22 21 24 23 17 24 26 26
14 16 17 18 23 22 20 17 9 6 8 4 4 5 4 4 4 4 3 2 2 1 4 4 3 3 2 3 2 4 1 2 4 5 3 2 5 6 7 7 10 12 14 16 16 17 18 19 19 25 27 27 29 26
12 9 8 13 13 16 18 21 18 11 5 4 5 5 5 4 4 4 4 3 5 4 1 0 1 3 2 2 3 2 4 4 5 3 2 4 7 7 8 9 11 12 13 14 14 16 18 24 24 24 28 29 31 30
13 13 16 12 11 13 16 13 15 7 4 4 7 4 4 3 6 5 6 5 4 5 3 1 1 2 3 3 5 6 4 4 3 2 4 6 8 9 11 11 12 13 14 15 21 23 25 26 25 27 30 30 29 28
10 7 14 9 12 14 18 6 8 6 4 5 3 5 4 2 4 4 5 6 5 3 2 2 4 4 3 3 4 4 3 3 4 5 6 9 11 12 12 13 12 19 19 24 26 26 27 28 30 30 23 26 28 29
6 8 9 3 3 6 7 10 4 5 7 4 3 5 4 3 5 4 5 6 5 3 2 4 4 7 5 4 4 3 5 7 7 7 8 11 13 14 17 15 21 23 24 26 27 26 26 26 24 21 25 25 26 26
8 11 8 6 4 5 3 5 5 4 4 2 2 3 3 3 5 6 6 7 4 5 3 3 6 4 3 4 4 4 5 5 8 9 11 16 22 20 23 24 24 24 24 24 24 22 24 25 23 21 20 20 20 20
7 10 15 10 3 4 4 3 5 4 3 2 2 6 4 3 5 4 8 8 8 4 6 5 4 3 3 4 5 4 6 5 7 10 9 9 18 21 19 18 18 21 23 24 24 24 24 24 24 23 23 22 20 19
7 13 11 7 7 10 3 2 3 2 3 3 2 1 3 5 11 9 7 7 7 4 4 4 4 5 8 12 13 16 10 10 8 8 9 9 15 19 19 20 22 22 20 19 18 20 21 19 19 22 23 22 24 25
8 11 7 6 4 4 3 4 3 4 2 3 2 3 3 3 4 7 7 9 4 4 3 4 5 6 8 12 12 19 20 25 23 21 21 20 9 9 14 18 19 17 19 18 18 18 18 17 20 23 26 25 24 23
5 6 6 8 5 6 2 1 2 2 3 3 3 3 3 3 3 3 4 5 3 5 8 8 13 14 12 18 24 25 23 23 17 18 20 20 22 21 21 20 19 18 16 17 18 18 19 21 21 20 20 21 22 22
7 6 5 4 6 3 3 5 3 3 4 3 3 3 3 3 6 4 4 2 4 9 7 8 9 7 12 15 9 14 18 20 21 21 18 18 16 18 20 20 20 19 18 17 17 18 19 19 19 20 20 20 19 19
6 8 5 6 5 5 5 4 5 4 4 5 4 4 2 2 3 3 3 2 5 5 5 11 11 8 7 7 12 18 23 15 15 12 15 17 17 18 19 20 21 17 16 18 17 19 18 16 15 18 19 17 18 16
7 7 6 7 4 4 4 4 4 6 4 3 4 2 3 3 5 4 3 2 4 5 4 5 5 6 7 12 7 11 14 14 16 17 18 19 12 13 12 10 10 15 17 15 16 16 16 14 16 16 14 14 13 13
6 5 4 5 3 2 4 4 4 4 5 5 3 5 3 5 4 3 2 5 3 10 14 14 13 12 10 12 14 15 17 18 18 17 17 20 20 18 17 14 12 12 12 15 15 14 14 14 15 15 14 10 10 7
4 5 5 5 5 6 4 4 5 6 4 5 3 6 3 4 3 2 2 10 12 14 16 17 15 14 13 12 14 15 16 20 22 22 23 23 21 20 18 17 15 10 8 9 10 12 13 11 10 11 8 8 7 4
4 2 3 6 5 5 6 4 3 3 4 3 2 3 2 3 4 5 9 13 13 12 11 11 13 14 14 13 15 16 16 7 7 7 8 5 9 12 9 9 13 9 9 12 12 9 8 7 7 8 7 6 5 4
3 2 4 5 5 5 3 3 2 1 3 5 4 6 4 4 14 11 12 13 11 11 12 11 11 11 11 12 13 15 15 15 14 11 6 5 8 9 9 9 8 7 7 7 6 7 4 3 3 5 4 2 4 4
3 3 4 4 4 0 1 2 11 11 6 5 4 4 3 2 6 14 13 9 10 10 12 13 14 13 12 11 10 11 11 13 15 14 13 10 7 6 5 4 6 5 4 5 4 4 3 5 5 3 3 3 3 2
3 3 4 4 2 1 2 3 2 3 3 2 1 2 1 2 2 2 5 10 8 9 10 11 12 11 11 12 11 12 13 11 9 9 9 8 8 7 6 5 3 2 3 5 4 3 3 3 3 4 2 3 6 8
3 3 3 4 2 3 1 1 2 1 2 2 2 2 2 2 3 2 2 11 7 14 14 11 10 10 8 7 8 6 4 4 5 5 4 4 4 5 4 3 1 1 2 2 3 2 2 2 3 5 5 6 7 10

GFSWCAN_925_spd_078.txt.gz
Wind_Speed
31 32 33 33 36 37 38 40 42 43 43 42 42 42 41 42 43 43 31 38 24 5 6 16 14 13 10 9 6 4 2 2 2 5 4 4 4 7 5 5 6 5 4 2 3 1 6 4 8 6 6 4 4 1
32 33 34 36 37 40 42 43 43 42 45 46 46 46 45 45 44 44 13 27 39 6 2 21 29 29 22 14 5 5 4 3 5 3 1 2 2 2 5 5 5 5 7 3 5 6 5 4 2 6 5 2 4 5
30 31 34 37 41 41 36 35 37 38 37 39 42 47 49 48 45 45 25 16 31 8 3 6 12 22 28 23 14 4 2 1 2 3 4 3 4 4 2 8 4 3 2 4 4 8 11 6 4 3 3 4 3 3
32 33 34 33 28 29 32 33 37 40 41 40 41 42 47 50 45 43 22 29 21 3 4 5 16 22 37 16 20 14 6 3 1 2 2 3 3 4 4 7 4 5 6 4 3 6 5 7 7 7 7 4 2 2
29 29 24 20 22 21 23 28 33 39 44 42 42 41 39 52 46 38 25 33 18 3 3 4 9 17 32 23 15 11 6 3 2 0 1 3 2 1 1 3 5 5 6 4 5 9 6 6 8 6 7 5 2 2
22 13 12 13 10 10 10 11 7 21 41 40 41 43 42 47 46 31 4 22 30 10 1 3 2 8 19 24 15 5 4 3 3 2 3 3 3 2 2 3 6 7 6 8 10 6 11 2 2 1 6 4 7 7
6 8 10 7 6 7 11 13 16 24 30 34 44 44 46 48 41 8 6 12 40 25 1 3 3 2 11 9 4 2 1 2 3 3 4 3 2 3 2 4 5 17 14 12 8 5 1 4 5 2 7 9 12 13
9 10 10 10 13 13 15 23 30 35 39 38 43 43 51 44 29 4 2 31 42 4 3 3 2 3 3 3 2 1 2 0 1 3 1 3 1 2 5 3 4 14 23 17 9 3 3 8 8 7 8 10 15 13
25 19 16 15 20 23 31 34 35 40 45 50 55 47 32 12 3 6 34 37 19 3 3 3 4 3 2 1 3 2 2 2 1 2 3 4 4 6 4 0 7 14 15 13 5 8 8 10 10 9 13 12 16 13
38 40 32 35 27 33 34 41 46 46 48 45 23 4 3 5 31 20 7 4 4 2 2 2 2 3 3 1 1 3 2 2 2 5 3 3 4 4 5 7 9 10 14 5 9 6 9 8 9 12 14 12 14 13
37 38 38 38 39 42 44 41 34 28 25 6 3 3 13 22 6 2 3 3 3 2 1 2 3 4 1 3 3 1 3 2 3 4 6 3 3 3 3 7 12 10 8 12 9 12 12 11 13 14 13 15 15 17
37 35 37 34 28 31 28 17 9 8 7 8 13 8 5 2 2 4 2 2 3 4 1 4 3 3 1 2 3 2 3 3 5 4 3 3 1 4 6 7 11 7 9 15 15 18 15 14 13 16 15 15 19 25
31 31 30 34 30 28 24 19 23 13 3 3 4 4 4 3 7 5 2 2 3 1 3 2 3 3 2 2 2 2 5 6 3 4 1 3 3 4 3 6 10 5 12 15 18 19 21 19 21 22 16 23 26 27
20 23 22 23 25 19 12 6 6 6 10 4 4 6 4 4 4 4 4 2 2 2 3 3 4 3 2 2 2 3 3 2 5 2 3 2 2 3 4 7 11 7 13 15 17 17 18 17 19 24 25 25 27 26
13 13 14 18 18 17 14 10 12 11 5 5 5 5 5 2 3 3 3 2 5 3 2 3 3 2 2 2 3 2 2 3 4 2 2 2 4 6 8 8 10 12 13 14 14 16 17 23 23 25 28 30 31 31
7 8 17 12 15 15 9 12 14 6 4 4 7 4 4 3 6 5 7 3 4 4 1 1 2 3 2 2 4 5 2 3 2 2 3 5 8 9 11 12 12 12 13 14 19 22 25 25 25 27 30 30 29 29
10 6 14 10 15 20 11 6 8 6 5 5 4 3 3 2 3 3 4 5 5 2 2 2 4 3 2 3 3 4 3 2 3 5 6 8 10 11 12 13 13 17 17 21 24 26 27 28 29 29 22 26 30 29
8 14 12 5 8 6 7 9 4 5 7 4 3 4 4 3 5 5 6 6 5 3 3 4 3 6 4 3 3 3 4 5 6 7 7 9 12 12 16 14 20 22 23 24 25 25 26 25 24 21 25 25 28 28
14 16 10 7 7 5 4 5 6 4 5 2 2 3 2 2 4 6 7 8 4 4 3 3 5 4 3 3 2 3 3 4 7 8 9 13 18 18 20 22 24 23 23 23 22 20 22 21 20 20 20 21 22 21
6 14 15 11 4 4 4 3 5 4 3 2 2 6 3 2 4 3 8 7 7 3 6 5 4 3 3 3 4 1 4 5 8 9 8 8 15 18 18 18 17 22 23 23 23 22 22 22 21 20 20 21 21 20
11 17 16 8 6 11 4 2 4 3 4 3 2 1 2 1 8 8 5 5 6 4 4 4 3 4 8 11 13 14 9 9 7 7 8 8 13 17 18 20 20 20 18 17 16 18 19 17 18 20 23 22 23 24
7 6 7 10 4 4 4 6 4 2 3 4 3 2 3 3 3 5 3 7 4 4 3 3 5 5 9 12 11 17 17 22 21 20 19 18 8 7 12 15 17 15 17 17 17 17 17 17 21 23 24 23 26 26
3 6 6 8 6 6 3 3 4 4 3 3 2 3 3 3 3 4 4 5 3 4 7 7 10 14 12 17 23 23 20 20 15 16 18 18 19 19 18 18 16 16 16 16 17 18 19 20 23 25 25 25 25 24
7 6 5 4 6 2 3 5 4 4 5 3 3 3 3 3 3 4 4 3 3 8 7 8 9 6 10 14 8 13 15 17 19 19 16 17 15 17 18 19 18 17 16 17 20 22 23 22 22 23 23 23 22 22
7 9 5 7 4 5 5 4 5 4 4 4 4 4 3 3 3 4 3 3 5 5 5 9 10 7 6 6 10 17 21 16 14 11 16 16 18 18 18 19 18 15 16 20 19 22 22 23 22 21 20 20 20 19
8 6 5 6 4 5 4 4 4 4 3 3 3 3 3 3 4 4 2 2 4 4 4 5 4 5 7 11 7 10 13 14 17 15 14 12 11 12 12 10 10 11 12 15 19 20 20 20 21 20 19 17 16 16
6 5 3 4 3 3 4 4 4 5 5 5 3 4 4 5 3 2 2 4 2 8 12 12 11 10 8 11 14 15 15 16 17 15 15 17 16 14 15 13 10 10 13 13 13 15 18 17 17 15 15 13 11 10
3 4 5 6 5 5 4 4 4 5 3 4 3 6 3 3 1 1 2 7 13 15 16 16 15 14 13 14 14 16 17 21 22 23 24 23 20 18 17 15 12 10 11 11 11 11 13 13 13 11 11 11 9 6
3 2 4 6 5 5 5 3 2 2 2 1 3 2 2 2 1 4 7 11 13 14 12 12 13 15 16 15 13 10 9 8 6 6 7 4 6 11 9 10 11 12 11 11 10 9 9 9 10 10 9 7 6 5
3 2 4 4 5 5 3 2 1 3 3 3 3 4 3 4 11 11 11 11 9 9 10 9 9 10 10 13 14 15 13 7 11 10 5 4 8 10 8 9 10 8 8 9 10 10 9 9 9 7 6 4 2 2
2 4 5 4 3 2 1 0 10 10 4 4 4 4 2 2 7 14 12 9 12 14 15 13 11 8 9 10 12 12 11 11 11 11 13 13 9 7 6 6 6 5 4 6 5 5 6 7 6 7 4 2 2 1
3 3 4 4 0 3 2 1 2 3 1 3 2 2 3 3 2 4 8 2 9 11 9 9 11 11 8 7 6 7 12 11 8 8 7 8 8 8 8 6 3 3 5 5 4 3 3 4 3 2 1 1 3 5
3 4 4 4 3 0 3 3 3 2 3 2 1 1 1 3 2 2 5 2 8 11 11 10 10 9 7 9 9 7 6 6 6 5 4 4 4 4 3 2 1 2 5 5 4 2 2 1 1 2 2 3 5 7

GFSWCAN_925_spd_081.txt.gz
Wind_Speed
34 33 32 31 31 32 32 32 33 33 34 34 34 33 33 35 40 45 30 34 23 2 7 13 13 10 9 12 6 2 3 2 5 6 5 4 3 6 5 4 4 5 5 2 2 4 5 1 4 1 1 9 3 3
34 32 32 32 33 33 34 35 36 37 37 36 36 36 35 36 38 42 15 36 37 6 1 23 28 28 32 20 10 5 3 3 5 4 3 2 3 1 5 6 4 6 5 4 5 3 23 7 4 5 4 3 7 4
31 29 30 29 33 35 38 39 41 42 42 42 41 41 40 39 39 42 21 21 24 9 5 6 13 23 30 29 23 6 2 4 3 4 3 3 3 4 4 4 6 4 5 4 4 9 20 21 5 3 4 5 9 8
30 32 32 33 34 34 33 33 33 34 36 38 39 41 44 43 43 42 33 21 24 2 2 3 23 21 33 24 25 19 7 3 2 2 2 2 2 4 4 5 5 5 4 6 4 5 9 10 7 8 8 8 9 9
33 32 29 28 26 23 25 27 30 33 36 39 38 38 42 45 43 40 33 25 23 4 3 3 12 29 29 29 24 16 10 4 3 1 2 2 2 2 2 1 4 4 4 3 5 6 4 7 7 4 6 7 8 5
27 13 13 16 18 17 18 21 26 29 35 41 42 39 40 46 47 27 5 24 33 23 3 3 2 15 20 26 15 6 4 4 3 3 3 1 2 2 1 6 7 6 4 2 2 8 13 14 5 1 6 6 5 6
10 11 11 9 10 10 13 16 20 23 34 42 43 42 38 40 43 9 6 13 40 26 2 1 1 4 23 8 8 4 2 2 2 3 3 4 3 3 3 5 4 4 4 5 8 3 8 5 4 1 11 14 11 12
8 9 6 8 6 7 7 1 6 15 39 46 44 40 38 45 27 5 3 34 44 8 3 3 3 3 5 3 5 2 4 2 0 2 1 3 1 2 4 4 6 4 4 7 5 7 11 3 6 8 9 9 14 11
17 14 15 19 20 24 25 17 25 32 39 45 46 46 42 11 4 5 24 36 21 4 3 0 3 3 3 2 3 2 2 3 1 2 3 4 4 6 6 8 6 4 3 6 10 9 5 7 8 8 9 11 13 12
24 22 24 28 34 38 38 48 51 50 56 55 37 5 3 6 45 38 7 3 2 0 1 1 0 3 3 2 2 3 1 2 2 4 0 2 5 6 6 5 4 4 2 2 0 4 5 6 8 7 11 10 12 12
33 26 30 39 39 34 33 33 37 28 17 7 3 3 25 27 7 2 3 2 3 4 3 3 3 5 2 3 3 0 3 3 3 4 6 3 3 3 6 5 5 3 4 3 0 3 9 12 13 13 13 13 13 15
24 24 27 25 19 18 21 16 16 22 15 13 17 15 7 4 3 3 2 2 3 4 1 4 2 3 2 3 3 1 3 2 5 3 3 3 2 5 5 5 5 4 5 11 10 12 15 16 13 15 15 15 18 23
27 26 21 13 14 19 24 14 14 18 17 8 4 3 1 3 5 3 3 2 3 2 3 3 3 2 2 3 3 2 4 4 2 4 2 2 3 5 5 4 5 8 11 14 14 15 19 18 22 21 17 23 26 25
19 20 19 17 13 14 13 12 11 5 5 4 4 6 4 5 4 2 3 2 2 2 4 5 3 2 2 2 2 4 4 2 4 3 1 2 5 4 5 6 6 9 12 14 11 15 14 19 18 26 25 25 28 25
14 15 19 18 17 12 12 11 16 12 5 5 5 5 5 2 3 4 3 2 5 3 1 3 3 2 2 3 0 1 1 2 2 2 2 3 6 6 6 7 9 9 9 12 10 14 13 22 22 26 29 29 31 32
5 6 18 15 20 10 5 11 17 6 4 4 7 4 4 3 6 5 6 4 5 4 2 2 3 3 3 2 3 3 2 1 1 1 2 4 6 7 8 9 8 9 11 12 16 19 23 24 25 29 33 31 30 30
9 7 16 12 12 18 8 6 8 6 4 5 4 5 3 2 3 4 4 5 5 3 2 2 4 3 2 3 3 3 2 2 3 4 4 6 7 8 8 10 10 13 13 18 22 24 26 28 32 33 21 28 31 30
8 14 12 10 8 4 8 9 4 5 7 4 4 3 4 3 4 4 6 5 5 3 3 4 3 6 4 3 2 3 2 4 6 6 6 7 9 9 11 11 15 17 18 22 24 24 25 26 25 22 28 28 30 27
15 15 12 9 9 6 4 5 6 4 5 2 2 3 3 2 5 6 6 7 5 5 4 3 5 3 3 2 2 4 3 3 6 6 8 12 16 15 17 19 20 21 21 21 20 19 22 23 22 22 22 22 22 21
11 15 16 16 6 4 5 3 5 5 3 2 2 6 3 2 5 4 9 8 8 4 6 5 4 3 3 3 4 3 3 4 6 8 7 7 14 18 16 15 15 19 21 22 22 23 23 23 22 22 22 22 22 19
8 14 15 9 8 10 4 2 4 3 4 3 2 1 3 2 8 8 6 6 6 4 3 3 3 4 8 10 11 11 8 8 6 5 5 6 11 15 17 17 19 18 17 15 15 18 20 18 19 21 23 23 23 23
8 9 6 9 5 4 4 6 4 3 3 3 2 3 3 3 3 5 5 8 4 3 3 3 5 5 8 11 11 15 14 19 18 17 15 13 7 7 10 13 15 14 15 15 16 16 18 19 21 24 25 23 25 26
5 7 6 9 6 5 3 3 4 4 3 2 2 3 3 3 3 3 3 4 3 6 7 6 7 12 10 15 20 22 18 17 13 14 15 16 17 17 18 17 15 14 14 15 16 18 19 21 24 25 26 25 25 24
9 6 5 4 6 3 3 5 3 3 4 3 3 3 3 3 3 4 4 3 4 8 7 9 10 4 8 13 8 12 15 15 17 18 15 15 14 16 17 18 18 17 15 16 18 19 20 22 22 23 24 25 23 23
7 9 6 7 5 5 6 5 5 4 3 4 4 4 3 3 3 3 2 3 4 5 4 8 9 7 5 6 10 15 19 15 14 10 16 15 15 17 18 18 18 14 14 19 17 20 19 20 21 22 22 22 22 21
8 5 5 4 4 5 4 4 5 5 4 4 4 3 3 3 4 4 2 2 2 3 2 4 3 5 6 11 6 9 12 14 16 16 16 15 13 11 10 8 8 10 8 13 18 19 19 18 18 19 18 17 16 16
6 4 3 4 2 4 4 4 4 5 5 4 3 4 4 5 3 1 1 4 1 7 11 12 11 10 8 10 13 15 16 16 17 14 14 15 14 12 12 11 8 7 9 9 12 15 18 17 16 15 15 14 12 10
3 4 5 5 5 4 4 3 4 3 2 3 3 4 4 4 2 1 1 6 11 13 15 16 16 15 15 14 14 16 17 18 19 20 21 21 18 15 13 13 12 9 9 9 9 10 11 12 13 12 12 13 11 8
4 2 4 6 5 5 5 3 1 2 3 1 4 2 2 2 1 2 5 9 10 12 12 12 11 11 11 11 10 9 8 5 3 4 6 3 5 9 10 10 9 9 9 11 11 9 9 9 9 10 9 8 6 5
2 2 5 4 5 5 3 2 1 3 3 2 3 4 3 4 10 8 9 9 10 11 10 8 5 5 8 11 12 13 9 2 4 5 5 3 6 9 7 7 8 9 9 10 12 12 10 10 9 8 7 6 4 4
2 3 5 4 4 1 2 1 8 9 4 4 4 4 2 1 6 14 12 7 9 11 11 10 9 6 6 6 8 7 9 10 9 8 9 12 10 7 6 5 5 5 5 5 5 5 7 8 7 6 5 3 3 3
3 3 4 4 0 2 2 2 2 3 3 3 3 2 3 3 3 5 9 2 7 7 6 5 6 6 5 4 3 5 10 10 9 8 7 6 5 5 5 4 2 2 3 3 4 4 5 5 5 5 4 4 4 4
3 3 4 4 3 1 2 3 3 2 3 2 2 1 1 3 2 2 6 4 4 4 7 8 9 10 10 8 8 8 6 6 6 5 4 3 2 2 1 1 0 0 3 3 4 3 3 2 2 3 4 4 5 6

GFSWCAN_925_spd_084.txt.gz
Wind_Speed
41 38 37 33 34 34 31 30 28 29 28 28 30 30 31 30 39 44 34 33 26 2 7 10 14 9 10 13 5 3 5 2 5 7 4 4 3 5 4 4 3 6 5 4 4 5 7 3 11 6 5 7 7 5
37 37 34 35 34 33 32 31 30 30 30 31 31 32 32 33 32 39 14 32 38 7 2 21 25 28 26 20 10 4 3 3 4 3 3 2 3 0 5 3 4 5 6 3 6 4 4 3 6 18 11 10 8 6
37 36 36 33 31 29 30 30 31 32 32 33 34 34 34 34 34 34 18 27 26 7 3 7 7 21 21 25 28 8 4 6 3 4 2 2 3 4 4 5 6 4 3 4 1 6 12 10 8 12 12 14 6 4
40 35 33 35 36 36 34 33 34 35 37 37 37 37 36 34 34 34 27 26 24 3 3 2 26 10 35 26 27 28 9 5 4 2 4 2 2 3 4 5 6 7 3 5 6 12 16 14 7 8 8 11 7 4
35 36 36 38 35 30 33 33 35 35 36 38 39 41 39 37 35 32 27 22 18 3 3 3 3 31 29 29 25 23 15 4 2 1 2 3 3 2 2 2 3 5 7 4 6 9 3 9 8 12 8 7 4 1
35 31 23 20 19 20 23 26 27 30 31 34 36 35 40 38 36 27 4 25 31 12 1 1 4 5 26 26 22 8 10 6 4 3 2 3 4 3 3 3 5 6 4 4 4 4 5 14 11 7 3 4 7 10
11 12 16 14 13 16 18 21 23 26 27 28 34 36 34 37 40 8 4 12 35 20 0 1 2 2 19 9 11 5 5 3 3 3 3 3 3 4 2 4 5 5 6 6 7 4 6 5 5 1 8 5 7 14
8 7 8 9 9 9 13 17 22 28 31 32 34 35 36 39 30 7 3 26 40 9 1 2 3 1 7 3 5 3 3 3 3 3 3 3 0 2 4 6 11 16 15 7 7 6 7 9 3 3 5 8 10 13
14 17 21 21 11 7 5 2 11 22 32 37 39 37 33 8 3 11 20 38 14 4 3 3 3 3 4 2 3 1 4 3 3 3 3 4 3 6 8 11 10 10 8 7 3 6 8 6 6 6 7 7 10 11
26 28 28 35 45 45 30 27 38 43 45 46 35 5 3 9 44 43 5 2 1 0 1 2 2 2 3 2 2 3 3 3 3 5 2 3 4 3 1 5 6 6 3 3 4 5 4 4 5 6 10 10 10 12
28 27 27 23 26 27 21 32 42 36 27 8 3 3 39 32 8 3 3 3 3 4 4 2 2 3 1 3 3 3 3 3 3 3 6 3 4 1 6 6 7 7 5 5 6 7 7 7 11 12 13 12 13 13
17 21 24 17 19 35 35 28 19 20 12 12 18 19 8 4 2 3 3 2 2 4 3 4 3 3 2 2 2 2 3 2 4 3 3 3 2 5 6 5 6 6 6 6 5 6 8 10 12 13 13 13 17 22
14 19 25 20 17 22 26 28 32 34 26 9 6 4 3 4 4 2 4 2 2 1 3 3 4 2 2 2 2 2 4 5 4 3 3 2 5 6 7 4 5 5 6 8 9 10 15 14 19 19 16 21 26 27
14 15 26 21 16 17 12 10 15 11 13 4 4 6 3 4 3 3 3 3 3 3 3 4 3 2 2 2 2 3 3 2 3 3 1 3 6 5 5 6 5 6 7 9 9 11 14 15 15 22 24 26 30 26
14 13 15 27 18 15 15 17 16 9 5 4 5 5 4 2 3 3 3 2 4 3 0 2 3 2 2 3 2 1 1 1 1 2 2 2 5 5 6 6 6 7 7 8 8 11 13 18 17 19 24 30 34 33
1 5 16 14 20 8 5 11 14 6 4 4 7 4 4 3 6 5 6 3 5 5 3 1 3 3 3 2 4 3 2 1 2 2 2 3 6 6 6 7 8 8 9 9 14 17 18 20 21 23 23 29 32 33
7 6 13 9 10 20 10 7 7 6 4 5 4 5 4 2 2 4 3 4 5 3 3 3 5 3 2 3 3 3 2 3 2 3 4 6 5 6 6 8 9 11 11 16 20 22 22 25 28 27 16 27 31 31
8 11 9 9 3 6 9 10 4 5 8 5 4 4 4 3 4 4 5 5 4 2 3 4 3 6 4 3 2 3 3 3 5 6 6 7 8 8 10 9 14 16 17 20 22 23 24 23 21 19 26 27 30 28
15 14 12 7 6 6 4 5 6 5 5 2 2 2 2 2 6 6 6 7 6 6 4 3 5 3 3 3 2 4 3 3 3 5 6 10 13 13 15 18 19 19 19 20 21 20 21 20 20 20 21 21 22 20
11 15 17 12 5 4 5 3 5 5 3 3 1 5 4 4 5 4 9 7 7 4 6 5 3 3 2 3 4 4 1 3 3 6 6 6 12 16 15 14 14 17 20 22 22 21 21 21 20 20 21 21 21 19
8 13 15 11 9 12 4 3 4 3 4 3 2 1 2 2 8 7 6 7 6 4 4 3 4 4 8 8 12 9 7 7 5 3 3 5 9 14 14 16 18 18 15 14 14 17 18 16 17 20 23 22 21 22
8 9 6 9 5 4 4 6 5 3 3 3 2 3 3 3 3 5 3 7 4 4 3 3 5 5 7 10 10 15 13 15 15 14 13 11 6 6 9 12 14 13 15 14 15 16 17 17 19 21 24 22 25 25
5 7 7 9 6 5 2 2 4 3 3 2 2 3 3 3 2 2 3 3 3 5 8 4 6 10 9 14 18 21 19 15 11 12 13 14 16 16 16 17 15 15 14 15 16 18 18 20 23 24 24 25 25 24
8 6 6 5 5 2 3 4 3 3 3 3 3 3 3 2 2 4 4 2 3 8 6 8 7 3 7 11 7 12 14 14 15 17 15 13 12 15 16 17 18 18 15 16 17 18 19 21 22 22 23 24 23 23
7 9 6 7 5 6 6 5 5 5 4 5 4 4 3 2 3 3 2 3 4 5 5 8 9 6 5 5 8 13 18 14 12 9 15 14 13 15 16 18 18 15 14 19 17 19 18 19 20 20 20 21 21 19
8 5 5 4 4 5 3 4 4 4 3 4 4 2 3 3 4 4 2 3 2 3 3 4 3 4 6 10 5 8 12 11 13 14 15 15 13 10 9 7 7 10 8 12 17 18 18 17 18 18 18 17 17 16
6 4 3 4 2 4 4 3 3 4 4 4 2 3 3 5 3 1 1 4 2 6 9 10 10 9 6 8 11 13 15 15 16 14 14 17 16 12 11 10 8 6 7 8 11 14 17 17 16 16 16 14 12 10
3 5 5 5 5 4 4 4 4 4 2 3 3 5 4 3 2 1 1 4 8 10 13 13 13 13 13 13 13 15 16 16 18 18 20 20 18 16 15 13 12 10 10 9 9 9 10 12 13 13 13 12 10 7
4 3 4 6 5 5 5 3 2 2 3 2 3 2 2 2 1 2 4 7 7 10 11 11 10 10 11 10 9 7 5 5 3 4 5 3 5 11 12 9 10 10 9 10 11 10 9 9 9 9 9 8 7 5
3 2 4 4 5 5 3 1 2 3 3 2 2 3 3 4 9 8 7 6 8 10 7 6 4 4 7 9 11 16 14 8 6 4 4 3 5 9 8 8 9 8 7 7 9 9 9 8 8 8 7 5 3 2
2 3 5 4 4 1 3 2 4 6 4 4 4 4 2 1 5 14 11 6 7 6 6 8 9 7 6 6 6 7 10 13 13 12 11 12 9 7 6 5 5 5 5 4 4 4 5 5 5 5 3 2 2 3
3 3 4 4 1 2 2 3 1 3 3 3 3 2 3 4 3 6 10 2 4 5 5 5 6 8 9 9 9 12 12 11 11 11 9 7 6 5 4 4 3 2 1 1 1 2 3 3 4 5 5 5 5 7
3 3 4 4 3 2 2 3 4 2 4 3 3 0 1 3 3 2 5 5 2 6 8 9 9 10 10 9 9 9 7 7 8 7 6 5 4 3 2 2 2 3 1 1 1 1 2 2 2 3 4 5 6 7

GFSWCAN_925_spd_087.txt.gz
Wind_Speed
43 41 39 38 35 34 30 28 28 28 26 23 23 23 24 37 46 44 34 34 32 9 14 8 12 13 10 11 6 4 4 6 4 7 5 4 5 6 5 6 4 8 7 5 7 6 9 4 3 2 2 8 17 21
43 40 38 36 33 30 29 30 29 28 27 24 24 25 24 21 32 46 18 37 37 8 4 30 31 22 19 17 9 7 4 3 5 4 4 3 3 2 6 5 4 6 7 4 7 3 5 5 3 7 7 4 15 16
40 39 38 35 34 34 33 31 29 29 28 30 31 29 28 27 26 29 28 25 32 9 3 5 8 23 19 31 32 8 4 6 5 1 2 1 4 5 5 7 5 4 3 4 1 3 6 7 10 10 8 11 16 16
40 39 38 37 34 32 30 31 30 29 29 30 30 29 28 28 29 31 22 29 25 3 5 4 23 21 27 22 28 29 8 9 6 3 3 3 3 1 3 4 5 7 3 5 6 10 7 6 2 6 14 16 14 13
41 41 40 39 38 39 38 39 36 34 32 31 30 30 29 29 29 29 28 20 30 6 3 3 2 17 30 36 29 31 20 10 5 4 3 3 2 2 2 1 3 4 6 4 8 9 6 13 3 6 12 11 11 11
24 21 24 29 29 30 25 26 30 35 35 33 31 31 30 29 28 24 4 26 22 5 1 2 3 3 22 20 26 14 13 9 6 2 2 3 3 3 3 3 5 9 9 7 10 5 7 9 7 5 5 4 6 8
18 15 15 18 22 24 22 23 26 27 33 34 35 35 34 32 30 6 3 11 38 14 1 2 2 2 9 11 7 7 11 4 5 2 3 4 3 4 2 4 5 7 10 10 11 5 8 9 3 7 1 6 10 12
11 10 11 13 17 17 17 22 24 28 32 31 30 31 32 34 26 7 4 17 38 6 2 2 2 3 6 3 4 5 5 5 4 3 2 3 1 3 5 7 13 18 15 14 17 8 12 6 7 2 3 7 8 10
14 17 18 24 8 0 10 20 24 29 29 30 30 32 27 12 3 11 12 36 14 5 5 3 3 2 4 2 3 3 3 3 3 3 4 3 4 6 8 11 9 6 4 9 8 3 7 6 8 3 3 6 10 10
15 22 32 22 31 34 8 18 29 36 35 32 26 4 3 11 37 38 10 3 2 1 1 3 2 3 2 1 2 3 3 3 3 5 4 4 4 3 4 3 3 6 8 9 8 7 4 4 1 2 4 5 8 11
20 25 32 22 25 31 34 28 35 40 38 7 3 3 21 36 8 3 3 3 3 4 4 3 4 4 1 3 3 2 2 4 3 3 5 2 3 1 7 6 7 8 7 5 5 8 9 11 7 7 9 10 12 12
28 31 30 25 27 30 29 34 36 26 12 12 19 17 6 4 2 4 4 4 4 5 4 6 4 3 2 2 2 3 2 3 4 4 2 3 3 7 9 10 9 8 8 6 5 4 5 6 7 11 12 12 16 19
28 27 27 27 26 31 36 41 40 42 33 13 7 5 3 4 4 4 5 3 2 3 4 4 4 2 1 2 2 2 4 3 6 3 3 3 6 7 8 8 7 7 5 4 5 6 9 10 13 16 12 19 23 22
25 23 20 17 18 18 20 23 18 11 12 4 3 5 3 4 4 3 2 2 2 2 4 4 3 2 2 2 1 3 2 3 3 4 2 3 8 8 7 6 5 6 7 7 6 7 10 11 12 16 18 20 23 22
12 21 23 16 15 23 15 2 11 12 6 5 5 5 4 2 3 4 3 1 3 3 1 3 3 2 2 3 1 1 2 2 3 2 2 5 7 7 6 6 5 6 6 6 6 9 10 16 17 19 20 22 23 26
1 7 20 18 13 18 16 10 13 7 4 4 7 4 4 3 5 5 5 3 4 4 1 1 3 3 3 2 3 4 2 2 2 2 4 4 5 6 6 6 6 6 7 8 13 15 17 18 20 23 27 26 25 25
5 5 8 9 20 15 8 8 6 6 4 5 4 4 3 2 2 3 4 5 4 2 3 2 5 3 1 3 3 4 2 2 3 4 4 6 6 5 5 6 6 9 11 14 17 20 22 25 28 28 18 26 29 27
7 8 5 4 8 9 7 8 4 5 8 6 4 4 4 4 5 4 6 6 4 3 3 4 3 6 4 3 2 3 2 3 4 5 6 6 7 8 10 9 12 14 15 17 19 20 21 22 22 20 26 27 29 26
14 13 8 10 6 7 4 5 5 5 5 2 2 3 2 2 5 6 6 7 6 6 4 4 6 4 3 3 3 4 4 2 2 3 5 9 11 11 13 16 18 18 18 17 17 17 19 20 20 20 21 21 22 20
14 17 19 12 5 4 5 4 5 5 3 3 2 4 3 3 4 5 9 7 7 4 6 5 4 3 3 3 4 5 2 2 3 3 4 5 9 13 13 12 13 16 18 20 20 20 20 22 21 21 21 21 22 20
6 11 13 9 8 12 4 3 4 3 4 3 2 1 2 2 7 7 6 7 7 4 4 3 4 4 8 7 10 8 8 6 4 3 2 4 8 10 12 14 16 15 14 14 14 16 18 17 17 20 22 22 22 22
7 8 5 8 5 4 4 6 4 4 3 4 3 3 3 3 3 5 3 8 4 4 3 3 4 4 5 8 9 13 11 13 13 13 13 10 5 5 8 10 13 13 14 14 15 16 17 16 18 21 23 21 22 22
5 7 7 9 6 5 2 2 4 3 3 2 2 3 3 3 2 3 4 4 3 5 8 5 6 8 8 11 14 18 17 13 11 11 12 12 13 13 14 15 13 14 14 15 15 17 18 17 19 21 21 21 22 21
8 6 6 5 6 3 2 5 3 3 3 3 3 3 3 2 2 4 4 2 3 9 7 9 9 4 8 11 8 12 14 11 13 15 13 12 11 14 14 15 16 16 15 14 15 17 16 17 19 19 20 20 18 17
7 9 6 7 5 6 6 4 5 4 4 5 4 4 3 2 3 3 2 3 4 5 6 9 9 7 5 5 9 13 18 13 11 9 15 12 12 13 15 16 16 14 12 18 14 15 15 17 18 18 17 17 17 16
8 5 5 4 4 5 3 4 4 4 3 4 4 2 3 3 4 4 2 3 3 4 4 5 4 4 6 10 6 8 10 10 11 14 14 14 12 9 9 7 8 10 9 12 16 16 15 15 16 17 17 17 17 17
6 4 3 4 2 4 4 4 3 4 5 4 2 3 3 5 3 1 1 4 2 5 7 8 8 9 7 8 10 11 14 15 15 13 12 16 15 13 11 9 8 6 7 8 11 14 16 16 17 17 17 15 13 11
3 4 5 5 5 4 4 4 4 4 2 3 3 5 4 3 2 1 1 3 7 8 11 12 13 12 12 11 11 12 13 14 15 15 18 19 18 16 15 14 12 10 11 10 10 11 12 13 15 15 14 13 11 8
4 2 3 6 5 5 6 3 2 2 3 2 3 2 2 2 2 2 3 4 4 6 8 8 9 9 10 9 9 7 6 8 3 4 5 3 4 11 11 11 11 11 11 13 12 11 11 10 11 11 10 9 7 6
3 2 4 4 5 5 3 1 1 2 3 2 3 4 3 4 7 6 6 4 5 7 6 5 5 5 6 9 11 15 14 10 8 5 4 3 5 8 9 9 9 10 9 9 10 11 10 10 11 10 9 7 5 4
2 3 5 4 4 1 2 2 2 4 3 4 4 3 2 1 4 13 11 6 6 6 6 8 8 7 5 5 5 5 9 14 15 14 13 12 10 8 7 7 7 7 6 6 6 7 7 7 6 6 5 3 2 2
4 4 4 4 1 2 2 3 2 3 3 3 3 2 3 3 3 4 9 3 2 6 6 6 9 10 12 13 14 13 12 10 10 10 9 8 7 6 6 5 4 4 3 3 3 3 4 4 5 5 4 3 3 4
3 3 4 4 3 2 2 3 4 2 3 3 2 0 1 2 3 1 5 6 6 8 10 10 11 10 10 9 10 10 9 9 8 8 7 6 4 3 2 2 3 3 3 2 2 3 3 2 2 2 2 3 4 5